[[{"header":{"parameterUnit":"m.s-1","parameterCategory":1,"la1":30.6,"la2":28.766,"lo1":-90.7593,"lo2":-88.6598,"dy":0.0162,"dx":0.0183,"nx":116,"ny":114,"refTime":"2024-02-22T18:00:00:Z","depth":0,"parameterNumber":2,"parameterNumberName":"U-component_of_WINDS"},"data":[0.0,0.0,0.0,0.0,0.0,0.0,0.0,0.0,0.0,0.0,0.0,0.0,0.0,0.0,0.0,0.0,0.0,0.0,0.0,0.0,0.0,0.0,0.0,0.0,0.0,0.0,0.0,0.0,0.0,0.0,0.0,0.0,0.0,0.0,0.0,0.0,0.0,0.0,0.0,0.0,0.0,0.0,0.0,0.0,0.0,0.0,0.0,0.0,0.0,0.0,0.0,0.0,0.0,0.0,0.0,0.0,0.0,0.0,0.0,0.0,0.0,0.0,0.0,0.0,0.0,0.0,0.0,0.0,0.0,0.0,0.0,0.0,0.0,0.0,0.0,0.0,0.0,0.0,0.0,0.0,0.0,0.0,0.0,0.0,0.0,0.0,0.0,0.0,0.0,0.0,0.0,0.0,0.0,0.0,0.0,0.0,0.0,0.0,0.0,0.0,0.0,0.0,0.0,0.0,0.0,0.0,0.0,0.0,0.0,0.0,0.0,0.0,0.0,0.0,0.0,0.0,0.0,0.0,0.0,0.0,0.0,0.0,0.0,0.0,0.0,0.0,0.0,0.0,0.0,0.0,0.0,0.0,0.0,0.0,0.0,0.0,0.0,0.0,0.0,0.0,0.0,0.0,0.0,0.0,0.0,0.0,0.0,0.0,0.0,0.0,0.0,0.0,0.0,0.0,0.0,0.0,0.0,0.0,0.0,0.0,0.0,0.0,0.0,0.0,0.0,0.0,0.0,0.0,0.0,0.0,0.0,0.0,0.0,0.0,0.0,0.0,0.0,0.0,0.0,0.0,0.0,0.0,0.0,0.0,0.0,0.0,0.0,0.0,0.0,0.0,0.0,0.0,0.0,0.0,0.0,0.0,0.0,0.0,0.0,0.0,0.0,0.0,0.0,0.0,0.0,0.0,0.0,0.0,0.0,0.0,0.0,0.0,0.0,0.0,0.0,0.0,0.0,0.0,0.0,0.0,0.0,0.0,0.0,0.0,0.0,0.0,0.0,0.0,0.0,0.0,0.0,0.0,0.0,0.0,0.0,0.0,0.0,0.0,0.0,0.0,0.0,0.0,0.0,0.0,0.0,0.0,0.0,0.0,0.0,0.0,0.0,0.0,0.0,0.0,0.0,0.0,0.0,0.0,0.0,0.0,0.0,0.0,0.0,0.0,0.0,0.0,0.0,0.0,0.0,0.0,0.0,0.0,0.0,0.0,0.0,0.0,0.0,0.0,0.0,0.0,0.0,0.0,0.0,0.0,0.0,0.0,0.0,0.0,0.0,0.0,0.0,0.0,0.0,0.0,0.0,0.0,0.0,0.0,0.0,0.0,0.0,0.0,0.0,0.0,0.0,0.0,0.0,0.0,0.0,0.0,0.0,0.0,0.0,0.0,0.0,0.0,0.0,0.0,0.0,0.0,0.0,0.0,0.0,0.0,0.0,0.0,0.0,0.0,0.0,0.0,0.0,0.0,0.0,0.0,0.0,0.0,0.0,0.0,0.0,0.0,0.0,0.0,0.0,0.0,0.0,0.0,0.0,0.0,0.0,0.0,0.0,0.0,0.0,0.0,0.0,0.0,0.0,0.0,0.0,0.0,0.0,0.0,0.0,0.0,0.0,0.0,0.0,0.0,0.0,0.0,0.0,0.0,0.0,0.0,0.0,0.0,0.0,0.0,0.0,0.0,0.0,0.0,0.0,0.0,0.0,0.0,0.0,0.0,0.0,0.0,0.0,0.0,0.0,0.0,0.0,0.0,0.0,0.0,0.0,0.0,0.0,0.0,0.0,0.0,0.0,0.0,0.0,0.0,0.0,0.0,0.0,0.0,0.0,0.0,0.0,0.0,0.0,0.0,0.0,0.0,0.0,0.0,0.0,0.0,0.0,0.0,0.0,0.0,0.0,0.0,0.0,0.0,0.0,0.0,0.0,0.0,0.0,0.0,0.0,0.0,0.0,0.0,0.0,0.0,0.0,0.0,0.0,0.0,0.0,0.0,0.0,0.0,0.0,0.0,0.0,0.0,0.0,0.0,0.0,0.0,0.0,0.0,0.0,0.0,0.0,0.0,0.0,0.0,0.0,0.0,0.0,0.0,0.0,0.0,0.0,0.0,0.0,0.0,0.0,0.0,0.0,0.0,0.0,0.0,0.0,0.0,0.0,0.0,0.0,0.0,0.0,0.0,0.0,0.0,0.0,0.0,0.0,0.0,0.0,0.0,0.0,0.0,0.0,0.0,0.0,0.0,0.0,0.0,0.0,0.0,0.0,0.0,0.0,0.0,0.0,0.0,0.0,0.0,0.0,0.0,0.0,0.0,0.0,0.0,0.0,0.0,0.0,0.0,0.0,0.0,0.0,0.0,0.0,0.0,0.0,0.0,0.0,0.0,0.0,0.0,0.0,0.0,0.0,0.0,0.0,0.0,0.0,0.0,0.0,0.0,0.0,0.0,0.0,0.0,0.0,0.0,0.0,0.0,0.0,0.0,0.0,0.0,0.0,0.0,0.0,0.0,0.0,0.0,0.0,0.0,0.0,0.0,0.0,0.0,0.0,0.0,0.0,0.0,0.0,0.0,0.0,0.0,0.0,0.0,0.0,0.0,0.0,0.0,0.0,0.0,0.0,0.0,0.0,0.0,0.0,0.0,0.0,0.0,0.0,0.0,0.0,0.0,0.0,0.0,0.0,0.0,0.0,0.0,0.0,0.0,0.0,0.0,0.0,0.0,0.0,0.0,0.0,0.0,0.0,0.0,0.0,0.0,0.0,0.0,0.0,0.0,0.0,0.0,0.0,0.0,0.0,0.0,0.0,0.0,0.0,0.0,0.0,0.0,0.0,0.0,0.0,0.0,0.0,0.0,0.0,0.0,0.0,0.0,0.0,0.0,0.0,0.0,0.0,0.0,0.0,0.0,0.0,0.0,0.0,0.0,0.0,0.0,0.0,0.0,0.0,0.0,0.0,0.0,0.0,0.0,0.0,0.0,0.0,0.0,0.0,0.0,0.0,0.0,0.0,0.0,0.0,0.0,0.0,0.0,0.0,0.0,0.0,0.0,0.0,0.0,0.0,0.0,0.0,0.0,0.0,0.0,0.0,0.0,0.0,0.0,0.0,0.0,0.0,0.0,0.0,0.0,0.0,0.0,0.0,0.0,0.0,0.0,0.0,0.0,0.0,0.0,0.0,0.0,0.0,0.0,0.0,0.0,0.0,0.0,0.0,0.0,0.0,0.0,0.0,0.0,0.0,0.0,0.0,0.0,0.0,0.0,0.0,0.0,0.0,0.0,0.0,0.0,0.0,0.0,0.0,0.0,0.0,0.0,0.0,0.0,0.0,0.0,0.0,0.0,0.0,0.0,0.0,0.0,0.0,0.0,0.0,0.0,0.0,0.0,0.0,0.0,0.0,0.0,0.0,0.0,0.0,0.0,0.0,0.0,0.0,0.0,0.0,0.0,0.0,0.0,0.0,0.0,0.0,0.0,0.0,0.0,0.0,0.0,0.0,0.0,0.0,0.0,0.0,0.0,0.0,0.0,0.0,0.0,0.0,0.0,0.0,0.0,0.0,0.0,0.0,0.0,0.0,0.0,0.0,0.0,0.0,0.0,0.0,0.0,0.0,0.0,0.0,0.0,0.0,0.0,0.0,0.0,0.0,0.0,0.0,0.0,0.0,0.0,0.0,0.0,0.0,0.0,0.0,0.0,0.0,0.0,0.0,0.0,0.0,0.0,0.0,0.0,0.0,0.0,0.0,0.0,0.0,0.0,0.0,0.0,0.0,0.0,0.0,0.0,0.0,0.0,0.0,0.0,0.0,0.0,0.0,0.0,0.0,0.0,0.0,0.0,0.0,0.0,0.0,0.0,0.0,0.0,0.0,0.0,0.0,0.0,0.0,0.0,0.0,0.0,0.0,0.0,0.0,0.0,0.0,0.0,0.0,0.0,0.0,0.0,0.0,0.0,0.0,0.0,0.0,0.0,0.0,0.0,0.0,0.0,0.0,0.0,0.0,0.0,0.0,0.0,0.0,0.0,0.0,0.0,0.0,0.0,0.0,0.0,0.0,0.0,0.0,0.0,0.0,0.0,0.0,0.0,0.0,0.0,0.0,0.0,0.0,0.0,0.0,0.0,0.0,0.0,0.0,0.0,0.0,0.0,0.0,0.0,0.0,0.0,0.0,0.0,0.0,0.0,0.0,0.0,0.0,0.0,0.0,0.0,0.0,0.0,0.0,0.0,0.0,0.0,0.0,0.0,0.0,0.0,0.0,0.0,0.0,0.0,0.0,0.0,0.0,0.0,0.0,0.0,0.0,0.0,0.0,0.0,0.0,0.0,0.0,0.0,0.0,0.0,0.0,0.0,0.0,0.0,0.0,0.0,0.0,0.0,0.0,0.0,0.0,0.0,0.0,0.0,0.0,0.0,0.0,0.0,0.0,0.0,0.0,0.0,0.0,0.0,0.0,0.0,0.0,0.0,0.0,0.0,0.0,0.0,0.0,0.0,0.0,0.0,0.0,0.0,0.0,0.0,0.0,0.0,0.0,0.0,0.0,0.0,0.0,0.0,0.0,0.0,0.0,0.0,0.0,0.0,0.0,0.0,0.0,0.0,0.0,0.0,0.0,0.0,0.0,0.0,0.0,0.0,0.0,0.0,0.0,0.0,0.0,0.0,0.0,0.0,0.0,0.0,0.0,0.0,0.0,0.0,0.0,0.0,0.0,0.0,0.0,0.0,0.0,0.0,0.0,0.0,0.0,0.0,0.0,0.0,0.0,0.0,0.0,0.0,0.0,0.0,0.0,0.0,0.0,0.0,0.0,0.0,0.0,0.0,0.0,0.0,0.0,0.0,0.0,0.0,0.0,0.0,0.0,0.0,0.0,0.0,0.0,0.0,0.0,0.0,0.0,0.0,0.0,0.0,0.0,0.0,0.0,0.0,0.0,0.0,0.0,0.0,0.0,0.0,0.0,0.0,0.0,0.0,0.0,0.0,0.0,0.0,0.0,0.0,0.0,0.0,0.0,0.0,0.0,0.0,0.0,0.0,0.0,0.0,0.0,0.0,0.0,0.0,0.0,0.0,0.0,0.0,0.0,0.0,0.0,0.0,0.0,0.0,0.0,0.0,0.0,0.0,0.0,0.0,0.0,0.0,0.0,0.0,0.0,0.0,0.0,0.0,0.0,0.0,0.0,0.0,0.0,0.0,0.0,0.0,0.0,0.0,0.0,0.0,0.0,0.0,0.0,0.0,0.0,0.0,0.0,0.0,0.0,0.0,0.0,0.0,0.0,0.0,0.0,0.0,0.0,0.0,0.0,0.0,0.0,0.0,0.0,0.0,0.0,0.0,0.0,0.0,0.0,0.0,0.0,0.0,0.0,0.0,0.0,0.0,0.0,0.0,0.0,0.0,0.0,0.0,0.0,0.0,0.0,0.0,0.0,0.0,0.0,0.0,0.0,0.0,0.0,0.0,0.0,0.0,0.0,0.0,0.0,0.0,0.0,0.0,0.0,0.0,0.0,0.0,0.0,0.0,0.0,0.0,0.0,0.0,0.0,0.0,0.0,0.0,0.0,0.0,0.0,0.0,0.0,0.0,0.0,0.0,0.0,0.0,0.0,0.0,0.0,0.0,0.0,0.0,0.0,0.0,0.0,0.0,0.0,0.0,0.0,0.0,0.0,0.0,0.0,0.0,0.0,0.0,0.0,0.0,0.0,0.0,0.0,0.0,0.0,0.0,0.0,0.0,0.0,0.0,0.0,0.0,0.0,0.0,0.0,0.0,0.0,0.0,0.0,0.0,0.0,0.0,0.0,0.0,0.0,0.0,0.0,0.0,0.0,0.0,0.0,0.0,0.0,0.0,0.0,0.0,0.0,0.0,0.0,0.0,0.0,0.0,0.0,0.0,0.0,0.0,0.0,0.0,0.0,0.0,0.0,0.0,0.0,0.0,0.0,0.0,0.0,0.0,0.0,0.0,0.0,0.0,0.0,0.0,0.0,0.0,0.0,0.0,0.0,0.0,0.0,0.0,0.0,0.0,0.0,0.0,0.0,0.0,0.0,0.0,0.0,0.0,0.0,0.0,0.0,0.0,0.0,0.0,0.0,0.0,0.0,0.0,0.0,0.0,-7.3822,-7.4578,0.0,0.0,0.0,0.0,0.0,0.0,0.0,0.0,0.0,0.0,0.0,0.0,0.0,0.0,0.0,0.0,0.0,0.0,0.0,0.0,0.0,0.0,0.0,0.0,0.0,0.0,-7.6397,-7.6397,-7.6397,-7.6397,-7.6397,-7.6397,-7.6646,-7.6804,-7.6804,-7.7048,-7.7187,-7.7187,-7.7187,-7.7187,-7.7187,-7.7187,-7.7187,-7.7187,0.0,0.0,0.0,0.0,0.0,0.0,0.0,0.0,0.0,0.0,0.0,0.0,0.0,0.0,0.0,0.0,0.0,0.0,0.0,0.0,0.0,0.0,0.0,0.0,0.0,0.0,0.0,0.0,0.0,0.0,0.0,0.0,0.0,0.0,0.0,0.0,0.0,0.0,0.0,0.0,0.0,0.0,0.0,0.0,0.0,0.0,0.0,0.0,0.0,0.0,0.0,0.0,0.0,0.0,0.0,0.0,0.0,0.0,0.0,0.0,0.0,0.0,0.0,0.0,0.0,0.0,0.0,0.0,0.0,0.0,-7.3073,-7.3709,0.0,0.0,0.0,0.0,0.0,0.0,0.0,0.0,0.0,0.0,0.0,0.0,0.0,0.0,0.0,0.0,0.0,0.0,0.0,0.0,0.0,0.0,0.0,-7.6397,-7.6397,-7.6397,-7.6397,-7.6397,-7.6397,-7.6397,-7.6397,-7.6397,-7.6646,-7.6804,-7.6804,-7.7048,-7.7187,-7.7187,-7.7187,-7.7187,-7.7187,-7.7187,-7.7187,-7.7187,-7.7093,0.0,0.0,0.0,0.0,0.0,0.0,0.0,0.0,0.0,0.0,0.0,0.0,0.0,0.0,0.0,0.0,0.0,0.0,0.0,0.0,0.0,0.0,0.0,0.0,0.0,0.0,0.0,0.0,0.0,0.0,0.0,0.0,0.0,0.0,0.0,0.0,0.0,0.0,0.0,0.0,0.0,0.0,0.0,0.0,0.0,0.0,0.0,0.0,0.0,0.0,0.0,0.0,0.0,0.0,0.0,0.0,0.0,0.0,0.0,0.0,0.0,0.0,0.0,-7.1053,-7.0892,-7.0714,-7.0655,-7.0619,-7.0645,-7.2135,-7.2604,-7.2326,-7.2326,0.0,0.0,0.0,0.0,0.0,0.0,0.0,0.0,0.0,0.0,0.0,0.0,0.0,0.0,0.0,0.0,0.0,0.0,0.0,0.0,0.0,-7.6397,-7.6397,-7.6397,-7.6397,-7.6397,-7.6397,-7.6397,-7.6397,-7.6397,-7.6646,-7.6804,-7.6804,-7.7048,-7.7187,-7.7187,-7.7187,-7.7187,-7.7187,-7.7187,-7.7187,-7.7187,-7.7187,0.0,0.0,0.0,0.0,0.0,0.0,0.0,0.0,0.0,0.0,0.0,0.0,0.0,0.0,0.0,0.0,0.0,0.0,0.0,0.0,0.0,0.0,0.0,0.0,0.0,0.0,0.0,0.0,0.0,0.0,0.0,0.0,0.0,0.0,0.0,0.0,0.0,0.0,0.0,0.0,0.0,0.0,0.0,-7.574,-7.4857,0.0,0.0,0.0,0.0,0.0,0.0,0.0,0.0,0.0,0.0,0.0,0.0,0.0,-7.1503,-7.1503,-7.1394,-7.0965,-7.0187,-7.0181,-6.9687,-6.8846,-6.8834,-6.8822,-6.8757,-6.9001,0.0,-7.1223,-7.1223,0.0,0.0,0.0,0.0,0.0,0.0,0.0,0.0,0.0,0.0,0.0,0.0,0.0,0.0,0.0,0.0,0.0,0.0,0.0,0.0,0.0,-7.6397,-7.6397,-7.6397,-7.6397,-7.6397,-7.6397,-7.6397,-7.6427,-7.6506,-7.6692,-7.6833,-7.6891,-7.7097,-7.7187,-7.7187,-7.7187,-7.7187,-7.7187,-7.7187,-7.7187,-7.7187,-7.7187,-7.7187,-7.7187,-7.7144,0.0,0.0,0.0,0.0,0.0,0.0,0.0,0.0,0.0,0.0,0.0,0.0,0.0,0.0,0.0,0.0,0.0,0.0,0.0,0.0,0.0,0.0,0.0,0.0,0.0,0.0,0.0,0.0,0.0,0.0,0.0,0.0,0.0,0.0,0.0,0.0,0.0,0.0,0.0,-7.5347,-7.4902,-7.4452,-7.4339,-7.4099,0.0,0.0,0.0,0.0,0.0,0.0,0.0,0.0,0.0,-7.0002,-6.9913,-6.9899,-6.9899,-6.9866,-6.9651,-6.9281,-6.9212,-6.8909,-6.8513,-6.8463,-6.8424,-6.8385,-6.8385,-6.8834,-6.9553,-6.9553,-6.9579,-6.9566,0.0,0.0,0.0,0.0,-7.0541,-7.1168,0.0,0.0,0.0,0.0,0.0,0.0,0.0,0.0,0.0,0.0,0.0,0.0,-7.6397,-7.6397,-7.6397,-7.6397,-7.6397,-7.6397,-7.6397,-7.6397,-7.6471,-7.66,-7.6494,-7.6547,-7.6669,-7.6791,-7.6992,-7.7187,-7.7187,-7.7109,-7.6875,-7.6875,-7.6758,-7.6523,-7.6523,-7.6797,-7.7187,-7.7187,-7.7145,0.0,0.0,0.0,0.0,0.0,0.0,0.0,0.0,0.0,0.0,0.0,0.0,0.0,0.0,0.0,0.0,0.0,0.0,0.0,0.0,0.0,0.0,0.0,0.0,0.0,0.0,0.0,0.0,0.0,0.0,0.0,0.0,0.0,0.0,0.0,0.0,0.0,0.0,-7.4121,-7.3969,-7.3696,-7.3587,-7.3244,0.0,0.0,0.0,0.0,0.0,0.0,-6.9716,-6.9705,-6.9435,-6.8816,-6.8756,-6.8756,-6.8756,-6.8701,-6.8552,-6.8309,-6.8215,-6.8038,-6.7833,-6.777,-6.7782,-6.7782,-6.7782,-6.7782,-6.7782,-6.8244,-6.8385,-6.8385,-6.8385,-6.8821,-6.936,-6.936,-6.9744,-7.0514,0.0,0.0,0.0,0.0,0.0,0.0,0.0,0.0,0.0,0.0,0.0,-7.6397,-7.6397,-7.6397,-7.6397,-7.6397,-7.6397,-7.6397,-7.6397,-7.6397,-7.6471,-7.66,-7.5942,-7.5645,-7.5771,-7.5893,-7.6367,-7.7187,-7.7187,-7.6797,-7.5976,-7.5976,-7.5508,-7.4726,-7.4726,-7.5664,-7.7187,-7.7187,-7.7187,-7.7109,0.0,0.0,0.0,0.0,0.0,0.0,0.0,0.0,0.0,0.0,0.0,0.0,0.0,0.0,0.0,0.0,0.0,0.0,0.0,0.0,0.0,0.0,0.0,0.0,0.0,0.0,0.0,0.0,0.0,0.0,0.0,0.0,0.0,0.0,0.0,0.0,0.0,0.0,0.0,-7.1785,-7.1661,0.0,0.0,0.0,0.0,-7.0075,-6.9378,-6.8904,-6.8854,-6.8854,-6.8854,-6.8816,-6.8723,-6.8701,-6.8701,-6.8645,-6.8162,-6.728,-6.728,-6.6819,-6.6025,-6.6013,-6.6013,-6.6013,-6.6013,-6.6013,-6.6167,-6.7744,-6.8385,-6.8385,-6.8385,-6.8436,-6.8475,-6.8475,-6.8513,-6.8783,0.0,0.0,0.0,0.0,0.0,0.0,0.0,0.0,-7.9608,-7.9067,-7.7983,-7.7016,-7.6436,-7.6397,-7.6397,-7.6397,-7.6397,-7.6397,-7.6397,-7.6397,-7.6263,-7.5896,-7.5644,-7.5595,-7.5814,-7.5898,-7.6055,-7.6367,-7.5781,-7.5351,-7.5078,-7.5078,-7.4883,-7.4609,-7.4609,-7.4961,-7.5547,-7.5547,-7.5547,-7.5508,-7.5152,-7.4943,0.0,0.0,0.0,0.0,0.0,0.0,0.0,0.0,0.0,0.0,0.0,0.0,0.0,0.0,0.0,0.0,0.0,0.0,0.0,0.0,0.0,0.0,0.0,0.0,0.0,0.0,0.0,0.0,0.0,0.0,0.0,0.0,0.0,0.0,0.0,0.0,0.0,-7.1536,-7.0911,0.0,-7.0451,-6.9705,-6.9241,-6.9241,-6.897,-6.8545,-6.8003,-6.7965,-6.7694,-6.7152,-6.7061,-6.7029,-6.7029,-6.6977,-6.6764,-6.6432,-6.6383,-6.6192,-6.5897,-6.5897,-6.5897,-6.5897,-6.5897,-6.5897,-6.5936,-6.6551,-6.6782,-6.6782,-6.6782,-6.7128,-6.7552,-6.7552,-6.7936,-6.8577,0.0,0.0,0.0,0.0,0.0,0.0,0.0,0.0,-7.9995,-7.9453,-7.8409,-7.7481,-7.69,-7.6591,-7.6397,-7.6397,-7.6397,-7.6397,-7.6397,-7.6397,-7.6138,-7.554,-7.5313,-7.5428,-7.5898,-7.5625,-7.5625,-7.5898,-7.5039,-7.4453,-7.414,-7.414,-7.3984,-7.3711,-7.3711,-7.3711,-7.3711,-7.3711,-7.4062,-7.457,-7.4297,-7.4098,-7.4004,0.0,0.0,0.0,0.0,0.0,0.0,0.0,0.0,0.0,0.0,0.0,0.0,0.0,0.0,0.0,0.0,0.0,0.0,0.0,0.0,0.0,0.0,0.0,0.0,0.0,0.0,0.0,0.0,0.0,0.0,0.0,0.0,0.0,0.0,-7.118,-7.096,-7.0619,-6.9992,-6.9589,-6.9589,-6.8854,-6.8352,-6.8352,-6.8081,-6.7655,-6.7075,-6.7075,-6.6794,-6.6193,-6.6102,-6.6058,-6.6085,-6.5982,-6.5972,-6.5972,-6.5923,-6.5897,-6.5897,-6.5897,-6.5897,-6.5897,-6.5897,-6.5897,-6.5897,-6.5897,-6.5897,-6.5897,-6.5897,-6.6244,-6.6705,-6.6705,-6.7051,-6.7705,0.0,0.0,0.0,0.0,0.0,0.0,0.0,-8.0769,-8.0227,-8.0188,-7.8796,-7.7751,-7.7713,-7.6939,-7.6436,-7.6397,-7.6397,-7.6397,-7.6397,-7.6397,-7.6138,-7.554,-7.4935,-7.5039,-7.5859,-7.5039,-7.5,-7.582,-7.4961,-7.4101,-7.3242,-7.3242,-7.2812,-7.1992,-7.1992,-7.1992,-7.1992,-7.1992,-7.2969,-7.4453,-7.3594,-7.3242,-7.3164,0.0,0.0,0.0,0.0,0.0,0.0,0.0,0.0,0.0,0.0,0.0,0.0,0.0,0.0,0.0,0.0,0.0,0.0,0.0,0.0,0.0,0.0,0.0,0.0,0.0,0.0,0.0,0.0,0.0,0.0,0.0,0.0,0.0,-7.0341,-7.0226,-6.9822,-6.8914,-6.8777,-6.8777,-6.8777,-6.7965,-6.7462,-6.7462,-6.6688,-6.6185,-6.6185,-6.6185,-6.6155,-6.6102,-6.6036,-6.6017,-6.6008,-6.5935,-6.5897,-6.5897,-6.5897,-6.5897,-6.5897,-6.5897,-6.5897,-6.5897,-6.5897,-6.5897,-6.5897,-6.5897,-6.5897,-6.5897,-6.5897,-6.5897,-6.5897,-6.5897,-6.5897,-6.6128,0.0,0.0,0.0,0.0,0.0,0.0,0.0,-8.0885,-8.0923,-8.0266,-7.9801,-7.9067,-7.7829,-7.7481,-7.7094,-7.6436,-7.6397,-7.6397,-7.6397,-7.6397,-7.6138,-7.554,-7.5523,0.0,-7.4961,-7.4726,-7.4414,-7.4023,-7.3125,-7.2578,-7.2344,-7.2344,-7.2226,-7.1992,-7.1992,-7.1992,-7.1992,-7.1992,-7.2265,-7.2695,-7.2461,-7.2344,-7.2344,0.0,0.0,0.0,0.0,0.0,0.0,0.0,0.0,0.0,0.0,0.0,0.0,0.0,0.0,0.0,0.0,0.0,0.0,0.0,0.0,0.0,0.0,0.0,0.0,0.0,0.0,0.0,0.0,0.0,0.0,0.0,-6.945,-6.9303,-6.9303,-6.9231,-6.9081,-6.8816,-6.8236,-6.7849,-6.7849,-6.7075,-6.6572,-6.6572,-6.634,-6.6165,-6.6123,-6.6123,-6.6091,-6.6036,-6.6017,-6.602,-6.6008,-6.5935,-6.5897,-6.5897,-6.5897,-6.5897,-6.5897,-6.5897,-6.5897,-6.5897,-6.5897,-6.5897,-6.5897,-6.5897,-6.5897,-6.5897,-6.5897,-6.5897,-6.5897,-6.5897,-6.5897,-6.6128,0.0,0.0,0.0,0.0,0.0,0.0,0.0,-8.0962,-8.131,-8.0807,-8.042,-7.9685,-7.837,-7.7906,-7.7365,-7.6475,-7.6397,-7.6397,-7.6397,-7.6157,-7.6062,0.0,0.0,-7.582,-7.5703,-7.4961,-7.4336,-7.3828,-7.2617,-7.1992,-7.1992,-7.1992,-7.1992,-7.1992,-7.1992,-7.1992,-7.1992,-7.1992,-7.1992,-7.1992,-7.1992,-7.1992,-7.1992,-7.1992,-7.1992,-7.1992,-7.1992,-7.1992,-7.1992,-7.1992,0.0,0.0,0.0,0.0,0.0,0.0,0.0,0.0,0.0,0.0,0.0,0.0,0.0,0.0,0.0,0.0,0.0,0.0,0.0,0.0,0.0,0.0,0.0,0.0,-6.8532,-6.8241,-6.7817,-6.8045,-6.8119,-6.7771,-6.7268,-6.6959,-6.6959,-6.6495,-6.6175,-6.6155,-6.6155,-6.6134,-6.6102,-6.6069,-6.6047,-6.6013,-6.5993,-6.5984,-6.596,-6.5923,-6.5897,-6.5897,-6.5897,-6.5897,-6.5897,-6.5897,-6.5897,-6.5897,-6.5897,-6.5897,-6.5897,-6.5897,-6.5897,-6.5897,0.0,0.0,0.0,0.0,-6.6397,-6.6628,0.0,0.0,0.0,0.0,0.0,0.0,0.0,-8.0807,-8.1387,-8.1491,-8.0846,-8.0034,-7.9221,-7.837,-7.7481,-7.663,-7.6436,-7.6397,-7.6397,-7.593,0.0,-7.6929,-7.6398,-7.6367,-7.7031,-7.543,-7.4531,-7.4453,-7.2812,-7.1992,-7.1992,-7.1992,-7.1992,-7.1992,-7.1992,-7.1992,-7.1992,-7.1992,-7.1992,-7.1992,-7.1992,-7.1992,-7.1992,-7.1992,-7.1992,-7.1992,-7.1992,-7.1992,-7.1992,-7.1992,0.0,0.0,0.0,0.0,0.0,0.0,0.0,0.0,0.0,0.0,0.0,0.0,0.0,0.0,0.0,0.0,0.0,0.0,0.0,0.0,0.0,0.0,0.0,0.0,-6.756,-6.7213,-6.6332,-6.6882,-6.7075,-6.6301,-6.6185,-6.6185,-6.6185,-6.6175,-6.6155,-6.6112,-6.6091,-6.6091,-6.6091,-6.6036,0.0,0.0,0.0,-6.596,-6.5897,-6.5897,-6.5897,-6.5897,-6.5897,-6.5897,-6.5897,-6.5897,-6.5897,-6.5897,-6.5897,-6.5897,-6.5897,-6.5897,-6.5897,-6.5897,-6.5897,-6.5897,-6.5974,-6.6705,-6.6974,-6.7205,0.0,0.0,0.0,0.0,0.0,0.0,0.0,-7.9918,-8.0691,-8.1414,-8.1336,-8.0923,-8.0072,-7.9221,-7.8409,-7.7519,-7.6823,-7.6397,-7.6397,0.0,-7.6654,-7.6838,-7.6894,-7.6719,-7.6172,-7.5117,-7.4258,-7.3555,-7.25,-7.1992,-7.1992,-7.1992,-7.1992,-7.1992,-7.1992,-7.1992,-7.1992,-7.1992,-7.1992,-7.1992,-7.1992,-7.1992,-7.1992,-7.1992,-7.1992,-7.1992,-7.1992,-7.1992,-7.1992,-7.1992,-7.1992,-7.1992,-7.1992,0.0,0.0,0.0,0.0,0.0,0.0,0.0,0.0,0.0,0.0,0.0,0.0,0.0,0.0,0.0,0.0,0.0,0.0,0.0,0.0,-6.6814,-6.6566,-6.6429,-6.6234,-6.634,-6.6379,-6.6224,-6.6185,-6.6185,-6.6185,-6.6144,-6.6134,-6.6165,-6.608,-6.6024,-6.6024,-6.6017,-6.5996,-6.5935,-6.5923,-6.591,-6.5897,-6.5897,-6.5897,-6.5897,-6.5897,0.0,-6.5897,-6.5897,-6.5897,-6.5897,-6.5897,-6.5897,-6.5897,-6.5897,-6.5897,-6.5897,-6.5897,-6.5897,-6.5897,-6.6051,-6.6128,-6.6282,0.0,0.0,0.0,0.0,0.0,0.0,0.0,-7.9415,-8.0382,-8.0807,-8.1233,-8.1194,-8.0304,-7.9492,-7.8641,-7.779,-7.69,-7.6416,0.0,-7.6643,-7.6761,-7.6882,-7.7034,-7.6947,-7.6562,-7.5703,-7.4805,-7.3945,-7.3086,-7.2422,-7.1992,-7.1992,-7.1992,-7.1992,-7.1992,-7.1992,-7.1992,-7.1992,-7.1951,-7.1904,-7.1952,-7.1951,-7.1904,-7.1952,-7.1992,-7.1992,-7.1992,-7.1992,-7.1992,-7.1992,-7.1992,-7.1992,-7.1992,-7.1992,-7.1992,0.0,0.0,0.0,0.0,0.0,0.0,0.0,0.0,0.0,0.0,0.0,0.0,0.0,0.0,-6.8514,-6.7549,0.0,-6.7025,-6.6492,-6.6281,-6.6185,-6.6185,-6.6165,-6.6155,-6.6185,-6.6185,-6.6175,-6.6144,-6.6112,-6.6091,-6.6097,-6.604,-6.6005,-6.6005,-6.5984,-6.5947,-6.5947,-6.5923,-6.5897,-6.5897,-6.5897,-6.5897,-6.5897,-6.5897,-6.5897,-6.5897,-6.5897,-6.5897,-6.5897,-6.5897,-6.5897,-6.5897,-6.5897,-6.5897,-6.5897,-6.5897,-6.5897,-6.5936,-6.6359,-6.6513,-6.6628,0.0,0.0,0.0,0.0,0.0,0.0,0.0,-7.9105,-8.0034,-8.0188,-8.0962,-8.1233,-8.0536,-7.9724,-7.8834,-7.779,-7.69,0.0,0.0,-7.6582,-7.6692,-7.6895,-7.6968,-7.7044,-7.7146,-7.6328,-7.5547,-7.4844,-7.3984,-7.3125,-7.2265,-7.2265,-7.2148,-7.1992,-7.1992,-7.1992,-7.1992,-7.1992,-7.1949,-7.185,-7.1951,-7.1949,-7.185,-7.1951,-7.1992,-7.1992,-7.1992,-7.1992,-7.1992,-7.1992,-7.1992,-7.1992,-7.1992,-7.1992,-7.1953,-7.1797,-7.1758,0.0,0.0,0.0,0.0,0.0,0.0,0.0,0.0,0.0,-6.8828,-6.832,-6.8086,-6.7693,-6.6832,-6.6646,-6.6546,-6.6377,-6.6253,-6.6185,-6.6185,-6.6134,-6.6112,-6.6165,-6.6155,-6.6134,-6.6091,-6.6069,-6.6074,-6.5982,-6.5996,-6.5984,-6.6008,-6.5935,-6.5923,-6.5984,-6.5935,-6.5897,-6.5897,-6.5897,-6.5897,-6.5897,-6.5897,-6.5897,-6.5897,-6.5897,-6.5897,-6.5897,-6.5897,-6.5897,-6.5897,-6.5897,-6.5897,-6.5897,-6.5897,-6.5897,-6.5974,-6.6628,-6.6859,-6.6974,0.0,0.0,0.0,0.0,0.0,0.0,0.0,0.0,-7.9376,-8.0111,-8.0962,-8.1465,-8.1387,-8.0575,-7.9415,-7.7829,0.0,0.0,-7.6405,-7.6546,-7.6626,-7.6621,-7.6863,-7.7026,-7.7032,-7.6284,-7.5859,-7.5742,-7.4883,-7.4023,-7.3164,-7.3164,-7.2734,-7.1992,-7.1992,-7.1992,-7.1992,-7.1992,-7.1992,-7.1992,-7.1992,-7.1992,-7.1992,-7.1992,-7.1992,-7.1992,-7.1992,-7.1992,-7.1992,-7.1992,-7.1992,-7.1992,-7.1992,-7.1992,-7.1836,-7.1055,0.0,-7.0664,-6.9883,-6.9726,-6.9726,-6.957,-6.9023,-6.8633,0.0,0.0,-6.7383,-6.8047,-6.7578,-6.6947,-6.6646,-6.66,-6.6516,-6.6244,-6.6205,-6.6185,-6.6185,-6.6134,-6.6102,-6.6112,-6.6058,-6.6024,-6.6013,-6.6017,-6.5993,-6.599,-6.5933,-6.5935,-6.5996,-6.5935,-6.591,-6.591,-6.591,-6.5897,-6.5897,-6.5897,-6.5897,-6.5897,-6.5897,-6.5897,-6.5897,-6.5897,-6.5897,-6.5897,-6.5897,-6.5897,-6.5897,-6.5897,-6.5897,-6.5897,-6.5897,-6.5897,-6.5897,-6.6013,-6.6013,-6.6051,0.0,0.0,0.0,0.0,0.0,0.0,0.0,0.0,0.0,-7.8757,-7.9918,-8.073,-8.073,-8.042,-7.9531,-7.7829,0.0,0.0,-7.6436,-7.646,-7.6526,-7.66,-7.6706,-7.6838,-7.6981,-7.6694,-7.632,-7.5898,-7.5547,-7.4922,-7.4062,-7.3555,-7.3125,-7.2734,-7.2226,-7.1992,-7.1992,-7.1992,-7.1951,-7.1902,-7.1952,-7.1951,-7.1902,-7.1952,-7.1992,-7.1992,-7.1992,-7.1992,0.0,0.0,-7.1992,-7.1992,-7.1992,-7.164,-7.1172,-7.082,-7.0351,0.0,-6.9531,-6.9492,-6.9375,0.0,-6.8437,-6.8164,-6.7969,-6.7383,-6.6992,-6.7383,-6.7148,-6.6829,-6.6629,-6.659,-6.651,0.0,-6.6155,-6.6134,-6.6134,-6.6097,-6.604,-6.604,-6.5982,-6.5958,-6.5993,-6.602,-6.5996,-6.5946,-6.5935,-6.591,-6.5947,-6.5923,-6.5897,-6.5897,-6.5897,-6.5897,-6.5897,-6.5897,-6.5897,-6.5897,-6.5897,-6.5897,-6.5897,-6.5897,-6.5897,-6.5897,-6.5897,-6.5897,-6.5897,-6.5897,-6.5897,-6.5897,-6.5897,-6.5897,-6.5897,-6.5897,-6.5897,-6.5897,0.0,0.0,0.0,0.0,0.0,0.0,0.0,0.0,0.0,0.0,-7.9299,-8.0188,-8.0188,-8.0188,-7.9724,0.0,0.0,0.0,0.0,-7.6746,-7.6671,-7.6555,-7.6626,-7.6748,-7.695,-7.7032,-7.6785,-7.625,-7.625,-7.582,-7.4922,-7.4297,-7.3906,-7.3633,-7.2734,-7.2344,-7.2344,-7.2109,-7.1949,-7.1854,-7.1951,-7.1949,-7.1856,-7.1951,-7.1992,-7.1992,-7.1992,-7.1992,0.0,0.0,-7.1992,-7.1953,-7.1719,-7.1211,-7.0625,-7.0156,-6.9375,-6.8711,-6.8789,0.0,0.0,-6.8008,-6.7851,-6.7695,-6.7031,-6.6914,-6.6914,-6.6914,-6.6914,-6.6829,-6.6629,-6.6585,-6.6458,-6.6235,-6.6112,-6.6069,-6.6069,-6.6029,-6.6008,-6.6008,-6.5947,-6.5923,-6.5972,-6.5972,-6.596,-6.591,-6.5897,-6.5897,-6.5897,-6.5897,-6.5897,-6.5897,-6.5897,-6.5897,-6.5897,-6.5897,-6.5897,-6.5897,-6.5897,-6.5897,-6.5897,-6.5897,-6.5897,-6.5897,-6.5897,-6.5897,-6.5897,-6.5897,-6.5897,-6.5897,-6.5897,-6.5897,-6.5897,-6.5897,-6.5897,-6.5897,0.0,0.0,0.0,0.0,0.0,0.0,0.0,0.0,0.0,0.0,0.0,0.0,0.0,0.0,0.0,0.0,0.0,0.0,0.0,-7.7674,-7.7299,-7.6448,-7.6646,-7.6799,-7.681,-7.7048,-7.7187,-7.7148,-7.7148,-7.6719,-7.5859,-7.582,-7.5351,-7.4531,-7.3633,-7.3242,-7.3203,-7.2344,-7.1992,-7.1992,-7.1992,-7.1992,-7.1992,-7.1992,-7.1992,-7.1992,-7.1992,0.0,0.0,0.0,-7.1992,-7.1836,-7.1015,-7.0703,0.0,-6.875,-6.7656,-6.6992,0.0,0.0,-6.6953,-6.6953,-6.6953,-6.6914,-6.6914,-6.6914,-6.6914,-6.6914,-6.6914,-6.6829,-6.6629,-6.6535,-6.6425,-6.6136,-6.6047,-6.6013,-6.6013,-6.6005,-6.6008,-6.6008,-6.5947,-6.5897,0.0,-6.591,-6.5897,-6.5897,-6.5897,-6.5897,-6.5897,-6.5897,-6.5897,-6.5897,-6.5897,-6.5897,-6.5897,-6.5897,-6.5897,-6.5897,-6.5897,-6.5897,-6.5897,-6.5897,-6.5897,-6.5897,-6.5897,-6.5897,-6.5897,-6.5897,-6.5897,-6.5897,-6.5897,-6.5897,-6.5897,-6.5897,-6.5897,-6.5897,0.0,0.0,0.0,0.0,0.0,0.0,0.0,0.0,0.0,0.0,0.0,0.0,0.0,0.0,0.0,0.0,0.0,0.0,0.0,-7.8022,-7.7558,-7.7287,-7.6785,-7.6573,-7.6653,-7.6761,-7.6878,-7.7089,-7.7089,-7.6944,-7.6758,-7.6172,-7.5742,-7.543,-7.4531,-7.3828,-7.3281,-7.2881,-7.2453,-7.1992,-7.1904,-7.1907,-7.1992,-7.1992,-7.1992,-7.1992,0.0,0.0,0.0,0.0,-7.1992,-7.1836,-7.0976,0.0,0.0,-6.7851,-6.7148,-6.6914,-6.6914,0.0,-6.6914,-6.6914,-6.6914,-6.6914,-6.6914,-6.6914,-6.6914,-6.6914,-6.6914,-6.6833,-6.6703,-6.6594,-6.6528,-6.632,-6.6136,-6.6001,-6.6001,-6.5958,-6.5935,-6.5935,-6.591,0.0,0.0,0.0,0.0,-6.5897,-6.5897,-6.5897,-6.5897,-6.5897,-6.5897,-6.5897,-6.5897,-6.5897,-6.5897,-6.5897,-6.5897,-6.5897,-6.5897,-6.5897,-6.5897,-6.5897,-6.5897,-6.5897,-6.5897,-6.5897,-6.5897,-6.5897,-6.5897,-6.5897,-6.5897,-6.5897,-6.5897,-6.5897,-6.5897,-6.5897,0.0,0.0,0.0,0.0,0.0,0.0,0.0,0.0,0.0,0.0,0.0,0.0,0.0,0.0,0.0,0.0,0.0,0.0,0.0,0.0,-7.8332,-7.7713,-7.7224,-7.6826,-7.66,-7.6668,-7.6761,-7.6942,-7.6942,-7.6981,-7.7104,-7.6556,-7.6326,-7.6328,-7.5469,-7.4765,-7.4179,-7.3416,-7.3022,-7.2805,-7.2078,-7.2045,-7.2377,-7.2109,-7.1992,0.0,0.0,0.0,0.0,0.0,0.0,0.0,-7.0625,-6.9492,-6.8359,-6.7226,-6.6914,-6.6914,-6.6914,-6.6914,-6.6914,-6.6914,-6.6914,-6.6914,-6.6914,-6.6914,-6.6914,-6.6914,-6.6914,-6.6873,-6.6727,-6.6607,-6.6489,-6.6392,-6.6167,-6.6017,-6.6017,-6.5946,-6.5923,-6.591,-6.5897,-6.5897,0.0,0.0,0.0,-6.5897,-6.5897,-6.5897,-6.5897,-6.5897,-6.5897,-6.5897,-6.5897,-6.5897,-6.5897,-6.5897,-6.5897,-6.5897,-6.5897,-6.5897,-6.5897,-6.5897,-6.5897,-6.5897,-6.5897,-6.5897,-6.5897,-6.5897,-6.5897,-6.5897,-6.5897,-6.609,-6.632,-6.632,-6.6513,-6.6705,0.0,0.0,0.0,0.0,0.0,0.0,0.0,0.0,0.0,0.0,0.0,0.0,0.0,0.0,0.0,0.0,0.0,0.0,0.0,0.0,0.0,-7.7906,-7.7884,-7.7485,-7.6669,-7.6752,-7.6786,-7.6793,-7.6793,-7.6853,-7.6978,-7.6978,-7.7046,-7.7148,-7.6328,-7.5937,-7.5741,-7.3954,-7.3657,-7.4243,-7.2525,-7.233,-7.3002,-7.2261,0.0,0.0,0.0,0.0,0.0,0.0,0.0,0.0,0.0,-6.832,-6.6953,-6.6914,-6.6914,-6.6914,-6.6914,-6.6914,-6.6914,-6.6914,-6.6914,-6.6914,-6.6914,-6.6914,-6.6914,-6.6914,-6.6914,-6.6873,0.0,0.0,-6.6393,-6.6322,-6.6126,-6.6008,-6.6008,-6.5996,-6.5972,0.0,0.0,0.0,0.0,0.0,0.0,-6.5897,-6.5897,-6.5897,-6.5897,-6.5897,-6.5897,-6.5897,-6.5897,-6.5897,-6.5897,-6.5897,-6.5897,-6.5897,-6.5897,-6.5897,-6.5897,-6.5897,-6.5897,-6.5897,-6.5897,-6.5897,-6.5897,-6.5897,-6.5897,-6.5974,-6.5974,-6.6436,-6.7167,-6.7167,-6.7705,-6.8167,0.0,0.0,0.0,0.0,0.0,0.0,0.0,0.0,0.0,0.0,0.0,0.0,0.0,0.0,0.0,0.0,0.0,0.0,0.0,0.0,0.0,0.0,0.0,0.0,0.0,0.0,0.0,0.0,0.0,-7.6721,-7.6848,-7.6848,-7.6863,-7.6886,-7.6652,-7.6223,-7.5551,-7.497,-7.4541,-7.4143,0.0,-7.2763,-7.2999,0.0,0.0,0.0,0.0,0.0,0.0,0.0,0.0,0.0,0.0,-6.8711,-6.7734,-6.7109,-6.6914,-6.6914,-6.6914,-6.6914,-6.6914,-6.6914,-6.6914,-6.6914,-6.6914,-6.6914,-6.6914,-6.6914,-6.6914,-6.6875,0.0,0.0,0.0,-6.6471,-6.6187,0.0,-6.6008,-6.596,0.0,-6.5897,0.0,-6.5897,-6.5897,-6.5897,0.0,0.0,-6.5897,-6.5897,-6.5897,-6.5897,-6.5897,-6.5897,-6.5897,-6.5897,-6.5897,-6.5897,-6.5897,-6.5897,-6.5897,-6.5897,-6.5897,-6.5897,-6.5897,-6.5897,-6.5897,-6.5897,-6.5897,-6.5897,-6.6244,-6.6782,-6.6782,-6.7321,-6.809,-6.809,-6.8205,-6.8346,0.0,0.0,0.0,0.0,0.0,0.0,0.0,0.0,0.0,0.0,0.0,0.0,0.0,0.0,0.0,0.0,0.0,0.0,0.0,0.0,0.0,0.0,0.0,0.0,0.0,0.0,0.0,0.0,0.0,0.0,0.0,-7.6908,-7.6748,-7.6804,-7.6804,-7.6526,-7.6052,0.0,0.0,0.0,0.0,0.0,0.0,0.0,0.0,0.0,0.0,0.0,0.0,0.0,0.0,-7.0547,-6.9687,-6.8867,-6.8047,-6.7148,0.0,-6.6914,-6.6914,-6.6914,-6.6914,-6.6914,-6.6914,-6.6914,-6.6914,-6.6914,-6.6914,-6.6914,-6.6914,0.0,-6.6914,0.0,0.0,0.0,0.0,0.0,-6.5993,-6.597,-6.5933,0.0,-6.5947,0.0,-6.591,-6.5897,-6.5897,0.0,-6.5897,-6.5897,-6.5897,-6.5897,-6.5897,-6.5897,-6.5897,-6.5897,-6.5897,-6.5897,-6.5897,-6.5897,-6.5897,-6.5897,-6.5897,-6.5897,-6.5897,-6.5897,-6.5897,-6.609,-6.6436,-6.6436,-6.6898,-6.7667,-6.7667,-6.8205,-6.8975,-6.8975,-6.9206,-6.9513,0.0,0.0,0.0,0.0,0.0,0.0,0.0,0.0,0.0,0.0,0.0,0.0,0.0,0.0,0.0,0.0,0.0,0.0,0.0,0.0,0.0,0.0,0.0,0.0,0.0,0.0,0.0,0.0,0.0,0.0,0.0,0.0,0.0,0.0,0.0,0.0,0.0,0.0,0.0,0.0,0.0,0.0,0.0,0.0,0.0,0.0,0.0,0.0,0.0,0.0,-7.1328,-7.0547,-6.9687,-6.8945,-6.8164,-6.7187,-6.6914,-6.6914,-6.6914,-6.6914,-6.6914,-6.6914,-6.6914,-6.6914,-6.6914,-6.6914,-6.6914,-6.6914,0.0,-6.6914,-6.6914,-6.6645,-6.6444,-6.6468,0.0,-6.5993,-6.599,-6.6001,-6.599,-6.6008,-6.6008,-6.5972,-6.591,-6.5897,-6.5897,-6.5897,-6.5897,-6.5897,-6.5897,-6.5897,-6.5897,-6.5897,-6.5897,-6.5897,-6.5897,-6.5897,-6.5897,-6.5897,-6.5897,-6.5897,-6.5897,-6.5897,-6.5897,-6.5897,-6.6013,-6.6436,-6.709,-6.7205,-6.7782,-6.8577,-6.8577,-6.909,-6.986,-6.986,-7.0283,-7.0898,0.0,0.0,0.0,0.0,0.0,0.0,0.0,0.0,0.0,0.0,-8.1813,0.0,0.0,0.0,0.0,0.0,0.0,0.0,0.0,0.0,0.0,0.0,0.0,0.0,0.0,0.0,0.0,0.0,0.0,0.0,0.0,0.0,0.0,0.0,0.0,0.0,0.0,0.0,0.0,0.0,0.0,0.0,0.0,0.0,0.0,0.0,0.0,0.0,0.0,0.0,-7.082,-7.0547,-6.9687,-6.9336,-6.8945,-6.7383,-6.6914,-6.6914,-6.6914,-6.6914,-6.6914,-6.6914,-6.6914,-6.6914,-6.6914,-6.6914,0.0,0.0,-6.6914,-6.6914,-6.6914,-6.6655,-6.6462,-6.6399,0.0,0.0,0.0,0.0,-6.599,0.0,0.0,0.0,-6.591,-6.5897,0.0,0.0,-6.5897,-6.5897,-6.5897,-6.5897,-6.5897,-6.5897,-6.5897,-6.5897,-6.5897,-6.5897,-6.5897,-6.5897,-6.5897,-6.5897,-6.5897,-6.5897,-6.5897,-6.5936,-6.659,-6.6974,-6.7167,-6.7898,-6.8706,-6.9475,-6.9475,-6.9975,-7.0706,-7.0706,-7.0783,-7.0898,0.0,0.0,0.0,0.0,0.0,0.0,0.0,0.0,0.0,0.0,-8.2973,-8.2006,0.0,0.0,0.0,0.0,0.0,0.0,0.0,0.0,0.0,0.0,0.0,0.0,0.0,0.0,0.0,0.0,0.0,0.0,0.0,0.0,0.0,0.0,0.0,0.0,0.0,0.0,0.0,0.0,0.0,0.0,0.0,0.0,0.0,0.0,0.0,0.0,0.0,0.0,-7.039,-6.9883,-6.9023,-6.9062,-6.9101,-6.7383,-6.6914,-6.6914,-6.6914,-6.6914,-6.6914,-6.6914,-6.6914,-6.6914,-6.6914,0.0,0.0,0.0,-6.6914,-6.6914,-6.6914,0.0,0.0,0.0,0.0,0.0,0.0,0.0,0.0,0.0,0.0,0.0,0.0,-6.5897,-6.5897,-6.5897,-6.5897,-6.5897,-6.5897,-6.5897,-6.5897,-6.5897,-6.5897,-6.5897,-6.5897,-6.5897,-6.5897,-6.5897,-6.5897,-6.5897,-6.5897,-6.5897,-6.6128,-6.6551,-6.6936,-6.759,-6.8475,-6.8898,-6.959,-7.0321,-7.0321,-7.0552,-7.0898,-7.0898,-7.0898,-7.0898,0.0,0.0,0.0,0.0,0.0,0.0,0.0,-8.6029,-8.5526,-8.5333,-8.4134,-8.2935,-8.189,-8.162,0.0,0.0,0.0,0.0,0.0,0.0,0.0,0.0,0.0,0.0,0.0,0.0,0.0,0.0,0.0,0.0,0.0,0.0,0.0,0.0,0.0,0.0,0.0,0.0,0.0,0.0,0.0,0.0,0.0,0.0,0.0,0.0,0.0,0.0,0.0,0.0,-6.9844,-6.9023,-6.8398,-6.875,-6.9101,-6.7383,-6.6914,-6.6914,-6.6914,-6.6914,-6.6914,-6.6914,-6.6914,-6.6914,-6.6914,-6.6914,0.0,0.0,-6.6914,-6.6914,-6.6914,0.0,-6.6524,0.0,0.0,0.0,0.0,0.0,0.0,0.0,0.0,0.0,0.0,-6.5897,0.0,-6.5897,-6.5897,-6.5897,-6.5897,-6.5897,-6.5897,-6.5897,-6.5897,-6.5897,-6.5897,-6.5897,-6.5897,-6.5897,-6.5897,-6.5897,-6.5897,-6.609,-6.6513,-6.7128,-6.7475,-6.8436,-6.9706,-6.9898,-7.0321,-7.0898,-7.0898,-7.0898,-7.0898,-7.0898,-7.0898,-7.0898,0.0,0.0,0.0,0.0,0.0,0.0,0.0,-8.6532,-8.6184,-8.541,-8.5178,-8.4443,-8.2857,-8.1968,0.0,0.0,0.0,0.0,0.0,0.0,0.0,0.0,0.0,0.0,0.0,0.0,0.0,0.0,0.0,0.0,0.0,0.0,0.0,0.0,0.0,0.0,0.0,0.0,0.0,0.0,0.0,0.0,0.0,0.0,0.0,0.0,0.0,0.0,0.0,0.0,0.0,-6.8281,-6.8203,-6.8789,-6.914,-6.7422,0.0,0.0,-6.6914,-6.6914,-6.6914,-6.6914,-6.6914,-6.6914,-6.6914,0.0,0.0,-6.6914,-6.6914,-6.6914,-6.6914,-6.6745,-6.6579,0.0,0.0,0.0,0.0,0.0,0.0,0.0,0.0,0.0,0.0,-6.5897,-6.5897,-6.5897,-6.5897,-6.5897,-6.5897,-6.5897,-6.5897,-6.5897,-6.5897,-6.5897,-6.5897,-6.5897,-6.5897,-6.5897,-6.5897,-6.5897,-6.5897,-6.6667,-6.7013,-6.7167,-6.8783,-6.9552,-6.9744,-7.0475,-7.0821,-7.0898,-7.0898,-7.0898,-7.0898,-7.0898,-7.0898,-7.0898,0.0,0.0,0.0,0.0,0.0,0.0,0.0,-8.661,-8.6494,-8.6145,-8.5643,-8.5062,-8.4366,-8.3089,-8.2084,0.0,0.0,0.0,0.0,0.0,0.0,0.0,0.0,0.0,0.0,0.0,0.0,-7.7713,-7.7713,0.0,0.0,0.0,0.0,0.0,0.0,0.0,0.0,0.0,0.0,0.0,0.0,0.0,0.0,0.0,0.0,0.0,0.0,0.0,0.0,0.0,0.0,0.0,-6.8203,-6.8437,0.0,0.0,-6.7305,-6.6914,-6.6914,-6.6914,-6.6914,-6.6914,-6.6914,-6.6914,-6.6914,0.0,0.0,-6.6914,-6.6914,-6.6914,-6.6914,-6.6774,-6.6619,0.0,0.0,0.0,0.0,0.0,0.0,0.0,0.0,0.0,0.0,0.0,-6.5897,-6.5897,-6.5897,-6.5897,-6.5897,-6.5897,-6.5897,-6.5897,-6.5897,-6.5897,-6.5897,-6.5897,-6.5897,-6.5897,-6.5897,-6.6128,-6.6628,-6.6936,-6.7667,-6.8706,-6.9398,-6.9975,-7.0437,-7.0783,-7.0898,-7.0898,-7.0898,-7.0898,-7.0898,-7.0898,-7.0898,-7.0898,0.0,0.0,0.0,0.0,0.0,0.0,-8.661,-8.661,-8.661,-8.661,-8.6068,-8.5604,-8.5333,-8.4018,-8.2819,-8.1968,0.0,0.0,0.0,0.0,0.0,0.0,0.0,0.0,0.0,0.0,-7.6707,-7.7326,-7.7558,-7.8022,0.0,0.0,0.0,0.0,0.0,0.0,0.0,0.0,0.0,0.0,0.0,0.0,0.0,0.0,0.0,0.0,0.0,0.0,0.0,0.0,0.0,0.0,0.0,0.0,0.0,0.0,-6.7578,-6.6914,-6.6914,-6.6914,-6.6914,-6.6914,-6.6914,-6.6914,0.0,0.0,0.0,-6.6914,-6.6914,-6.6914,-6.6914,-6.6785,-6.6697,0.0,0.0,0.0,0.0,0.0,0.0,0.0,0.0,-6.5984,0.0,-6.591,-6.5897,-6.5897,-6.5897,-6.5897,-6.5897,-6.5897,-6.5897,-6.5897,-6.5897,-6.5897,-6.5897,-6.5897,-6.5897,-6.5897,-6.6128,-6.6551,-6.7128,-6.7628,-6.8552,-6.9706,-6.9937,-7.0398,-7.0898,-7.0898,-7.0898,-7.0898,-7.0898,-7.0898,-7.0898,-7.0898,-7.0898,-7.0898,0.0,0.0,0.0,0.0,0.0,0.0,0.0,-8.661,-8.661,-8.661,-8.661,-8.6261,-8.5372,-8.4559,-8.3747,-8.2857,0.0,0.0,0.0,0.0,0.0,0.0,0.0,0.0,0.0,0.0,-7.6397,-7.6397,-7.7287,-7.7713,-7.7713,-7.8602,-7.8525,0.0,0.0,0.0,0.0,0.0,0.0,0.0,0.0,0.0,0.0,0.0,0.0,0.0,0.0,0.0,0.0,0.0,0.0,0.0,0.0,0.0,0.0,0.0,-6.7578,-6.6914,-6.6914,-6.6914,-6.6914,-6.6914,-6.6914,-6.6914,0.0,0.0,0.0,-6.6914,-6.6914,-6.6914,-6.6914,-6.6785,-6.6697,0.0,0.0,0.0,0.0,0.0,0.0,0.0,0.0,-6.6008,-6.5996,-6.5935,-6.5897,-6.5897,-6.5897,0.0,-6.5897,-6.5897,-6.5897,-6.5897,-6.5897,-6.5897,-6.5897,-6.5897,-6.5897,-6.5897,-6.6705,-6.709,-6.7167,-6.8898,-6.9667,-6.9744,-7.0552,-7.0898,-7.0898,-7.0898,-7.0898,-7.0898,-7.0898,-7.0898,-7.0898,-7.0898,-7.0898,-7.0898,0.0,0.0,0.0,0.0,0.0,0.0,0.0,-8.661,-8.661,-8.661,-8.661,-8.6494,-8.6223,-8.5449,-8.4598,-8.3747,0.0,0.0,0.0,0.0,0.0,0.0,0.0,0.0,0.0,0.0,-7.6668,-7.7287,-7.8177,-7.8873,-7.9415,-7.9685,-7.9376,-7.8564,-7.7983,0.0,0.0,0.0,0.0,0.0,0.0,0.0,0.0,0.0,0.0,0.0,0.0,0.0,0.0,0.0,0.0,0.0,0.0,0.0,0.0,-6.793,-6.7578,-6.6914,-6.6914,-6.6914,-6.6914,-6.6914,-6.6914,-6.6914,-6.6914,0.0,0.0,-6.6914,-6.6914,-6.6914,-6.6914,-6.6874,-6.6777,-6.6619,0.0,0.0,0.0,0.0,0.0,0.0,-6.5958,-6.5935,0.0,0.0,-6.5897,-6.5897,-6.5897,-6.5897,-6.5897,-6.5897,-6.5897,-6.5897,-6.5897,-6.5897,-6.5897,-6.5897,-6.6167,-6.6705,-6.6974,-6.7705,-6.8898,-6.9436,-7.0014,-7.0514,-7.0783,-7.0898,-7.0898,-7.0898,-7.0898,-7.0898,-7.0898,-7.0898,-7.0898,-7.0898,-7.0898,-7.0898,0.0,0.0,0.0,0.0,0.0,0.0,0.0,-8.6704,-8.6684,-8.6684,-8.6636,-8.661,-8.661,-8.5836,-8.4985,-8.4173,0.0,0.0,0.0,0.0,0.0,0.0,0.0,0.0,0.0,-7.6397,-7.6823,-7.7713,-7.8564,-7.9415,-8.0227,-8.0536,-8.0111,-7.8989,-7.8409,-7.7519,0.0,0.0,0.0,0.0,0.0,0.0,-7.5943,0.0,0.0,0.0,0.0,0.0,0.0,0.0,0.0,0.0,0.0,0.0,0.0,0.0,-6.7578,-6.6914,0.0,-6.6914,-6.6914,-6.6914,-6.6914,0.0,0.0,0.0,0.0,-6.6914,-6.6914,-6.6914,-6.6914,-6.6914,-6.6828,-6.6624,0.0,0.0,0.0,0.0,0.0,-6.6029,0.0,0.0,0.0,-6.5897,-6.5897,-6.5897,-6.5897,-6.5897,-6.5897,-6.5897,-6.5897,-6.5897,-6.5897,-6.5897,-6.5897,-6.6205,-6.659,-6.709,-6.7782,-6.8667,-6.9706,-7.0014,-7.0437,-7.0898,-7.0898,-7.0898,0.0,-7.0898,-7.0898,-7.0898,-7.0898,-7.0898,-7.0898,-7.0898,-7.0898,-7.0898,0.0,0.0,0.0,0.0,0.0,0.0,0.0,0.0,0.0,0.0,-8.6693,-8.6597,-8.6597,-8.5888,0.0,0.0,0.0,0.0,0.0,0.0,0.0,0.0,0.0,0.0,-7.6397,-7.6436,-7.69,-7.779,-7.8641,-7.9492,-8.0304,-8.1117,-8.0614,-7.8989,-7.8989,-7.8022,-7.6409,-7.6421,-7.5918,-7.5105,-7.5039,-7.51,0.0,0.0,0.0,0.0,0.0,0.0,0.0,0.0,0.0,0.0,0.0,0.0,0.0,0.0,0.0,0.0,0.0,-6.6914,-6.6914,-6.6914,-6.6914,-6.6914,0.0,0.0,0.0,0.0,0.0,-6.6914,-6.6914,-6.6914,-6.6828,-6.6624,0.0,0.0,0.0,-6.6091,0.0,0.0,-6.5996,0.0,-6.591,-6.5897,-6.5897,-6.5897,-6.5897,-6.5897,-6.5897,-6.5897,-6.5897,-6.5897,-6.5974,-6.5974,-6.5974,-6.6744,-6.7167,-6.7282,-6.8936,-6.9744,-6.9821,-7.0552,-7.0898,-7.0898,-7.0898,-7.0898,-7.0898,-7.0898,-7.0898,-7.0898,-7.0898,-7.0898,-7.0898,-7.0898,-7.0898,-7.0898,0.0,0.0,0.0,0.0,0.0,0.0,0.0,0.0,0.0,0.0,0.0,-8.6754,-8.6754,-8.6466,0.0,0.0,0.0,0.0,0.0,0.0,0.0,0.0,0.0,0.0,-7.6397,-7.7055,-7.7829,-7.868,-7.9531,-8.0382,-8.1194,-8.1375,-8.0614,-7.8989,-7.8989,-7.8022,-7.6421,-7.6506,-7.607,-7.5216,-7.4623,-7.4424,0.0,0.0,0.0,0.0,-7.5934,-7.4219,0.0,0.0,0.0,0.0,0.0,0.0,0.0,0.0,-6.707,-6.6914,-6.6914,0.0,-6.6914,-6.6914,-6.6914,-6.6914,0.0,0.0,0.0,0.0,0.0,0.0,0.0,0.0,0.0,0.0,0.0,0.0,-6.6126,0.0,0.0,-6.5935,-6.5923,-6.5923,-6.5897,-6.5897,-6.5897,-6.5897,-6.5897,-6.5897,-6.5897,-6.5897,-6.5897,-6.5897,-6.6513,-6.6821,-6.6821,-6.7013,-6.7782,-6.909,-6.9513,-7.0014,-7.0629,-7.0821,-7.0898,-7.0898,-7.0898,-7.0898,-7.0898,-7.0898,-7.0898,-7.0898,-7.0898,-7.0898,-7.0898,-7.0898,-7.0898,-7.0898,0.0,0.0,0.0,0.0,0.0,0.0,0.0,0.0,0.0,0.0,0.0,0.0,0.0,0.0,0.0,0.0,0.0,0.0,0.0,0.0,0.0,0.0,0.0,-7.6823,-7.6397,-7.7248,-7.8138,-7.8989,-7.9801,-8.0653,-8.1491,-8.1491,-8.0614,-7.895,-7.8177,-7.7318,-7.6485,-7.6128,-7.5555,-7.4739,-7.3924,0.0,0.0,0.0,0.0,0.0,-7.5429,-7.3633,0.0,-7.043,-6.8711,-6.6914,0.0,0.0,0.0,0.0,-6.6914,-6.6914,-6.6914,-6.6914,-6.6914,-6.6914,-6.6914,-6.6914,-6.6914,0.0,0.0,0.0,0.0,0.0,0.0,0.0,0.0,0.0,-6.6585,0.0,0.0,0.0,-6.5947,-6.591,-6.5897,-6.5897,0.0,-6.5897,-6.5897,-6.5897,-6.5897,-6.5897,-6.5897,-6.5897,-6.6051,-6.6436,-6.6859,-6.709,-6.709,-6.7898,-6.8783,-6.9706,-7.0052,-7.0475,-7.0898,-7.0898,-7.0898,-7.0898,-7.0898,-7.0898,-7.0898,-7.0898,-7.0898,-7.0898,-7.0898,-7.0898,-7.0898,-7.0898,-7.0898,-7.0898,0.0,0.0,0.0,0.0,0.0,0.0,0.0,0.0,0.0,0.0,0.0,0.0,0.0,0.0,0.0,0.0,0.0,0.0,0.0,0.0,0.0,0.0,0.0,-7.7365,-7.6591,-7.7442,-7.8332,-7.9183,-7.9995,-8.0769,-8.1491,-8.1491,-8.0626,-7.8971,-7.7224,-7.6458,-7.6371,-7.5657,-7.4852,-7.3987,-7.3417,0.0,0.0,0.0,0.0,0.0,0.0,0.0,0.0,-6.9765,-6.832,-6.6914,-6.6914,0.0,0.0,0.0,0.0,0.0,-6.6914,-6.6914,-6.6914,-6.6914,-6.6914,-6.6914,-6.6914,0.0,0.0,0.0,0.0,0.0,0.0,-6.6914,0.0,0.0,0.0,0.0,-6.6052,-6.5947,-6.5897,-6.5897,-6.5897,0.0,-6.5897,-6.5897,-6.5897,-6.5897,-6.5897,-6.5897,-6.5897,-6.6013,-6.6397,-6.709,-6.7359,-6.7513,-6.7513,-6.8975,-6.9744,-6.9898,-7.0552,-7.0898,-7.0898,-7.0898,-7.0898,-7.0898,-7.0898,-7.0898,-7.0898,-7.0898,-7.0898,-7.0898,-7.0898,-7.0898,-7.0898,-7.0898,-7.0898,-7.0898,0.0,0.0,0.0,0.0,0.0,0.0,0.0,0.0,0.0,0.0,0.0,0.0,0.0,0.0,0.0,0.0,0.0,0.0,0.0,0.0,0.0,0.0,-7.8177,-7.7635,-7.7481,-7.8332,-7.9183,-8.0034,-8.0885,-8.1387,-8.1491,-8.1491,-8.0682,-7.9088,-7.7455,-7.632,-7.5683,-7.5664,-7.473,-7.3338,-7.4048,0.0,0.0,0.0,0.0,0.0,0.0,0.0,0.0,-6.9726,-6.8281,-6.6914,-6.6914,0.0,0.0,0.0,0.0,0.0,-6.6914,-6.6914,-6.6914,-6.6914,-6.6914,-6.6914,-6.6914,0.0,0.0,0.0,0.0,0.0,0.0,-6.6914,-6.6833,0.0,0.0,-6.6185,0.0,0.0,-6.5897,-6.5897,0.0,-6.5897,-6.5897,-6.5897,-6.5897,-6.5897,-6.5897,-6.5897,-6.5897,-6.6551,-6.6974,-6.709,-6.8513,-6.9283,-6.9283,-6.9552,-7.0052,-7.0706,-7.0821,-7.0898,-7.0898,-7.0898,-7.0898,-7.0898,-7.0898,-7.0898,-7.0898,-7.0898,-7.0898,-7.0898,-7.0898,-7.0898,-7.0898,-7.0898,-7.0898,-7.0898,0.0,0.0,0.0,0.0,0.0,0.0,0.0,0.0,0.0,0.0,0.0,0.0,0.0,0.0,0.0,0.0,0.0,0.0,0.0,0.0,0.0,-7.9067,-7.9028,-7.8641,-7.7713,-7.8564,-7.9376,-8.0188,-8.1078,-8.1538,-8.1586,-8.0776,-7.974,-7.8535,-7.6852,-7.5936,-7.5564,-7.4666,-7.415,-7.3897,0.0,0.0,0.0,0.0,0.0,0.0,0.0,0.0,0.0,0.0,-6.793,-6.6914,-6.6914,0.0,0.0,0.0,0.0,0.0,-6.6914,-6.6914,-6.6914,-6.6914,-6.6914,-6.6914,0.0,0.0,0.0,0.0,0.0,0.0,0.0,0.0,-6.6818,-6.6594,0.0,-6.6138,-6.5958,-6.5923,-6.5897,0.0,0.0,-6.5897,-6.5897,-6.5897,-6.5897,-6.5897,-6.5897,-6.609,-6.6513,-6.6898,-6.7513,-6.8475,-6.9283,-6.9898,-7.036,-7.036,-7.0514,-7.0898,-7.0898,-7.0898,-7.0898,-7.0898,-7.0898,-7.0898,-7.0898,-7.0898,-7.0898,-7.0898,-7.0898,-7.0898,-7.0898,-7.0898,-7.0898,-7.0898,-7.0898,-7.0975,0.0,0.0,0.0,0.0,0.0,0.0,0.0,0.0,0.0,0.0,0.0,0.0,0.0,0.0,0.0,0.0,0.0,0.0,0.0,0.0,-8.0791,-7.9067,-7.9608,-7.9337,-7.8022,-7.8834,-7.971,-8.0543,-8.1201,-8.1519,-8.142,-8.0059,-7.8871,-7.7779,-7.6283,-7.5432,-7.505,-7.3915,-7.3778,-7.4258,0.0,0.0,0.0,0.0,0.0,0.0,0.0,0.0,0.0,0.0,0.0,0.0,0.0,0.0,0.0,-6.6914,-6.6914,-6.6914,-6.6914,-6.6914,-6.6914,-6.6914,0.0,0.0,0.0,0.0,0.0,0.0,0.0,0.0,0.0,-6.6911,0.0,-6.6438,-6.6314,-6.6158,-6.5921,-6.5897,-6.5897,-6.5897,-6.5897,-6.5897,-6.5897,-6.5897,-6.5897,-6.5897,-6.6051,-6.6436,-6.7051,-6.7475,-6.8321,-6.9667,-6.9898,-7.0283,-7.0898,-7.0898,-7.0898,-7.0898,-7.0898,-7.0898,-7.0898,-7.0898,-7.0898,-7.0898,-7.0898,-7.0898,-7.0898,-7.0898,-7.0898,-7.0898,-7.0898,-7.0898,-7.0937,-7.1129,-7.1206,-7.1321,0.0,0.0,0.0,0.0,0.0,0.0,0.0,0.0,0.0,0.0,0.0,0.0,0.0,0.0,0.0,0.0,0.0,0.0,0.0,0.0,-8.0891,-7.9079,-7.9067,-7.9028,-7.8912,-7.9685,-8.0616,-8.1602,-8.164,-8.1342,-8.0643,-7.986,-7.8611,-7.705,-7.6241,-7.4999,-7.3515,-7.4218,-7.4062,-7.3515,-7.5078,0.0,0.0,0.0,0.0,0.0,0.0,0.0,0.0,0.0,0.0,0.0,0.0,0.0,-6.6914,-6.6914,-6.6914,-6.6914,-6.6914,-6.6914,-6.6914,-6.6914,-6.6914,0.0,-6.6914,-6.6914,0.0,-6.6914,0.0,0.0,0.0,-6.6913,-6.6774,-6.6429,-6.6386,-6.6265,-6.5946,0.0,-6.5897,-6.5897,-6.5897,-6.5897,-6.5897,-6.5897,-6.5897,-6.5897,-6.659,-6.7051,-6.709,-6.8629,-6.959,-6.9706,-7.0437,-7.0821,-7.0898,-7.0898,-7.0898,-7.0898,-7.0898,-7.0898,-7.0898,-7.0898,-7.0898,-7.0898,-7.0898,-7.0898,-7.0898,-7.0898,-7.0898,-7.0898,-7.0898,-7.0898,-7.1014,-7.1822,-7.2091,-7.2206,0.0,0.0,0.0,0.0,0.0,0.0,0.0,0.0,0.0,0.0,0.0,0.0,0.0,0.0,0.0,0.0,0.0,0.0,0.0,0.0,-8.1065,-7.932,-7.9748,-7.9506,-7.8457,-7.91,-8.0202,-8.1698,-8.187,-8.1231,-7.9903,-7.9701,-7.8429,-7.6281,-7.5468,-7.4726,-7.4101,-7.3867,-7.4219,-7.4922,-7.5039,-7.5234,0.0,0.0,0.0,0.0,0.0,0.0,0.0,0.0,-6.7187,-6.6914,0.0,0.0,0.0,-6.6914,-6.6914,-6.6914,-6.6914,-6.6914,-6.6914,-6.6914,-6.6914,0.0,0.0,-6.6914,-6.6914,-6.6914,-6.6914,0.0,0.0,0.0,-6.6753,-6.6438,-6.6358,-6.6248,-6.5946,-6.5897,-6.5897,-6.5897,-6.5897,-6.5897,-6.5897,-6.5897,-6.5897,-6.5897,-6.6628,-6.7321,-6.7898,-6.9052,-6.9937,-7.0437,-7.0744,-7.0898,-7.0898,-7.0898,-7.0898,-7.0898,-7.0898,-7.0898,-7.0898,-7.0898,-7.0898,-7.0898,-7.0898,-7.0898,-7.0898,-7.0898,-7.0898,-7.0898,-7.0898,-7.1245,-7.1745,-7.2091,-7.2552,-7.3129,0.0,0.0,0.0,0.0,0.0,0.0,0.0,0.0,0.0,0.0,0.0,0.0,0.0,0.0,0.0,0.0,0.0,0.0,0.0,-8.1967,-8.121,-7.946,-7.9922,-7.9571,-7.8129,-7.85,-7.9582,-8.1438,-8.1914,-8.1265,-7.9545,-7.9412,-7.7969,-7.5469,-7.4883,-7.4453,-7.418,-7.3867,-7.4414,-7.543,-7.4844,-7.4805,0.0,0.0,0.0,0.0,0.0,0.0,0.0,0.0,-6.6914,0.0,0.0,0.0,0.0,0.0,-6.6914,-6.6914,-6.6914,-6.6914,-6.6914,-6.6914,0.0,0.0,-6.6914,-6.6914,-6.6914,-6.6914,-6.6914,0.0,0.0,0.0,0.0,0.0,-6.6337,-6.623,-6.5933,-6.5897,-6.5897,-6.5897,-6.5897,-6.5897,-6.5897,-6.5897,-6.6013,-6.6244,-6.7051,-6.7898,-6.8783,-6.9629,-7.0321,-7.0898,-7.0898,-7.0898,-7.0898,-7.0898,-7.0898,-7.0898,-7.0898,-7.0898,-7.0898,-7.0898,-7.0898,-7.0898,-7.0898,-7.0898,-7.0898,-7.0898,-7.0898,-7.0937,-7.1206,-7.1668,-7.2245,-7.2783,-7.336,-7.4014,0.0,0.0,0.0,0.0,0.0,0.0,0.0,0.0,0.0,0.0,0.0,0.0,0.0,0.0,0.0,0.0,0.0,0.0,-8.2179,-8.2098,-8.1286,-7.9466,-7.9382,-7.8993,-7.809,-7.809,-7.9008,-8.0807,-8.1791,-8.1406,-7.9687,-7.8867,-7.7109,-7.4609,-7.4609,-7.4101,-7.3359,-7.4219,-7.4609,-7.4609,-7.4609,-7.4062,-7.3203,0.0,0.0,0.0,0.0,0.0,0.0,0.0,-6.6914,-6.6914,0.0,0.0,0.0,0.0,-6.6914,-6.6914,-6.6914,-6.6914,-6.6914,0.0,0.0,0.0,-6.6914,-6.6914,-6.6914,-6.6914,0.0,-6.6913,-6.6906,-6.6902,0.0,-6.6465,-6.6337,-6.623,-6.5933,-6.5897,-6.5897,-6.5897,-6.5897,-6.5897,-6.5897,-6.5897,-6.6244,-6.7051,-6.7936,-6.8783,-6.9667,-7.0475,-7.0898,-7.0898,-7.0898,-7.0898,-7.0898,-7.0898,-7.0898,-7.0898,-7.0898,-7.0898,-7.0898,-7.0898,-7.0898,-7.0898,-7.0898,-7.0898,-7.0898,-7.0898,-7.0898,-7.0975,-7.186,-7.2206,-7.2399,-7.4091,-7.4707,-7.4861,0.0,0.0,0.0,0.0,0.0,0.0,0.0,0.0,0.0,0.0,0.0,0.0,0.0,0.0,0.0,0.0,0.0,0.0,-8.2301,-8.1675,-8.0813,-7.967,-7.9084,-7.8342,-7.7483,-7.8616,-7.9738,-8.0807,-8.1791,-8.1133,-7.8867,-7.8594,-7.6797,-7.3711,-7.4336,-7.4453,-7.4219,-7.4492,-7.4961,-7.539,-7.418,-7.3164,-7.2305,0.0,0.0,0.0,0.0,0.0,0.0,0.0,0.0,0.0,0.0,0.0,0.0,0.0,-6.6914,-6.6914,-6.6914,-6.6914,0.0,-6.6914,0.0,0.0,0.0,0.0,0.0,0.0,-6.6869,-6.6824,-6.6902,-6.6856,0.0,-6.6458,-6.6337,-6.623,-6.5933,-6.5897,-6.5897,-6.5897,-6.5897,-6.5897,-6.5897,-6.6397,-6.6821,-6.709,-6.8475,-6.9436,-6.9706,-7.0475,-7.0898,-7.0898,-7.0898,-7.0898,-7.0898,-7.0898,-7.0898,-7.0898,-7.0898,-7.0898,-7.0898,-7.0898,-7.0898,-7.0898,-7.0898,-7.0898,-7.0898,-7.0898,-7.0898,-7.0975,-7.186,-7.2552,-7.3245,-7.4322,-7.5091,-7.5668,0.0,0.0,0.0,0.0,0.0,0.0,0.0,0.0,0.0,0.0,-8.75,-8.7383,0.0,0.0,0.0,0.0,0.0,0.0,0.0,0.0,-8.0625,-7.9726,-7.8945,-7.8086,-7.7226,-7.8828,-7.9919,-8.0371,-8.1678,-8.1015,-7.8476,-7.8164,-7.6484,-7.3828,-7.4375,-7.4609,-7.4609,-7.4609,-7.4687,-7.4726,-7.2969,-7.1953,-7.1367,0.0,0.0,0.0,0.0,0.0,0.0,0.0,0.0,0.0,0.0,0.0,0.0,-6.6914,-6.6914,-6.6914,-6.6914,-6.6914,0.0,-6.6914,-6.6914,-6.6914,-6.6914,0.0,0.0,0.0,0.0,-6.6856,-6.6856,-6.6848,0.0,-6.6393,-6.6329,-6.623,-6.5933,-6.5897,-6.5897,-6.5897,-6.5897,-6.5897,-6.5897,-6.6628,-6.7244,-6.759,-6.8898,-6.986,-7.0167,-7.0629,-7.0898,-7.0898,-7.0898,-7.0898,-7.0898,-7.0898,-7.0898,-7.0898,-7.0898,-7.0898,-7.0898,-7.0898,-7.0898,-7.0898,-7.0898,-7.0898,-7.0898,-7.0898,-7.1091,-7.1514,-7.2399,-7.3245,-7.4091,-7.4899,-7.5553,-7.6015,0.0,0.0,-8.75,-8.75,0.0,0.0,0.0,0.0,0.0,0.0,-8.7422,-8.707,0.0,0.0,0.0,0.0,0.0,0.0,0.0,0.0,-8.0547,-7.9726,-7.8867,-7.8008,-7.7226,-7.8828,-7.9687,-7.9687,-8.1289,-8.0781,-7.8359,-7.75,-7.6133,-7.4492,-7.457,-7.4609,-7.4609,-7.4531,-7.3984,-7.3047,-7.1367,-7.0625,-7.0312,-6.8789,0.0,0.0,0.0,0.0,0.0,0.0,0.0,0.0,0.0,0.0,0.0,-6.6914,-6.6914,-6.6914,-6.6914,0.0,0.0,-6.6914,-6.6914,0.0,-6.6872,-6.6871,-6.6868,-6.6815,0.0,-6.6857,-6.68,-6.6805,-6.6691,-6.6366,-6.6314,-6.623,-6.5933,-6.5897,-6.5897,-6.5897,-6.5897,-6.5936,-6.6013,-6.6744,-6.759,-6.8436,-6.9321,-7.0129,-7.086,-7.0898,-7.0898,-7.0898,-7.0898,-7.0898,-7.0898,-7.0898,-7.0898,-7.0898,-7.0898,-7.0898,-7.0898,-7.0898,-7.0898,-7.0898,-7.0898,-7.0898,-7.0898,-7.0975,-7.1475,-7.2283,-7.3245,-7.4053,-7.4822,-7.5668,-7.6015,-7.6015,0.0,0.0,-8.75,-8.75,0.0,0.0,0.0,0.0,0.0,0.0,0.0,0.0,0.0,-8.4804,0.0,0.0,0.0,0.0,0.0,0.0,-7.9883,-7.9726,-7.8281,-7.7383,-7.7187,-7.8828,-7.9687,-7.9687,-8.0078,-7.9297,-7.7461,-7.6601,-7.5234,-7.3594,-7.4297,-7.4609,-7.457,-7.3867,-7.3086,-7.2187,-7.1133,-6.9922,-6.8711,-6.8359,-6.7773,0.0,0.0,0.0,0.0,0.0,0.0,0.0,-6.6914,-6.6914,-6.6914,-6.6914,-6.6914,-6.6914,0.0,-6.6914,0.0,0.0,-6.6914,-6.6872,-6.6821,-6.6818,-6.6817,-6.6813,-6.6807,-6.6802,-6.6798,-6.6798,-6.6677,-6.6366,-6.6314,-6.623,-6.5933,-6.5897,-6.5897,-6.5897,-6.5897,-6.6128,-6.6782,-6.7628,-6.8475,-6.936,-7.0167,-7.0706,-7.0898,-7.0898,-7.0898,-7.0898,-7.0898,-7.0898,-7.0898,-7.0898,-7.0898,-7.0898,-7.0898,-7.0898,-7.0898,-7.0898,-7.0898,-7.0898,-7.0898,-7.0898,-7.0937,-7.1629,-7.2014,-7.236,-7.386,-7.4553,-7.4822,-7.5668,-7.6015,-7.6015,0.0,0.0,0.0,0.0,0.0,0.0,0.0,0.0,0.0,0.0,0.0,0.0,0.0,-8.414,0.0,0.0,-8.2578,0.0,0.0,0.0,0.0,0.0,-7.7656,-7.7383,-7.7812,-7.9062,-7.9687,-7.9687,-7.8906,-7.8047,-7.7187,-7.6328,-7.5195,-7.3945,-7.4414,-7.4609,-7.4531,-7.3672,-7.2578,-7.1289,-7.0469,-6.9336,-6.8164,-6.7734,-6.7305,-6.6914,-6.6914,0.0,0.0,0.0,0.0,0.0,0.0,0.0,-6.6914,-6.6914,-6.6914,-6.6914,0.0,0.0,0.0,-6.6914,0.0,-6.6867,-6.6815,-6.6809,-6.6805,-6.6805,-6.68,-6.6795,-6.6795,-6.6795,-6.6674,-6.6366,-6.6314,-6.623,-6.5933,-6.5897,-6.5897,-6.5897,-6.5897,-6.6205,-6.7013,-6.7898,-6.8783,-6.9629,-7.0437,-7.0898,-7.0898,-7.0898,-7.0898,-7.0898,-7.0898,-7.0898,-7.0898,-7.0898,-7.0898,-7.0898,-7.0898,-7.0898,-7.0898,-7.0898,-7.0898,-7.0898,-7.0898,-7.0898,-7.0975,-7.1822,-7.2437,-7.2937,-7.4207,-7.4938,-7.5399,-7.5822,-7.6015,-7.6015,0.0,0.0,0.0,0.0,0.0,0.0,0.0,0.0,0.0,0.0,0.0,0.0,0.0,0.0,-8.3086,0.0,0.0,0.0,0.0,0.0,0.0,0.0,-7.7422,0.0,-7.8672,-7.9492,-7.9844,-7.9687,-7.8008,-7.7187,-7.7187,-7.6133,-7.5273,-7.4609,0.0,-7.4531,-7.4297,-7.3281,-7.1914,-7.039,-6.9609,-6.875,-6.789,-6.7187,-6.6914,-6.6914,-6.6914,-6.6914,-6.6914,-6.6914,0.0,0.0,0.0,0.0,-6.6914,-6.6914,-6.6914,-6.6914,0.0,0.0,0.0,0.0,0.0,0.0,0.0,-6.6802,-6.6795,-6.6795,-6.6795,-6.6795,-6.6795,-6.6795,-6.6674,-6.6366,-6.6314,-6.623,-6.5933,-6.5897,-6.5897,-6.5897,-6.6013,-6.6436,-6.7244,-6.8129,-6.8975,-6.986,-7.0514,-7.0898,-7.0898,-7.0898,-7.0898,-7.0898,-7.0898,-7.0898,-7.0898,-7.0898,-7.0898,-7.0898,-7.0898,-7.0898,-7.0898,-7.0898,-7.0898,-7.0898,-7.0898,-7.0975,-7.1206,-7.2052,-7.2937,-7.3783,-7.463,-7.5361,-7.6015,-7.6015,-7.6015,-7.6015,0.0,0.0,0.0,0.0,0.0,0.0,0.0,0.0,0.0,0.0,-8.4883,-8.3867,0.0,0.0,0.0,-8.2304,-8.2304,0.0,0.0,0.0,0.0,0.0,-7.832,-7.8711,-7.9531,-8.039,-8.0469,-7.9687,0.0,0.0,-7.7148,-7.5547,-7.4726,-7.4609,0.0,-7.418,-7.3359,-7.1758,-7.0469,-6.9492,-6.8711,-6.7851,-6.707,-6.6953,-6.6914,-6.6914,-6.6914,-6.6914,-6.6914,-6.6914,-6.6914,0.0,0.0,0.0,-6.6914,-6.6914,-6.6914,-6.6914,0.0,0.0,0.0,0.0,0.0,0.0,0.0,0.0,-6.6795,0.0,-6.6795,-6.6795,-6.6795,-6.6795,-6.6674,-6.6366,-6.6314,-6.623,-6.5933,-6.5897,-6.5897,-6.5897,-6.6513,-6.7282,-6.8129,-6.9013,-6.986,-7.0667,-7.0821,-7.0898,-7.0898,-7.0898,-7.0898,-7.0898,-7.0898,-7.0898,-7.0898,-7.0898,-7.0898,-7.0898,-7.0898,-7.0898,-7.0898,-7.0898,-7.0898,-7.0898,-7.0898,-7.1321,-7.2091,-7.2976,-7.3822,-7.463,-7.5476,-7.5899,-7.6015,-7.6015,-7.6015,-7.6015,0.0,0.0,0.0,0.0,0.0,0.0,0.0,0.0,0.0,0.0,0.0,-8.3398,0.0,0.0,0.0,-8.2304,0.0,0.0,0.0,0.0,0.0,0.0,0.0,0.0,-8.039,-8.0312,-8.0078,0.0,0.0,0.0,0.0,-7.5937,-7.5078,0.0,0.0,0.0,0.0,-7.1445,-7.0195,-6.9336,-6.8515,-6.7695,-6.6914,-6.6914,-6.6914,-6.6914,-6.6914,-6.6914,-6.6914,-6.6914,-6.6914,-6.6914,-6.6914,0.0,0.0,0.0,-6.6914,0.0,0.0,0.0,0.0,0.0,0.0,0.0,0.0,0.0,-6.6795,-6.6795,-6.6795,-6.6795,-6.6795,-6.6795,-6.6674,-6.6366,-6.6314,-6.623,-6.5933,-6.5897,-6.6051,-6.6513,-6.6859,-6.7628,-6.9013,-6.9475,-7.0014,-7.0821,-7.0898,-7.0898,-7.0898,-7.0898,-7.0898,-7.0898,-7.0898,-7.0898,-7.0898,-7.0898,-7.0898,-7.0898,-7.0898,-7.0898,-7.0898,-7.0898,-7.0898,-7.0937,-7.1398,-7.186,-7.2283,-7.363,-7.4399,-7.4784,-7.5668,-7.6015,-7.6015,-7.6015,-7.6015,-7.6015,0.0,0.0,0.0,0.0,0.0,0.0,0.0,0.0,0.0,0.0,0.0,0.0,0.0,0.0,0.0,0.0,-8.1367,0.0,0.0,0.0,0.0,0.0,0.0,0.0,-8.1328,-8.0469,0.0,0.0,0.0,0.0,-7.7187,-7.6094,-7.5234,0.0,-7.4609,-7.3984,0.0,0.0,-7.0039,-6.9336,-6.8281,-6.7461,-6.6914,-6.6914,-6.6914,0.0,0.0,-6.6914,-6.6914,-6.6914,-6.6914,-6.6914,-6.6914,-6.6914,0.0,0.0,0.0,0.0,0.0,0.0,0.0,0.0,0.0,0.0,0.0,0.0,-6.6795,0.0,-6.6795,-6.6795,-6.6795,-6.6795,-6.6674,-6.6366,-6.6314,-6.623,-6.5933,-6.609,-6.6436,-6.7013,-6.7475,-6.8282,-6.959,-6.9898,-7.0244,-7.086,-7.0898,-7.0898,-7.0898,-7.0898,-7.0898,-7.0898,-7.0898,-7.0898,-7.0898,-7.0898,-7.0898,-7.0898,-7.0898,-7.0898,-7.0898,-7.0898,-7.1014,-7.1283,-7.1898,-7.2322,-7.2629,-7.4091,-7.4822,-7.5091,-7.5745,-7.6015,-7.6015,-7.6015,-7.6015,-7.6015,0.0,0.0,0.0,0.0,0.0,0.0,0.0,0.0,0.0,0.0,0.0,0.0,-8.2304,-8.2304,-8.1953,-8.1133,-8.1015,-8.0625,-7.9765,-7.9648,0.0,0.0,0.0,0.0,0.0,0.0,0.0,0.0,0.0,0.0,-7.7148,-7.5469,-7.4648,-7.4609,-7.4609,-7.3672,-7.1953,0.0,0.0,-6.9336,-6.7656,-6.6953,-6.6914,-6.6914,-6.6914,-6.6914,-6.6914,-6.6914,-6.6914,-6.6914,-6.6914,-6.6914,-6.6914,-6.6914,0.0,0.0,0.0,0.0,0.0,0.0,0.0,0.0,0.0,0.0,0.0,0.0,0.0,-6.6795,-6.6795,-6.6795,-6.6795,-6.6795,-6.6674,-6.6366,-6.6314,-6.623,-6.5933,-6.6551,-6.7051,-6.709,-6.8552,-6.959,-6.9706,-7.0398,-7.086,-7.0898,-7.0898,-7.0898,-7.0898,-7.0898,-7.0898,-7.0898,-7.0898,-7.0898,-7.0898,-7.0898,-7.0898,-7.0898,-7.0898,-7.0898,-7.0898,-7.0898,-7.136,-7.2129,-7.2168,-7.2668,-7.3514,-7.4361,-7.5207,-7.5938,-7.5976,-7.6015,-7.6015,-7.6015,-7.6015,-7.6015,0.0,0.0,0.0,0.0,0.0,0.0,0.0,0.0,0.0,0.0,0.0,0.0,0.0,-8.2304,-8.2187,-8.1875,-8.1328,-8.0859,-8.0547,-8.0547,0.0,0.0,0.0,0.0,0.0,0.0,0.0,0.0,0.0,-7.7187,-7.7187,-7.5976,-7.5156,-7.457,-7.4023,-7.3125,-7.1875,-7.0195,0.0,-6.9297,-6.7578,-6.6914,-6.6914,0.0,-6.6914,-6.6914,-6.6914,-6.6914,-6.6914,-6.6914,-6.6914,-6.6914,0.0,0.0,0.0,0.0,0.0,0.0,0.0,0.0,0.0,0.0,0.0,0.0,0.0,0.0,-6.6795,-6.6795,-6.6795,-6.6795,-6.6795,-6.6795,-6.6674,-6.6366,-6.6314,-6.6385,-6.6627,-6.6898,-6.7513,-6.8629,-6.9321,-6.9898,-7.0437,-7.0744,-7.0898,-7.0898,-7.0898,-7.0898,-7.0898,-7.0898,-7.0898,-7.0898,-7.0898,-7.0898,-7.0898,-7.0898,-7.0898,-7.0898,-7.0898,-7.0898,-7.0937,-7.1475,-7.1898,-7.2245,-7.3322,-7.3976,-7.4361,-7.5168,-7.5707,-7.6015,-7.6015,-7.6015,-7.6015,-7.6015,-7.6015,-7.6015,0.0,0.0,0.0,0.0,0.0,-8.3164,0.0,0.0,0.0,0.0,0.0,0.0,0.0,0.0,-8.2187,-8.1875,-8.1328,-8.0898,-8.0586,-8.0859,-8.1133,-8.1406,0.0,0.0,0.0,0.0,0.0,0.0,0.0,0.0,0.0,-7.5859,-7.5,-7.414,-7.3242,-7.2539,0.0,0.0,0.0,-6.9258,-6.7578,-6.6914,-6.6914,0.0,-6.6914,-6.6914,-6.6914,-6.6914,-6.6914,-6.6914,-6.6914,0.0,0.0,0.0,0.0,0.0,0.0,0.0,0.0,0.0,0.0,0.0,0.0,0.0,0.0,0.0,0.0,-6.6798,-6.6795,-6.6873,-6.7185,-6.7224,-6.7142,-6.6786,-6.6734,-6.6919,-6.7474,-6.7782,-6.8398,-6.9552,-6.9937,-7.0321,-7.086,-7.0898,-7.0898,-7.0898,-7.0898,0.0,-7.0898,-7.0898,-7.0898,-7.0898,-7.0898,-7.0898,-7.0898,-7.0898,-7.0898,-7.0898,-7.0898,-7.1052,-7.136,-7.1937,-7.2514,-7.3091,-7.4207,-7.4707,-7.4784,-7.563,-7.6015,-7.6015,-7.6015,-7.6015,-7.6015,-7.6015,-7.6015,-7.6015,0.0,-8.414,-8.3554,-8.3554,-8.2851,-8.2304,-8.2304,-8.2304,-8.2304,-8.2304,0.0,0.0,0.0,0.0,0.0,-8.1094,-8.1015,-8.0625,-7.9765,-8.0508,-8.0586,-7.9726,0.0,0.0,0.0,0.0,0.0,0.0,0.0,0.0,0.0,0.0,-7.4101,-7.3242,-7.2383,-7.1992,-7.1875,0.0,-6.9414,-6.9258,0.0,-6.6914,-6.6914,0.0,-6.6914,-6.6914,-6.6914,-6.6914,-6.6914,-6.6914,-6.6914,0.0,0.0,0.0,0.0,0.0,0.0,0.0,0.0,0.0,0.0,0.0,0.0,0.0,-6.6895,0.0,-6.6887,-6.6878,-6.6876,-6.7146,-6.7966,-6.8122,-6.8035,-6.7719,-6.7666,-6.785,-6.8347,-6.9167,-6.9706,-6.9744,-7.0437,-7.0898,-7.0898,-7.0898,-7.0898,-7.0898,-7.0898,-7.0898,-7.0898,-7.0898,-7.0898,-7.0898,-7.0898,-7.0898,-7.0898,-7.0898,-7.0898,-7.0898,-7.0937,-7.136,-7.2206,-7.2245,-7.3168,-7.4707,-7.4745,-7.4745,-7.4822,-7.5668,-7.6015,-7.6015,-7.6015,-7.6015,-7.6015,-7.6015,-7.6015,-7.6015,-8.3008,-8.2812,-8.2656,-8.2656,-8.2461,-8.2304,-8.2304,-8.2304,-8.2304,0.0,0.0,0.0,-8.2304,-8.2304,-8.1953,-8.1094,-8.1015,-8.0625,-7.9765,-7.9922,-7.9961,-7.9726,0.0,0.0,0.0,0.0,0.0,0.0,0.0,0.0,0.0,0.0,0.0,0.0,-7.2383,-7.1992,-7.1875,-7.0156,0.0,-6.9258,-6.7578,-6.6914,0.0,0.0,0.0,-6.6914,-6.6914,-6.6914,-6.6914,-6.6914,-6.6914,-6.6914,0.0,0.0,0.0,0.0,0.0,0.0,-6.9062,0.0,0.0,0.0,0.0,0.0,-6.8666,-6.8663,-6.8694,-6.8685,-6.8683,-6.8759,-6.8984,-6.902,-6.9131,-6.943,-6.8948,-6.8751,-6.9246,-6.9552,-6.9937,-7.0514,-7.0744,-7.0898,-7.0898,-7.0898,-7.0898,0.0,-7.0898,-7.0898,-7.0898,-7.0898,-7.0898,-7.0898,-7.0898,-7.0898,-7.0898,-7.0898,-7.0898,-7.0898,-7.1552,-7.1975,-7.2245,-7.3476,-7.4245,-7.4745,-7.5361,-7.563,-7.5668,-7.5899,-7.6015,-7.6015,-7.6015,-7.6015,-7.6015,-7.6015,-7.6015,-7.6015,-8.2304,-8.2304,-8.2304,-8.2304,-8.2304,-8.2304,0.0,0.0,-8.2304,0.0,0.0,0.0,-8.1797,-8.1758,-8.1406,-8.0547,-8.0469,-8.0117,-7.9258,-7.9219,-7.9023,-7.8672,0.0,0.0,0.0,0.0,0.0,0.0,0.0,0.0,0.0,0.0,0.0,0.0,-7.2226,-7.1992,0.0,0.0,0.0,0.0,-6.7578,0.0,0.0,-6.6914,-6.6914,0.0,0.0,0.0,-6.6914,-6.6914,-6.6914,0.0,0.0,0.0,0.0,0.0,0.0,0.0,0.0,0.0,0.0,0.0,0.0,0.0,-6.941,-6.9406,-6.9401,0.0,-6.9384,-6.9499,-6.9882,-6.9855,-7.0021,-7.0627,-7.0248,-6.9933,-7.0157,-7.0206,-7.036,-7.0821,-7.0898,-7.0898,-7.0898,-7.0898,-7.0898,-7.0898,-7.0898,-7.0898,-7.0898,-7.0898,-7.0898,-7.0898,-7.0898,-7.0898,-7.0898,-7.0898,-7.0898,-7.0898,-7.1783,-7.2399,-7.2783,-7.4091,-7.4899,-7.5284,-7.5784,-7.6015,-7.6015,-7.6015,-7.6015,-7.6015,-7.6015,-7.6015,-7.6015,-7.6015,-7.6015,-7.6015,0.0,-8.2304,-8.2304,-8.2304,-8.2304,-8.2304,0.0,0.0,0.0,0.0,-8.2226,-8.1836,-8.0937,-8.0859,-8.0508,-7.9648,-7.957,-7.9219,-7.8398,-7.8359,0.0,0.0,0.0,0.0,0.0,0.0,0.0,0.0,0.0,0.0,0.0,0.0,0.0,0.0,-7.1992,-7.1992,-7.1875,0.0,0.0,-6.9336,-6.7617,-6.6914,0.0,0.0,-6.6914,-6.6914,-6.6914,-6.6914,-6.6914,-6.6914,-6.6914,0.0,0.0,0.0,0.0,0.0,-7.0078,0.0,0.0,0.0,0.0,0.0,-6.9726,0.0,-6.9681,-6.9679,-6.9675,-6.9696,-6.9692,-6.9926,-7.0704,-7.0692,-7.0793,-7.1435,-7.1367,-7.117,-7.0939,-7.0898,-7.0898,-7.0898,-7.0898,-7.0898,-7.0898,-7.0898,-7.0898,-7.0898,-7.0898,-7.0898,-7.0898,-7.0898,-7.0898,-7.0898,-7.0898,-7.0898,-7.0898,-7.0898,-7.0937,-7.1052,-7.1937,-7.2783,-7.3654,-7.4476,-7.5284,-7.6015,-7.6015,-7.6015,-7.6015,-7.6015,-7.6015,-7.6015,-7.6015,-7.6015,-7.6015,-7.6015,-7.6015,-7.6015,-8.2304,-8.2304,-8.2304,-8.2304,-8.2304,0.0,0.0,0.0,0.0,0.0,-8.1679,-8.0937,-8.0039,-7.9961,-7.9609,-7.8828,-7.8711,-7.8359,-7.75,-7.7461,0.0,0.0,0.0,0.0,0.0,0.0,0.0,0.0,0.0,0.0,0.0,0.0,0.0,0.0,-7.1992,-7.1992,0.0,0.0,0.0,-6.9336,-6.7617,0.0,-6.6914,-6.6914,-6.6914,-6.6914,-6.6914,-6.6914,-6.6914,-6.6914,-6.6914,-6.6914,0.0,0.0,0.0,-6.9258,0.0,0.0,0.0,0.0,0.0,0.0,-7.1484,0.0,-7.1484,-7.1484,-7.1483,0.0,-7.1478,-7.1554,-7.1703,-7.1696,-7.1672,-7.1672,-7.153,-7.131,-7.094,-7.0898,-7.0898,-7.0898,-7.0898,-7.0898,-7.0898,-7.0898,-7.0898,-7.0898,-7.0898,-7.0898,-7.0898,-7.0898,-7.0898,-7.0898,-7.0898,-7.0898,-7.0898,-7.0898,-7.1245,-7.1937,-7.2822,-7.3668,-7.4514,-7.5361,-7.5822,-7.6015,-7.6015,-7.6015,-7.6015,-7.6015,-7.6015,-7.6015,-7.6015,-7.6015,-7.6015,-7.6015,-7.6015,-7.6015,-8.2304,-8.2304,-8.2304,-8.2304,0.0,0.0,0.0,0.0,0.0,0.0,0.0,0.0,-7.918,0.0,0.0,0.0,0.0,0.0,0.0,0.0,0.0,0.0,0.0,0.0,0.0,0.0,0.0,0.0,0.0,0.0,0.0,0.0,0.0,0.0,0.0,0.0,0.0,0.0,-6.9492,-6.9336,-6.7617,0.0,-6.6914,-6.6914,-6.6914,-6.6914,-6.6914,-6.6914,-6.6914,-6.6914,-6.6914,0.0,-6.6914,-6.75,-6.8359,0.0,-7.0078,-7.0898,0.0,0.0,0.0,-7.1992,-7.1992,0.0,0.0,-7.1991,-7.1991,-7.1987,-7.1986,-7.1985,-7.1981,0.0,-7.181,-7.1677,-7.1474,-7.1261,-7.0979,-7.0925,-7.0898,-7.0898,-7.0898,-7.0898,-7.0898,-7.0898,-7.0898,-7.0898,-7.0898,-7.0898,-7.0898,-7.0898,-7.0898,-7.0898,-7.0898,-7.0898,-7.0898,-7.1321,-7.1783,-7.2206,-7.3476,-7.4322,-7.4745,-7.5592,-7.6015,-7.6015,-7.6015,-7.6015,-7.6015,-7.6015,-7.6015,-7.6015,-7.6015,-7.6015,-7.6015,-7.6015,-7.6015,-7.6015,-8.2304,-8.2304,-8.2304,-8.2304,0.0,0.0,0.0,0.0,0.0,0.0,0.0,0.0,0.0,0.0,0.0,0.0,0.0,0.0,0.0,0.0,0.0,0.0,0.0,-7.5312,0.0,0.0,0.0,0.0,0.0,0.0,0.0,0.0,0.0,0.0,0.0,0.0,0.0,0.0,0.0,-6.957,0.0,-6.7031,-6.6914,-6.6914,-6.6914,-6.6914,-6.6914,-6.6914,-6.6914,-6.6914,-6.6914,-6.6914,-6.6914,-6.7383,0.0,0.0,0.0,0.0,0.0,0.0,0.0,0.0,0.0,-7.1992,0.0,0.0,0.0,0.0,0.0,0.0,0.0,0.0,0.0,0.0,0.0,0.0,0.0,-7.0939,0.0,-7.0912,-7.0898,-7.0898,-7.0898,-7.0898,-7.0898,-7.0898,-7.0898,-7.0898,-7.0898,-7.0898,-7.0898,-7.0898,-7.0898,-7.0975,-7.1168,-7.186,-7.236,-7.2706,-7.4053,-7.4784,-7.4976,-7.5668,-7.6015,-7.6015,-7.6015,-7.6015,-7.6015,-7.6015,-7.6015,-7.6015,-7.6015,-7.6015,-7.6015,-7.6015,-7.6015,-7.6015,-8.2304,-8.2304,-8.2304,-8.2304,0.0,0.0,0.0,0.0,0.0,0.0,0.0,0.0,0.0,0.0,0.0,0.0,0.0,0.0,-7.6094,0.0,0.0,0.0,0.0,0.0,-7.4609,0.0,0.0,0.0,0.0,0.0,0.0,0.0,0.0,0.0,-7.1992,0.0,0.0,0.0,-7.0547,0.0,-6.8711,-6.7578,0.0,-6.6914,-6.6914,-6.6914,-6.6914,-6.6914,-6.6914,0.0,-6.6914,-6.6914,0.0,-6.6953,-6.7344,-6.8945,0.0,0.0,0.0,0.0,0.0,0.0,-7.1992,-7.1992,0.0,0.0,-7.1992,-7.1992,0.0,0.0,0.0,0.0,0.0,0.0,0.0,0.0,-7.048,-7.0878,-7.1175,-7.0939,-7.0898,-7.0898,-7.0898,-7.0898,-7.0898,-7.0898,-7.0898,-7.0898,-7.0898,-7.0898,-7.0898,-7.0898,-7.0898,-7.1283,-7.2052,-7.2129,-7.2937,-7.4437,-7.463,-7.5091,-7.5861,-7.5938,-7.6015,-7.6015,-7.6015,-7.6015,-7.6015,-7.6015,-7.6015,-7.6015,-7.6015,-7.6015,-7.6015,-7.6015,-7.6015,-7.6015,-8.2107,-8.2303,-8.2304,-8.2304,0.0,0.0,0.0,0.0,0.0,0.0,0.0,0.0,0.0,0.0,0.0,0.0,0.0,-7.5547,0.0,0.0,0.0,0.0,0.0,0.0,0.0,0.0,0.0,0.0,-7.2187,0.0,0.0,0.0,0.0,0.0,-7.1992,0.0,-7.1822,0.0,-7.0388,0.0,0.0,0.0,0.0,-6.6874,-6.6914,-6.6914,-6.6914,-6.6914,-6.6914,0.0,-6.6914,0.0,0.0,0.0,0.0,0.0,0.0,0.0,0.0,0.0,0.0,0.0,0.0,0.0,-7.1992,0.0,-7.1992,0.0,0.0,0.0,0.0,0.0,0.0,0.0,-7.1491,0.0,0.0,0.0,-7.1239,0.0,0.0,0.0,-7.0898,-7.0898,-7.0898,-7.0898,-7.0898,-7.0898,-7.0898,-7.0898,-7.0898,-7.0898,-7.0898,-7.1321,-7.2168,-7.2706,-7.3553,-7.4707,-7.5207,-7.5668,-7.6015,-7.6015,-7.6015,-7.6015,-7.6015,-7.6015,-7.6015,-7.6015,-7.6015,-7.6015,-7.6015,-7.6015,-7.6015,-7.6015,-7.6015,-7.6015,-8.1265,-8.1551,-8.1597,0.0,0.0,0.0,0.0,0.0,0.0,0.0,0.0,0.0,-7.5976,-7.5703,0.0,0.0,-7.4609,-7.4492,0.0,0.0,-7.3867,0.0,0.0,0.0,0.0,0.0,0.0,0.0,0.0,0.0,0.0,0.0,0.0,0.0,0.0,-7.1947,-7.1756,0.0,-7.0606,-6.9887,-6.8993,-6.7979,-6.7009,-6.6852,-6.6828,-6.6833,-6.6833,-6.6833,-6.6833,-6.6833,-6.6829,0.0,-6.6782,0.0,0.0,0.0,0.0,0.0,-7.1455,0.0,0.0,0.0,0.0,0.0,0.0,0.0,0.0,0.0,0.0,0.0,0.0,0.0,0.0,0.0,0.0,-7.1521,0.0,0.0,0.0,0.0,0.0,0.0,0.0,-7.0898,-7.0898,-7.0898,-7.0898,-7.0898,-7.0898,-7.0898,-7.0898,-7.0898,-7.1129,-7.1668,-7.2552,-7.3399,-7.4245,-7.5053,-7.5707,-7.6015,-7.6015,-7.6015,-7.6015,-7.6015,-7.6015,-7.6015,-7.6015,-7.6015,-7.6015,-7.6015,-7.6015,-7.6015,-7.6015,-7.6015,-7.6015,-7.6015,-7.945,-7.9639,0.0,0.0,0.0,0.0,0.0,0.0,0.0,0.0,0.0,0.0,0.0,0.0,0.0,0.0,0.0,-7.4258,-7.3398,0.0,-7.2969,0.0,0.0,-7.2031,0.0,0.0,0.0,0.0,0.0,0.0,0.0,0.0,0.0,0.0,0.0,-7.1947,-7.1792,-7.1756,-7.1718,-7.1549,-7.0687,-6.9284,-6.7686,0.0,-6.6662,-6.6719,-6.6719,0.0,0.0,-6.6719,-6.6677,0.0,0.0,0.0,0.0,0.0,0.0,0.0,0.0,0.0,0.0,-7.1671,0.0,0.0,0.0,0.0,-7.1848,0.0,0.0,0.0,0.0,0.0,0.0,0.0,0.0,0.0,0.0,0.0,0.0,0.0,0.0,0.0,0.0,-7.0898,-7.0898,-7.0898,-7.0898,-7.0898,-7.0898,-7.0898,-7.0898,-7.0898,-7.1706,-7.2591,-7.3437,-7.4284,-7.5091,-7.5976,-7.5976,-7.6015,-7.6015,-7.6015,-7.6015,-7.6015,-7.6015,-7.6015,-7.6015,-7.6015,-7.6015,-7.6015,-7.6015,-7.6015,-7.6015,-7.6015,-7.6015,-7.6015,-7.7533,0.0,0.0,0.0,0.0,0.0,0.0,-7.7573,0.0,0.0,-7.6445,0.0,0.0,-7.4258,-7.3515,0.0,0.0,-7.2734,-7.2461,-7.2422,0.0,0.0,0.0,-7.1992,0.0,0.0,0.0,0.0,0.0,0.0,0.0,0.0,0.0,0.0,0.0,-7.1897,0.0,0.0,0.0,0.0,0.0,-6.87,-6.7532,0.0,-6.6615,-6.6646,-6.6646,-6.6646,0.0,-6.6646,-6.6576,-6.6602,-6.713,-6.7436,-6.7852,-6.931,-6.9927,-7.0291,0.0,0.0,-7.1498,-7.1554,0.0,0.0,0.0,0.0,0.0,0.0,0.0,0.0,0.0,0.0,0.0,0.0,0.0,0.0,0.0,0.0,0.0,0.0,0.0,0.0,0.0,0.0,0.0,-7.0898,-7.0898,-7.0898,-7.0898,-7.0898,-7.0898,-7.0898,-7.1745,-7.2629,-7.35,-7.4322,-7.513,-7.6015,-7.6015,-7.6015,-7.6015,-7.6015,-7.6015,-7.6015,-7.6015,-7.6015,-7.6015,-7.6015,-7.6015,-7.6015,-7.6015,-7.6015,-7.6015,-7.6015,-7.6015,-7.6015,-7.6497,-7.6507,0.0,0.0,0.0,0.0,0.0,0.0,0.0,0.0,-7.5702,0.0,-7.4219,0.0,-7.2617,0.0,-7.1992,-7.1992,-7.1992,-7.1992,0.0,-7.1992,-7.1992,-7.1992,0.0,0.0,0.0,0.0,0.0,-7.1992,0.0,0.0,0.0,0.0,0.0,-7.1889,-7.1705,-7.1733,-7.1327,0.0,0.0,-6.8936,0.0,0.0,-6.7029,-6.6528,0.0,-6.6528,-6.6528,-6.6516,-6.6659,-6.6897,-6.7362,-6.7909,-6.8537,-6.9701,-7.0147,-7.0462,-7.1097,-7.129,0.0,-7.1395,-7.137,0.0,-7.1544,0.0,-7.1549,0.0,0.0,0.0,0.0,0.0,0.0,0.0,0.0,0.0,0.0,-7.1378,0.0,0.0,0.0,0.0,0.0,0.0,-7.0898,-7.0898,-7.0898,-7.0898,0.0,-7.0898,-7.1052,-7.136,-7.2206,-7.3053,-7.3937,-7.4745,-7.5438,-7.6015,-7.6015,-7.6015,-7.6015,-7.6015,-7.6015,-7.6015,-7.6015,-7.6015,-7.6015,-7.6015,-7.6015,-7.6015,-7.6015,-7.6015,-7.6015,-7.6015,-7.6015,-7.6015,-7.626,-7.627,-7.6261,0.0,-7.6621,0.0,0.0,0.0,-7.5809,0.0,-7.4335,-7.3281,-7.3281,-7.2539,-7.1992,-7.1992,-7.1992,-7.1992,-7.1992,-7.1992,0.0,0.0,-7.1992,-7.1992,-7.1992,0.0,0.0,0.0,0.0,0.0,0.0,0.0,0.0,0.0,-7.1992,0.0,-7.1694,-7.1694,-7.1529,-7.1214,-7.0402,-7.0054,-6.9899,-6.9164,-6.789,-6.6532,-6.6532,-6.6532,-6.6524,-6.6445,-6.6884,-6.742,-6.7381,-6.8449,-6.9785,-6.9758,-7.0283,-7.0898,-7.0898,-7.0898,-7.094,-7.1126,-7.1101,0.0,0.0,0.0,-7.1347,0.0,0.0,0.0,0.0,0.0,0.0,0.0,0.0,0.0,0.0,0.0,0.0,0.0,0.0,0.0,0.0,-7.0898,-7.0898,-7.0898,-7.0898,0.0,0.0,-7.0937,-7.1321,-7.2168,-7.3091,-7.3937,-7.4707,-7.5553,-7.6015,-7.6015,-7.6015,-7.6015,-7.6015,-7.6015,-7.6015,-7.6015,-7.6015,-7.6015,-7.6015,-7.6015,-7.6015,-7.6015,-7.6015,-7.6015,-7.6015,-7.6015,-7.6015,-7.6015,-7.6076,-7.5551,-7.5116,0.0,-7.5449,-7.5681,0.0,0.0,0.0,0.0,-7.3895,-7.3281,-7.3281,-7.2539,-7.1992,-7.1992,-7.1992,0.0,0.0,0.0,0.0,-7.1992,-7.1992,-7.1992,-7.1992,-7.1992,-7.1992,-7.1992,0.0,0.0,-7.1992,0.0,0.0,0.0,0.0,0.0,-7.1544,-7.1544,-7.146,-7.1291,-7.1059,-7.0556,-6.9976,0.0,-6.9041,-6.82,-6.82,-6.82,-6.8191,-6.8091,-6.816,-6.8366,-6.8949,-6.9425,-6.9848,-7.0398,-7.0744,-7.0898,-7.0898,-7.0898,-7.0925,-7.0966,-7.094,-7.0992,0.0,0.0,0.0,0.0,0.0,0.0,0.0,0.0,0.0,0.0,0.0,0.0,0.0,0.0,0.0,-7.113,0.0,0.0,-7.0979,-7.0925,-7.0898,-7.0898,-7.0898,0.0,0.0,0.0,-7.1975,-7.2168,-7.363,-7.4514,-7.4707,-7.5553,-7.6015,-7.6015,-7.6015,-7.6015,-7.6015,-7.6015,-7.6015,-7.6015,-7.6015,-7.6015,-7.6015,-7.6015,-7.6015,-7.6015,-7.6015,-7.6015,-7.6015,-7.6015,-7.6015,-7.6015,-7.4899,-7.4514,0.0,-7.4168,0.0,0.0,-7.4577,-7.4039,0.0,-7.3626,-7.3033,0.0,-7.2605,-7.2224,-7.1992,-7.1992,-7.1992,0.0,-7.1992,0.0,0.0,-7.1992,-7.1992,-7.1992,-7.1992,-7.1992,0.0,-7.1992,0.0,0.0,-7.1992,0.0,0.0,0.0,0.0,-7.1702,0.0,-7.1434,-7.1368,-7.1291,-7.1291,-7.1021,0.0,-7.0556,-7.0286,-6.9899,-6.9899,-6.9435,-6.8794,-6.8679,-6.8892,-6.923,-6.9644,-6.9963,-7.0321,-7.0783,-7.0898,-7.0898,-7.0898,-7.0898,-7.0898,-7.0898,-7.0898,-7.0912,-7.0992,-7.0979,-7.0979,0.0,-7.103,-7.1018,0.0,0.0,0.0,0.0,0.0,0.0,0.0,0.0,0.0,0.0,-7.1018,-7.0965,-7.1005,-7.0939,-7.0898,-7.0898,-7.0898,0.0,0.0,0.0,-7.236,-7.2745,-7.4014,-7.4899,-7.5245,-7.5745,-7.6015,-7.6015,-7.6015,-7.6015,-7.6015,-7.6015,-7.6015,-7.6015,-7.6015,-7.6015,-7.6015,-7.6015,-7.6015,-7.6015,-7.6015,-7.6245,-7.6553,-7.6553,-7.6553,-7.6553,-7.3514,-7.3399,0.0,0.0,0.0,0.0,0.0,-7.2962,0.0,-7.2592,0.0,-7.1693,-7.1693,-7.1865,-7.1992,-7.1992,0.0,-7.1992,-7.1992,-7.1992,-7.1992,-7.1992,-7.1992,-7.1992,-7.1992,-7.1992,-7.1992,0.0,0.0,0.0,0.0,0.0,0.0,0.0,0.0,0.0,0.0,-7.1348,-7.1313,-7.1334,-7.1302,-7.1291,-7.1291,-7.1291,-7.1291,-7.1291,-7.1291,-7.0363,-6.9104,-6.898,-6.9447,-7.004,-6.99,-7.036,-7.0898,-7.0898,-7.0898,-7.0898,-7.0898,-7.0898,-7.0898,-7.0898,-7.0898,-7.0912,-7.0979,-7.0939,-7.0912,-7.0979,-7.0939,-7.0898,-7.0898,0.0,0.0,0.0,0.0,0.0,0.0,0.0,0.0,0.0,0.0,0.0,-7.0979,-7.0939,-7.0898,-7.0898,0.0,0.0,0.0,0.0,-7.2783,-7.363,-7.4437,-7.5245,-7.5976,-7.6015,-7.6015,-7.6015,-7.6015,-7.6015,-7.6015,-7.6015,-7.6015,-7.6015,-7.6015,-7.6015,-7.6015,-7.6015,-7.6053,-7.6169,-7.6169,-7.6707,-7.7438,-7.7438,-7.7515,-7.7592,-7.3514,0.0,0.0,0.0,0.0,-7.1489,-7.1698,-7.1754,-7.1757,-7.1667,-7.1716,-7.1789,-7.1789,-7.1907,-7.1992,-7.1992,-7.1992,0.0,0.0,0.0,0.0,-7.1992,-7.1992,-7.1992,-7.1992,-7.1992,-7.1992,0.0,0.0,0.0,0.0,0.0,0.0,0.0,0.0,0.0,-7.1473,-7.1348,0.0,-7.146,-7.1327,-7.1291,-7.1291,-7.1291,-7.1291,-7.1291,-7.1291,-7.1098,-7.0844,-7.0718,-7.0746,-7.0888,-7.0708,-7.0783,-7.0898,-7.0898,-7.0898,-7.0898,-7.0898,-7.0898,-7.0898,-7.0898,-7.0898,-7.0898,-7.0912,-7.0912,-7.0898,-7.0912,-7.0912,-7.0898,-7.0898,0.0,0.0,0.0,0.0,0.0,0.0,0.0,0.0,0.0,0.0,-7.0898,-7.0912,-7.0912,-7.0898,0.0,0.0,0.0,0.0,0.0,-7.3668,0.0,-7.5322,-7.5861,0.0,0.0,-7.6015,-7.6015,-7.6015,-7.6015,-7.6015,-7.6015,-7.6015,-7.6015,-7.6015,-7.6015,-7.6015,-7.6015,-7.6438,-7.7053,-7.7053,-7.7553,-7.8299,-7.8299,-7.8746,-7.9246,-7.2168,0.0,0.0,0.0,0.0,0.0,0.0,-7.1497,-7.1608,-7.14,-7.1563,-7.172,-7.172,-7.1895,-7.1992,-7.1992,-7.1992,-7.1992,-7.1992,-7.1992,-7.1992,-7.1992,-7.1992,-7.1992,-7.1992,-7.1992,-7.1992,-7.1992,0.0,0.0,0.0,0.0,0.0,0.0,0.0,-7.1513,0.0,0.0,0.0,-7.1407,-7.1334,-7.1291,-7.1291,-7.1291,-7.1291,-7.1291,-7.1291,-7.128,-7.1236,-7.113,-7.1081,-7.103,-7.0925,-7.0898,-7.0898,-7.0898,-7.0898,-7.0898,-7.0898,-7.0898,-7.0898,-7.0898,-7.0898,-7.0898,-7.0898,-7.0898,-7.0898,-7.0898,-7.0898,-7.0898,-7.0898,-7.0925,0.0,0.0,0.0,0.0,0.0,0.0,-7.0992,0.0,0.0,0.0,0.0,0.0,0.0,0.0,0.0,0.0,0.0,0.0,-7.386,0.0,0.0,0.0,-7.6015,0.0,-7.6015,-7.6015,-7.6015,-7.6015,-7.6015,-7.6015,-7.6015,-7.6015,-7.6015,-7.6015,-7.6053,-7.6476,-7.6899,-7.7323,-7.7746,-7.8438,-7.9169,-7.9169,-7.9746,-8.0362,0.0,-7.0898,0.0,0.0,-7.125,-7.1458,-7.1356,-7.1544,-7.164,-7.1456,-7.1542,-7.1614,-7.1589,-7.1834,-7.1992,-7.1951,-7.1992,-7.1992,-7.1992,-7.1992,-7.1992,-7.1992,-7.1992,-7.1992,-7.1992,-7.1992,-7.1992,0.0,0.0,0.0,0.0,0.0,0.0,0.0,0.0,0.0,0.0,0.0,-7.1397,-7.1327,-7.1313,-7.1291,-7.1291,-7.128,-7.128,-7.1269,-7.1258,-7.1213,-7.1154,-7.1106,-7.1043,-7.0992,-7.0925,-7.0898,-7.0898,-7.0898,-7.0898,-7.0898,-7.0898,-7.0898,-7.0898,-7.0898,-7.0898,-7.0898,-7.0898,-7.0898,-7.0898,-7.0898,-7.0898,-7.0898,-7.0898,-7.0898,0.0,0.0,0.0,0.0,0.0,0.0,0.0,0.0,0.0,0.0,-7.0898,0.0,0.0,0.0,0.0,0.0,-7.2437,0.0,0.0,0.0,0.0,-7.6015,-7.6015,0.0,-7.6015,-7.6015,-7.6015,-7.6015,-7.6015,-7.6015,-7.6015,-7.6015,-7.6015,-7.6092,-7.6322,-7.7207,-7.7669,-7.79,-7.8515,-7.9323,-8.0092,-8.0092,-8.0516,-8.1016,0.0,0.0,0.0,0.0,0.0,-7.1497,-7.1482,-7.1534,-7.1573,-7.1489,-7.1615,-7.1653,-7.1521,-7.1813,-7.195,-7.1844,-7.1948,-7.1992,-7.1992,-7.1992,-7.1992,-7.1992,-7.1992,-7.1992,-7.1992,-7.1992,-7.1992,0.0,0.0,-7.1601,0.0,0.0,0.0,0.0,0.0,0.0,0.0,-7.1368,-7.1388,-7.1478,-7.1337,-7.1291,-7.1291,-7.1236,-7.1213,-7.1213,-7.1142,-7.1081,-7.1018,-7.1018,-7.1005,-7.0992,-7.0925,-7.0898,-7.0898,-7.0898,-7.0898,-7.0898,-7.0898,-7.0898,-7.0898,-7.0898,-7.0898,-7.0898,-7.0898,-7.0898,-7.0898,-7.0898,-7.0898,-7.0898,-7.0898,-7.0898,-7.0898,0.0,0.0,0.0,0.0,0.0,-7.0912,-7.0898,0.0,0.0,0.0,-7.0898,0.0,0.0,-7.1629,0.0,0.0,0.0,0.0,-7.5861,-7.5976,-7.6015,-7.6015,-7.6015,-7.6015,-7.6015,-7.6015,-7.6015,-7.6015,-7.6015,-7.6015,-7.6015,-7.6015,-7.6438,-7.7246,-7.8054,-7.8861,-7.9592,-7.9669,-8.0208,-8.0977,-8.0977,-8.1016,-8.1093,0.0,0.0,0.0,0.0,0.0,0.0,0.0,-7.1862,-7.1601,-7.1661,-7.1641,-7.1559,-7.1528,-7.1729,-7.1841,-7.1733,-7.1897,-7.1952,-7.19,-7.1951,-7.1992,-7.1992,-7.1992,-7.1992,-7.1992,-7.1992,-7.1992,0.0,0.0,0.0,0.0,0.0,0.0,0.0,0.0,-7.1426,-7.1388,-7.1397,-7.1387,-7.1378,-7.1334,-7.1291,-7.1291,-7.1224,-7.1213,-7.1201,-7.113,-7.1056,-7.1005,-7.1005,-7.0979,-7.0939,-7.0912,-7.0898,-7.0898,-7.0898,-7.0898,-7.0898,-7.0898,-7.0898,-7.0898,-7.0898,-7.0898,-7.0898,-7.0898,-7.0898,-7.0898,-7.0898,-7.0898,-7.0898,-7.0898,-7.0898,-7.0898,-7.0898,0.0,0.0,0.0,0.0,0.0,-7.0898,0.0,-7.0898,0.0,0.0,0.0,0.0,0.0,0.0,0.0,0.0,0.0,-7.5976,0.0,-7.6015,-7.6015,-7.6015,-7.6015,-7.6015,-7.6015,-7.6015,-7.6015,-7.6015,-7.6284,-7.6784,-7.6784,-7.7246,-7.8092,-7.8938,-7.9477,-7.9862,-8.04,-8.0785,-8.1093,-8.1093,-8.1093,-8.1093,-7.3514,0.0,-7.3514,0.0,-7.3125,-7.2865,-7.2965,-7.2391,-7.199,-7.2096,-7.1764,-7.1544,-7.1551,-7.1737,-7.1834,-7.1755,-7.1895,-7.1951,-7.1854,-7.195,-7.1992,-7.1992,-7.1992,0.0,-7.1992,-7.1992,-7.1992,-7.1992,-7.1992,0.0,0.0,0.0,0.0,0.0,-7.1465,-7.1397,-7.1302,-7.1378,-7.1397,-7.1291,-7.1291,-7.1291,-7.128,-7.1213,-7.1178,-7.1166,-7.1081,-7.1018,-7.0965,-7.0965,-7.0939,-7.0898,-7.0898,-7.0898,-7.0898,-7.0898,-7.0898,-7.0898,-7.0898,-7.0898,-7.0898,-7.0898,-7.0898,-7.0898,-7.0898,-7.0898,-7.0898,-7.0898,-7.0898,-7.0898,-7.0898,-7.0898,-7.0898,-7.0898,0.0,0.0,0.0,-7.0898,0.0,0.0,-7.0898,-7.1014,-7.1245,-7.1283,0.0,0.0,0.0,0.0,0.0,0.0,0.0,0.0,0.0,0.0,-7.6015,-7.6015,-7.6015,-7.6015,-7.6015,-7.6015,-7.6015,-7.6284,-7.6707,-7.7323,-7.7823,-7.8361,-7.8938,-7.9823,-8.0169,-8.0246,-8.0862,-8.1093,-8.1093,-8.1093,-8.1093,-8.1093,-7.3514,-7.3514,-7.3514,-7.3514,-7.3588,-7.3667,-7.3678,-7.317,-7.2796,-7.2794,-7.2134,-7.1704,-7.1694,-7.1885,-7.1949,-7.1797,-7.1908,-7.1992,-7.1992,-7.1992,-7.1992,0.0,0.0,-7.1992,-7.1992,-7.1992,-7.1992,-7.1992,0.0,0.0,-7.0703,0.0,-7.0735,-7.1302,-7.1302,-7.1291,-7.1291,-7.1302,-7.1291,-7.1291,-7.1291,-7.1291,-7.128,-7.1154,-7.1106,-7.1081,-7.0952,-7.0898,-7.0898,-7.0898,-7.0898,-7.0898,-7.0898,-7.0898,-7.0898,-7.0898,-7.0898,-7.0898,-7.0898,-7.0898,-7.0898,-7.0898,-7.0898,-7.0898,-7.0898,-7.0898,-7.0898,-7.0898,-7.0898,-7.0898,-7.0898,-7.0898,-7.0898,-7.0898,0.0,0.0,0.0,-7.0898,0.0,-7.0898,-7.0898,-7.1245,-7.2091,-7.2168,0.0,0.0,0.0,0.0,0.0,0.0,0.0,-7.6015,-7.6015,0.0,-7.6015,-7.6015,-7.6015,-7.6015,-7.6015,-7.6015,-7.6015,-7.6899,-7.7284,-7.74,-7.9054,-7.9785,-7.9862,-8.0708,-8.1093,-8.1093,-8.1093,-8.1093,-8.1093,-8.1093,-8.1093,-8.1093,-7.5207,-7.5207,-7.5207,-7.5207,-7.4739,-7.4436,-7.4572,-7.39,-7.3452,-7.3589,-7.3541,-7.3466,-7.3488,-7.2492,-7.1836,0.0,-7.1895,-7.1951,0.0,-7.195,-7.1992,-7.1992,-7.1992,-7.1992,-7.1992,-7.1992,-7.1992,-7.1992,0.0,0.0,0.0,-7.1116,-7.1153,-7.1425,-7.1327,-7.1291,-7.1291,-7.1291,-7.1291,-7.1291,-7.1291,-7.1269,-7.1224,-7.113,-7.1068,-7.1018,-7.0925,-7.0898,-7.0898,-7.0898,-7.0898,-7.0898,-7.0898,-7.0898,-7.0898,-7.0898,-7.0898,-7.0898,-7.0898,-7.0898,-7.0898,-7.0898,-7.0898,-7.0898,-7.0898,-7.0898,-7.0898,-7.0898,-7.0898,-7.0898,-7.0898,-7.0898,-7.0898,-7.0898,-7.0898,0.0,-7.0898,0.0,-7.0898,-7.0898,-7.1398,-7.1898,-7.2168,-7.2745,0.0,0.0,0.0,0.0,0.0,0.0,0.0,0.0,-7.6015,0.0,-7.6015,-7.6015,-7.6015,-7.6015,-7.6015,-7.6322,-7.6899,-7.7169,-7.79,-7.9015,-7.9592,-8.0131,-8.0708,-8.0977,-8.1093,-8.1093,-8.1093,-8.1093,-8.1093,-8.1093,-8.1093,-8.1093,-7.6015,-7.6015,-7.6015,-7.6015,-7.5553,-7.5225,-7.5363,-7.469,-7.4248,-7.4353,-7.4334,-7.4303,-7.4293,-7.3434,0.0,-7.2317,-7.2139,-7.1951,-7.1898,-7.1951,-7.1992,-7.1992,-7.1992,-7.1991,-7.1947,-7.1952,0.0,-7.1889,-7.1816,-7.1707,-7.1628,-7.146,-7.1407,-7.1415,-7.1355,-7.1291,-7.1291,-7.1291,-7.1291,-7.1291,-7.1291,-7.1269,-7.1236,-7.1166,-7.1118,-7.1068,-7.0979,-7.0939,-7.0939,-7.0912,-7.0898,-7.0898,-7.0898,-7.0898,-7.0898,-7.0898,-7.0898,-7.0898,-7.0898,-7.0898,-7.0898,-7.0898,-7.0898,-7.0898,-7.0898,-7.0898,-7.0898,-7.0898,-7.0898,-7.0898,-7.0898,-7.0898,-7.0898,-7.0898,-7.0898,-7.0898,-7.0898,0.0,-7.1014,0.0,0.0,0.0,0.0,-7.363,-7.4284,0.0,0.0,0.0,0.0,0.0,-7.6015,-7.6015,-7.6015,-7.6015,-7.6015,-7.6015,-7.6015,-7.6015,-7.6322,-7.6784,-7.7323,-7.7938,-7.8823,-7.9823,-8.0169,-8.0592,-8.1093,-8.1093,-8.1093,-8.1093,-8.1093,-8.1093,-8.1093,-8.1093,-8.1093,-8.1093,-7.6015,-7.6015,-7.6015,0.0,-7.6015,-7.6015,-7.6015,-7.5465,-7.5059,-7.5066,-7.4693,-7.4465,-7.4429,-7.4579,-7.4332,-7.3514,0.0,0.0,-7.2187,-7.2187,-7.2187,-7.2187,-7.2148,-7.2102,-7.1987,-7.2101,-7.2043,-7.1844,-7.1844,-7.1777,-7.1659,-7.1659,-7.16,-7.1485,-7.1485,-7.1446,-7.1369,-7.1369,-7.1369,-7.1291,-7.1291,-7.1291,-7.128,-7.1224,-7.1201,-7.119,-7.1056,-7.1005,-7.1005,-7.0939,-7.0912,-7.0912,-7.0912,-7.0898,-7.0898,-7.0898,-7.0898,-7.0898,-7.0898,-7.0898,-7.0898,-7.0898,-7.0898,-7.0898,-7.0898,-7.0898,-7.0898,-7.0898,-7.0898,-7.0898,-7.0898,-7.0898,-7.0898,-7.0898,-7.0898,-7.0898,-7.0898,-7.0937,-7.1283,0.0,0.0,0.0,-7.4553,-7.4745,-7.513,0.0,0.0,0.0,0.0,0.0,-7.6015,-7.6015,-7.6015,-7.6015,-7.6015,-7.6015,-7.6015,-7.6092,-7.6899,-7.7361,-7.7515,-7.9092,-7.9823,-7.9939,-8.0746,-8.1093,-8.1093,-8.1093,-8.1093,-8.1093,-8.1093,-8.1093,-8.1093,-8.1093,-8.1093,-8.1093,0.0,0.0,-7.6015,-7.6015,-7.6015,-7.6015,-7.6015,-7.588,-7.5768,-7.5757,-7.5924,-7.5984,-7.5826,-7.5574,-7.528,-7.4943,-7.4353,-7.3943,-7.3842,-7.3837,-7.3892,-7.3984,-7.378,-7.37,-7.378,-7.3739,-7.3609,-7.3472,-7.3472,-7.3428,-7.3341,-7.3341,-7.3319,-7.3264,-7.3264,-7.2916,-7.2297,-7.2297,-7.191,-7.1291,-7.1291,-7.1269,-7.1224,-7.1213,-7.1178,-7.1118,-7.1093,-7.1081,-7.1068,-7.1056,-7.1018,-7.0979,-7.0979,-7.0939,-7.0898,-7.0898,-7.0898,-7.0898,-7.0898,-7.0898,-7.0898,-7.0898,-7.0898,-7.0898,-7.0898,-7.0898,-7.0898,-7.0898,-7.0898,-7.0898,-7.0898,-7.0898,-7.0898,-7.0898,-7.0898,-7.0898,-7.0898,-7.1475,-7.1975,0.0,-7.3322,-7.4245,-7.4668,-7.5284,-7.5784,0.0,0.0,-7.6015,-7.6015,-7.6015,-7.6015,-7.6015,-7.6015,-7.6015,-7.6015,-7.6015,-7.6322,-7.6976,-7.7207,-7.7977,-7.9208,-7.9631,-8.0169,-8.0785,-8.1016,-8.1093,-8.1093,-8.1093,-8.1093,-8.1093,-8.1093,-8.1093,-8.1093,-8.1093,-8.1093,-8.1093,-7.6015,-7.6015,-7.6015,-7.6015,-7.6015,-7.6015,-7.6015,-7.6015,-7.6015,-7.6015,-7.627,-7.64,-7.6306,-7.6187,-7.6073,-7.5915,-7.4992,-7.4396,-7.4312,-7.4312,-7.4332,-7.441,-7.4285,-7.4227,-7.4199,-7.4227,-7.4113,-7.3998,-7.3985,-7.3925,-7.3883,-7.3883,-7.3883,-7.3883,-7.3883,-7.3651,-7.3187,-7.3187,-7.2916,-7.2491,-7.2491,-7.2236,-7.1827,-7.1827,-7.1572,-7.119,-7.1166,-7.1154,-7.1142,-7.1106,-7.1056,-7.1005,-7.1005,-7.0952,-7.0898,-7.0898,-7.0898,-7.0898,-7.0898,-7.0898,-7.0898,-7.0898,-7.0898,-7.0898,-7.0898,-7.0898,-7.0898,-7.0898,-7.0898,-7.0898,-7.0898,-7.0898,-7.0898,-7.0898,-7.1245,-7.1475,-7.1475,-7.2245,-7.2937,-7.3283,-7.4168,-7.4861,-7.5245,-7.5707,-7.6015,-7.6015,-7.6015,0.0,-7.6015,-7.6015,-7.6015,-7.6015,-7.6015,-7.6015,-7.6015,-7.6399,-7.6823,-7.7323,-7.8092,-7.8938,-7.9823,-8.0208,-8.0669,-8.1093,-8.1093,-8.1093,-8.1093,-8.1093,-8.1093,-8.1093,-8.1093,-8.1093,-8.1093,-8.1093,-8.1093,-8.1093,-7.6015,-7.6015,-7.6015,-7.6015,-7.6015,-7.6015,-7.6015,-7.6015,-7.6015,-7.6015,-7.6199,-7.6293,-7.6266,-7.6439,-7.6552,-7.6448,-7.5261,-7.4509,-7.4574,-7.458,-7.4587,-7.4611,-7.4529,-7.4498,-7.4386,-7.4498,-7.4483,-7.4381,-7.4319,-7.427,-7.427,-7.427,-7.427,-7.427,-7.427,-7.4193,-7.4077,-7.4077,-7.3999,-7.3883,-7.3883,-7.3458,-7.28,-7.28,-7.2336,-7.1678,-7.1622,-7.1522,-7.1394,-7.1335,-7.1184,-7.1005,-7.1005,-7.0952,-7.0898,-7.0898,-7.0898,-7.0898,-7.0898,-7.0898,-7.0898,-7.0898,-7.0898,-7.0898,-7.0898,-7.0898,-7.0898,-7.0898,-7.0898,-7.0898,-7.0898,-7.1014,-7.1091,-7.1091,-7.1822,-7.2399,-7.2399,0.0,-7.3937,-7.463,-7.4822,-7.5207,-7.5938,-7.6015,-7.6015,-7.6015,-7.6015,-7.6015,-7.6015,-7.6015,-7.6015,-7.6015,-7.6015,-7.6053,-7.6207,-7.7053,-7.7553,-7.7669,-7.9131,-7.9862,-8.0015,-8.0746,-8.1093,-8.1093,-8.1093,-8.1093,-8.1093,-8.1093,-8.1093,-8.1093,-8.1093,-8.1093,-8.1093,-8.1093,-8.1093,-8.1093,-7.6015,-7.6015,-7.6015,-7.6015,-7.6015,-7.6015,-7.6015,-7.6015,-7.6015,-7.6015,-7.6199,-7.6248,-7.6052,-7.6285,-7.6389,-7.625,-7.6103,-7.6066,-7.6199,-7.6216,-7.628,-7.6409,-7.6194,-7.6108,-7.6173,-7.6118,-7.6062,-7.6029,-7.6034,-7.6011,-7.6011,-7.6011,-7.6011,-7.6011,-7.6011,-7.5585,-7.4916,-7.4916,-7.4541,-7.3883,-7.3883,-7.3806,-7.369,-7.369,-7.3612,-7.3496,-7.3485,-7.2987,-7.2283,-7.2271,-7.1723,-7.1005,-7.1005,-7.0952,-7.0898,-7.0898,-7.0898,-7.0898,-7.0898,-7.0898,-7.0898,-7.0898,-7.0898,-7.0898,-7.0898,-7.0898,-7.0898,-7.0898,-7.0898,-7.0898,-7.0898,-7.1514,-7.2014,-7.2014,-7.2745,-7.3322,-7.3322,0.0,-7.4553,-7.4707,-7.5361,-7.5861,-7.5976,-7.6015,-7.6015,-7.6015,-7.6015,-7.6015,-7.6015,-7.6015,-7.6015,-7.6015,-7.6015,-7.6361,-7.7092,-7.79,-7.8669,-7.9438,-7.9669,-8.0208,-8.09,-8.1054,-8.1093,-8.1093,-8.1093,-8.1093,-8.1093,-8.1093,-8.1093,-8.1093,-8.1093,-8.1093,-8.1093,-8.1093,-8.1093,-8.1093,-7.6015,-7.6015,-7.6015,-7.6015,-7.6015,-7.6015,-7.6015,-7.6015,-7.6015,-7.6015,-7.6066,-7.6093,-7.5991,-7.6093,-7.6173,-7.6145,-7.6198,-7.6287,-7.6422,-7.6465,-7.6526,-7.6582,-7.6482,-7.6416,-7.6485,-7.6416,-7.6397,-7.6397,-7.6397,-7.6397,-7.6397,-7.6397,-7.6397,-7.6397,-7.6397,-7.6165,-7.5817,-7.5817,-7.5585,-7.5237,-7.5237,-7.4966,-7.4541,-7.4541,-7.427,-7.391,-7.3849,-7.3582,-7.321,-7.3174,-7.2829,-7.2392,-7.2392,-7.2338,-7.2322,-7.2322,-7.1629,-7.0898,-7.0898,-7.0898,-7.0898,-7.0898,-7.0898,-7.0898,-7.0898,-7.0898,-7.1014,-7.1514,-7.1591,-7.1745,-7.2206,-7.2629,-7.2899,-7.2899,-7.3591,0.0,-7.4168,-7.4861,-7.5399,-7.5399,-7.5745,-7.6015,-7.6015,-7.6015,-7.6015,-7.6015,-7.6015,-7.6015,-7.6015,-7.6015,-7.6207,-7.6669,-7.6707,-7.7092,-7.7938,-7.8784,-7.94,-7.9823,-8.0285,-8.0708,-8.1093,-8.1093,-8.1093,-8.1093,-8.1093,-8.1093,-8.1093,-8.1093,-8.1093,-8.1093,-8.1093,-8.1093,-8.1093,-8.1093,-8.1093,-8.1093,-7.6015,-7.6015,-7.6015,-7.6015,-7.6015,-7.6015,-7.6015,-7.6015,-7.6015,-7.6015,-7.6015,-7.6015,-7.6015,-7.6015,-7.6044,-7.609,-7.6145,-7.6212,-7.6301,-7.635,-7.6386,-7.6397,-7.6397,-7.6397,-7.6397,-7.6397,-7.6397,-7.6397,-7.6397,-7.6397,-7.6397,-7.6397,-7.6397,-7.6397,-7.6397,-7.6397,-7.6397,-7.6397,-7.6397,-7.6397,-7.6397,-7.6011,-7.5392,-7.5392,-7.4993,-7.444,-7.4393,-7.4241,-7.4011,-7.3948,-7.378,-7.3559,-7.3559,-7.3556,-7.3514,-7.3514,-7.2552,-7.1514,-7.1514,-7.1514,-7.1514,-7.1514,-7.1514,-7.1514,-7.1514,-7.1514,-7.1706,-7.236,-7.2514,-7.2706,-7.3399,-7.3654,-7.3783,-7.3783,0.0,-7.5014,-7.5014,-7.5592,-7.6015,-7.6015,-7.6015,-7.6015,-7.6015,-7.6015,-7.6015,-7.6015,-7.6015,-7.6015,-7.6015,-7.6207,-7.6784,-7.7861,-7.7861,-7.8169,-7.8784,-7.9669,-8.0092,-8.0131,-8.0785,-8.1093,-8.1093,-8.1093,-8.1093,-8.1093,-8.1093,-8.1093,-8.1093,-8.1093,-8.1093,-8.1093,-8.1093,-8.1093,-8.1093,-8.1093,-8.1093,-8.1093,-7.6015,-7.6015,-7.6015,-7.6015,-7.6015,-7.6015,-7.6015,-7.6015,-7.6015,-7.6015,-7.6015,-7.6015,-7.6015,-7.6015,-7.6044,-7.609,-7.6104,-7.6159,-7.6288,-7.6301,-7.6338,-7.6397,-7.6397,-7.6397,-7.6397,-7.6397,-7.6397,-7.6397,-7.6397,-7.6397,-7.6397,-7.6397,-7.6397,-7.6397,-7.6397,-7.6397,-7.6397,-7.6397,-7.6397,-7.6397,-7.6397,-7.6359,-7.6281,-7.6281,-7.6246,-7.612,-7.6108,-7.553,-7.4717,-7.4717,-7.42,-7.3514,-7.3514,-7.3514,-7.3514,-7.3514,-7.3399,-7.3322,-7.3322,-7.3322,-7.3322,-7.3322,-7.3322,-7.3322,-7.3322,-7.3322,-7.3322,-7.3399,-7.3399,-7.3437,-7.35,-7.413,-7.463,-7.463,0.0,0.0,-7.5899,-7.5976,-7.6015,-7.6015,-7.6015,-7.6015,-7.6015,-7.6015,-7.6015,-7.6015,-7.6015,-7.6015,-7.6015,-7.6784,-7.7938,-7.9554,-7.9631,-7.9631,-7.9708,-8.0554,-8.1016,-8.1016,-8.1054,-8.1093,-8.1093,-8.1093,-8.1093,-8.1093,-8.1093,-8.1093,-8.1093,-8.1093,-8.1093,-8.1093,-8.1093,-8.1093,-8.1093,-8.1093,-8.1093,-8.1093,-7.6823,-7.6361,-7.6015,-7.6015,-7.6015,-7.6015,-7.6015,-7.6015,-7.6015,-7.6015,-7.6015,-7.6015,-7.6015,-7.6015,-7.6029,-7.6058,-7.6062,-7.6118,-7.6172,-7.625,-7.6338,-7.6397,-7.6397,-7.6397,-7.6397,-7.6397,-7.6397,-7.6397,-7.6397,-7.6397,-7.6397,-7.6397,-7.6397,-7.6397,-7.6397,-7.6397,-7.6397,-7.6397,-7.6397,-7.6397,-7.6397,-7.6397,-7.6397,-7.6397,-7.6362,-7.6301,-7.625,-7.5979,-7.5589,-7.5572,-7.5313,-7.5053,-7.5053,-7.5053,-7.5053,-7.5053,-7.5053,-7.5053,-7.5053,-7.4284,-7.3514,-7.3514,-7.3514,-7.3514,-7.3514,-7.3514,-7.363,-7.413,-7.4245,-7.4399,-7.4938,-7.5284,-7.5515,-7.5515,0.0,-7.6015,-7.6015,-7.6015,-7.6015,-7.6015,-7.6015,-7.6015,-7.6015,-7.6015,-7.6015,-7.6015,-7.6515,-7.6823,-7.6823,-7.8092,-7.9131,-7.9785,-8.0323,-8.0592,-8.0592,-8.0939,-8.1093,-8.1093,-8.1093,-8.1093,-8.1093,-8.1093,-8.1093,-8.1093,-8.1093,-8.1093,-8.1093,-8.1093,-8.1093,-8.1093,-8.1093,-8.1093,-8.1093,-8.1093,-8.1093,-8.1093,-7.7669,-7.7207,-7.6784,-7.6784,-7.6784,-7.6784,-7.6784,-7.6784,-7.6784,-7.6784,-7.6784,-7.6784,-7.6784,-7.6784,-7.6784,-7.6784,-7.6842,-7.6885,-7.6899,-7.7035,-7.6905,-7.6436,-7.6397,-7.6397,-7.6397,-7.6397,-7.6397,-7.6397,-7.6397,-7.6397,-7.6397,-7.6397,-7.6397,-7.6397,-7.6397,-7.6397,-7.6397,-7.6397,-7.6397,-7.6397,-7.6397,-7.6386,-7.6374,-7.6374,-7.6313,-7.6238,-7.6185,-7.6118,-7.6048,-7.6029,-7.6015,-7.6015,-7.6015,-7.6015,-7.6015,-7.6015,-7.6015,-7.6015,-7.6015,-7.5168,-7.4284,-7.4284,-7.4284,-7.4284,-7.4284,-7.4284,-7.4437,-7.4976,-7.513,-7.5284,-7.5899,-7.6015,-7.6015,-7.6015,-7.6015,-7.6015,-7.6015,-7.6015,-7.6015,-7.6015,-7.6015,-7.6015,-7.6015,-7.6015,-7.6092,-7.6399,-7.6938,-7.7515,-7.8054,-7.9169,-7.9939,-8.0208,-8.0785,-8.1093,-8.1093,-8.1093,-8.1093,-8.1093,-8.1093,-8.1093,-8.1093,-8.1093,-8.1093,-8.1093,-8.1093,-8.1093,-8.1093,-8.1093,-8.1093,-8.1093,-8.1093,-8.1093,-8.1093,-8.1093,-8.1093,-8.1093,-7.8515,-7.8477,-7.8477,-7.8477,-7.8477,-7.8477,-7.8477,-7.8477,-7.8477,-7.8477,-7.8477,-7.8477,-7.8477,-7.8477,-7.8477,-7.8477,-7.8477,-7.8507,-7.858,-7.881,-7.8142,-7.6475,-7.6397,-7.6397,-7.6397,-7.6397,-7.6397,-7.6397,-7.6397,-7.6397,-7.6397,-7.6397,-7.6397,-7.6397,-7.6397,-7.6397,-7.6397,-7.6397,-7.6397,-7.6397,-7.6397,-7.6362,-7.6301,-7.6301,-7.6225,-7.609,-7.609,-7.6048,-7.6015,-7.6015,-7.6015,-7.6015,-7.6015,-7.6015,-7.6015,-7.6015,-7.6015,-7.6015,-7.6015,-7.6015,-7.6015,-7.6015,-7.6015,-7.6015,-7.6015,-7.6015,-7.6015,-7.6015,-7.6015,-7.6015,-7.6015,-7.6015,-7.6015,-7.6015,-7.6015,-7.6015,-7.6015,-7.6015,-7.6015,-7.6015,-7.6015,-7.6015,-7.6015,-7.6015,-7.6361,-7.7246,-7.7323,-7.8054,-7.9708,-7.9823,-8.0208,-8.1054,-8.1093,-8.1093,-8.1093,-8.1093,-8.1093,-8.1093,-8.1093,-8.1093,-8.1093,-8.1093,-8.1093,-8.1093,-8.1093,-8.1093,-8.1093,-8.1093,-8.1093,-8.1093,-8.1093,-8.1093,-8.1093,-8.1093,-8.1093,-8.1093,-7.94,-7.89,-7.8477,-7.8477,-7.8477,-7.8477,-7.8477,-7.8477,-7.8477,-7.8477,-7.8477,-7.8477,-7.8477,-7.8477,-7.8477,-7.8477,-7.8477,-7.8507,-7.858,-7.8676,-7.85,-7.8026,-7.8167,-7.8216,-7.8216,-7.8216,-7.7906,-7.7287,-7.7287,-7.6978,-7.6397,-7.6397,-7.6397,-7.6397,-7.6397,-7.6397,-7.6397,-7.6397,-7.6397,-7.6397,-7.635,-7.6313,-7.6301,-7.625,-7.6172,-7.609,-7.609,-7.6048,-7.6015,-7.6015,-7.6015,-7.6015,-7.6015,-7.6015,-7.6015,-7.6015,-7.6015,-7.6015,-7.6015,-7.6015,-7.6015,-7.6015,-7.6015,-7.6015,-7.6015,-7.6015,-7.6015,-7.6015,-7.6015,-7.6015,-7.6015,-7.6015,-7.6015,-7.6015,-7.6015,-7.6015,-7.6015,-7.6015,-7.6015,-7.6015,-7.6015,-7.6245,-7.6861,-7.6899,-7.7246,-7.8092,-7.8707,-7.9554,-8.0669,-8.0708,-8.0823,-8.1093,-8.1093,-8.1093,-8.1093,-8.1093,-8.1093,-8.1093,-8.1093,-8.1093,-8.1093,-8.1093,-8.1093,-8.1093,-8.1093,-8.1093,-8.1093,-8.1093,-8.1093,-8.1093,-8.1093,-8.1093,-8.1093,-8.1093,-8.1093,-8.1093,-8.0323,-7.99,-7.9515,-7.9515,-7.9515,-7.9515,-7.9515,-7.9515,-7.9515,-7.9515,-7.9515,-7.9515,-7.9515,-7.9515,-7.9515,-7.9515,-7.9515,-7.9546,-7.9576,-7.9605,-7.9649,-7.9692,-7.9816,-7.961,-7.8991,-7.8977,-7.8757,-7.8216,-7.8216,-7.7933,-7.7406,-7.743,-7.7391,-7.7406,-7.743,-7.7391,-7.7406,-7.7406,-7.7355,-7.7279,-7.6932,-7.6739,-7.6675,-7.6326,-7.6118,-7.6048,-7.6048,-7.602,-7.6015,-7.6015,-7.6015,-7.6015,-7.6015,-7.6015,-7.6015,-7.6015,-7.6015,-7.6015,-7.6015,-7.6015,-7.6015,-7.6015,-7.6015,-7.6015,-7.6015,-7.6015,-7.6015,-7.6015,-7.6015,-7.6015,-7.6015,-7.6015,-7.6015,-7.6015,-7.6015,-7.6015,-7.6015,-7.6015,-7.613,-7.6476,-7.6515,-7.6861,-7.7669,-7.7746,-7.813,-7.8938,-7.9823,-8.0554,-8.1054,-8.1093,-8.1093,-8.1093,-8.1093,-8.1093,-8.1093,-8.1093,-8.1093,-8.1093,-8.1093,-8.1093,-8.1093,-8.1093,-8.1093,-8.1093,-8.1093,-8.1093,-8.1093,-8.1093,-8.1093,-8.1093,-8.1093,-8.1093,-8.1093,-8.1093,-8.1093,-8.1093,-8.1093,-8.1093,-8.1093,-8.1093,-8.1093,-8.1093,-8.1093,-8.1093,-8.1093,-8.1093,-8.1093,-8.1093,-8.1093,-8.1093,-8.1093,-8.1093,-8.1093,-8.1093,-8.1093,-8.1169,-8.1199,-8.1199,-8.1273,-8.0611,-7.9134,-7.9172,-7.917,-7.9093,-7.9093,-7.9017,-7.8889,-7.894,-7.894,-7.8876,-7.894,-7.894,-7.8876,-7.8876,-7.8798,-7.8629,-7.7883,-7.7572,-7.7424,-7.663,-7.6279,-7.6207,-7.6207,-7.6169,-7.6092,-7.6015,-7.6015,-7.6015,-7.6015,-7.6015,-7.6015,-7.6015,-7.6015,-7.6015,-7.6015,-7.6015,-7.6015,-7.6015,-7.6015,-7.6015,-7.6015,-7.6015,-7.6015,-7.6015,-7.6015,-7.6015,-7.6015,-7.6015,-7.6015,-7.6015,-7.6053,-7.613,-7.613,-7.6169,-7.6515,-7.7323,-7.74,-7.7707,-7.8515,-7.8669,-7.9054,-7.9862,-8.0669,-8.1093,-8.1093,-8.1093,-8.1093,-8.1093,-8.1093,-8.1093,-8.1093,-8.1093,-8.1093,-8.1093,-8.1093,-8.1093,-8.1093,-8.1093,-8.1093,-8.1093,-8.1093,-8.1093,-8.1093,-8.1093,-8.1093,-8.1093,-8.1093,-8.1093,-8.1093,-8.1093,-8.1093,-8.1093,-8.1093,-8.1093,-8.1093,-8.1093,-8.1093,-8.1093,-8.1093,-8.1093,-8.1093,-8.1093,-8.1093,-8.1093,-8.1093,-8.1093,-8.1093,-8.1093,-8.1093,-8.1093,-8.1093,-8.1108,-8.1124,-8.1124,-8.1199,-8.1051,-8.0719,-8.0751,-8.0472,-7.9881,-7.9816,-7.9468,-7.8889,-7.8812,-7.8747,-7.872,-7.8747,-7.8747,-7.872,-7.872,-7.872,-7.8693,-7.8444,-7.8325,-7.831,-7.806,-7.7953,-7.7938,-7.7938,-7.7553,-7.6899,-7.6245,-7.6015,-7.6015,-7.6015,-7.6015,-7.6015,-7.6015,-7.6015,-7.6015,-7.6015,-7.6015,-7.6015,-7.6015,-7.6015,-7.6015,-7.6015,-7.6015,-7.6015,-7.6015,-7.6015,-7.6015,-7.6015,-7.6015,-7.6015,-7.6015,-7.6553,-7.7015,-7.7015,-7.7553,-7.8015,-7.8207,-7.8246,-7.8592,-7.9438,-8.0131,-8.0592,-8.0785,-8.0977,-8.1093,-8.1093,-8.1093,-8.1093,-8.1093,-8.1093,-8.1093,-8.1093,-8.1093,-8.1093,-8.1093,-8.1093,-8.1093,-8.1093,-8.1093,-8.1093,-8.1093,-8.1093,-8.1093,-8.1093,-8.1093,-8.1093,-8.1093,-8.1093,-8.1093,-8.1093,-8.1093,-8.1093,-8.1208,-8.1093,-8.1093,-8.1093,-8.1093,-8.1093,-8.1093,-8.1093,-8.1093,-8.1093,-8.1093,-8.1093,-8.1093,-8.1093,-8.1093,-8.1093,-8.1093,-8.1093,-8.1093,-8.1093,-8.1093,-8.1093,-8.1093,-8.1139,-8.1154,-8.1154,-8.1199,-8.1041,-8.069,-8.0649,-8.0404,-7.9979,-7.9979,-7.9913,-7.9885,-7.9927,-7.9913,-7.9885,-7.9885,-7.9856,-7.9827,-7.936,-7.9191,-7.9099,-7.8684,-7.8477,-7.8477,-7.8477,-7.8222,-7.7784,-7.7361,-7.7169,-7.7169,-7.7169,-7.7169,-7.7169,-7.7169,-7.7169,-7.7169,-7.7169,-7.7169,-7.7169,-7.7169,-7.7169,-7.6976,-7.6169,-7.6015,-7.6015,-7.6015,-7.6015,-7.613,-7.6553,-7.663,-7.6746,-7.713,-7.7592,-7.7861,-7.7861,-7.8207,-7.8631,-7.9054,-7.9131,-7.9477,-8.0323,-8.0823,-8.1093,-8.1093,-8.1093,-8.1093,-8.1093,-8.1093,-8.1093,-8.1093,-8.1093,-8.1093,-8.1093,-8.1093,-8.1093,-8.1093,-8.1093,-8.1093,-8.1093,-8.1093,-8.1093,-8.1093,-8.1093,-8.1093,-8.1093,-8.1093,-8.1093,-8.1093,-8.1093,-8.1093,-8.1093,-8.1093,-8.1323,-8.1785,-8.1093,-8.1093,-8.1093,-8.1093,-8.1093,-8.1093,-8.1093,-8.1093,-8.1093,-8.1093,-8.1093,-8.1093,-8.1093,-8.1093,-8.1093,-8.1093,-8.1093,-8.1093,-8.1093,-8.1093,-8.1093,-8.1093,-8.1093,-8.1093,-8.1093,-8.1093,-8.1169,-8.1263,-8.1249,-8.122,-8.1214,-8.1258,-8.1258,-8.1199,-8.122,-8.122,-8.1199,-8.1199,-8.1154,-8.1054,-8.0323,-8.0015,-7.9939,-7.9208,-7.8938,-7.8938,-7.8938,-7.8861,-7.8707,-7.8554,-7.8477,-7.8477,-7.8477,-7.8477,-7.8477,-7.8477,-7.8477,-7.8477,-7.8477,-7.8477,-7.8477,-7.8477,-7.8477,-7.813,-7.6746,-7.6438,-7.6438,-7.6438,-7.6438,-7.663,-7.7361,-7.7515,-7.7707,-7.84,-7.8631,-7.8707,-7.8707,-7.8861,-7.9208,-7.9939,-8.0015,-8.0323,-8.1016,-8.1093,-8.1093,-8.1093,-8.1093,-8.1093,-8.1093,-8.1093,-8.1093,-8.1093,-8.1093,-8.1093,-8.1093,-8.1093,-8.1093,-8.1093,-8.1093,-8.1093,-8.1093,-8.1093,-8.1093,-8.1093,-8.1093,-8.1093,-8.1093,-8.1093,-8.1093,-8.1093,-8.1093,-8.117,-8.1323,-8.1477,-8.1939,-8.2631,-8.1093,-8.1093,-8.1093,-8.1093,-8.1093,-8.1093,-8.1093,-8.1093,-8.1093,-8.1093,-8.1093,-8.1093,-8.1093,-8.1093,-8.1093,-8.1093,-8.1093,-8.1093,-8.1093,-8.1093,-8.1093,-8.1093,-8.1093,-8.1093,-8.1093,-8.1093,-8.1139,-8.1229,-8.1154,-8.1154,-8.1214,-8.1154,-8.1124,-8.1108,-8.1124,-8.1124,-8.1108,-8.1108,-8.1108,-8.1093,-8.0977,-8.0939,-8.09,-8.0785,-8.0746,-8.0746,-8.0746,-8.0246,-7.9515,-7.8746,-7.8477,-7.8477,-7.8477,-7.8477,-7.8477,-7.8477,-7.8477,-7.8477,-7.8477,-7.8477,-7.8477,-7.8477,-7.8477,-7.8438,-7.8207,-7.8169,-7.8169,-7.8169,-7.8169,-7.8207,-7.8323,-7.8323,-7.8361,-7.8477,-7.9131,-7.9631,-7.9631,-8.0285,-8.0785,-8.09,-8.0939,-8.0977,-8.1093,-8.1093,-8.1093,-8.1093,-8.1093,-8.1093,-8.1093,-8.1093,-8.1093,-8.1093,-8.1093,-8.1093,-8.1093,-8.1093,-8.1093,-8.1093,-8.1093,-8.1093,-8.1093,-8.1093,-8.1093,-8.1093,-8.1093,-8.1093,-8.1093,-8.1093,-8.1093,-8.1093,-8.1093,-8.1516,-8.2247,-8.2978,-8.3324,-8.3555,-8.1093,-8.1093,-8.1093,-8.1093,-8.1093,-8.1093,-8.1093,-8.1093,-8.1093,-8.1093,-8.1093,-8.1093,-8.1093,-8.1093,-8.1093,-8.1093,-8.1093,-8.1093,-8.1093,-8.1093,-8.1093,-8.1093,-8.1093,-8.1093,-8.1093,-8.1093,-8.1108,-8.1139,-8.1108,-8.1108,-8.1139,-8.1108,-8.1093,-8.1093,-8.1093,-8.1093,-8.1093,-8.1093,-8.1093,-8.1093,-8.1093,-8.1093,-8.1093,-8.1093,-8.1093,-8.1093,-8.1093,-8.0862,-8.0477,-8.0092,-7.9939,-7.9939,-7.9939,-7.9939,-7.9939,-7.9939,-7.9939,-7.9939,-7.9939,-7.9939,-7.9939,-7.9939,-7.9939,-7.9939,-7.9939,-7.9939,-7.9669,-7.8707,-7.8477,-7.8631,-7.9131,-7.9246,-7.94,-7.9862,-8.0285,-8.0516,-8.0516,-8.0862,-8.1093,-8.1093,-8.1093,-8.1093,-8.1093,-8.1093,-8.1093,-8.1093,-8.1093,-8.1093,-8.1093,-8.1093,-8.1093,-8.1093,-8.1093,-8.1093,-8.1093,-8.1093,-8.1093,-8.1093,-8.1093,-8.1093,-8.1093,-8.1093,-8.1093,-8.1093,-8.1093,-8.1093,-8.1093,-8.1093,-8.1362,-8.1785,-8.1785,-8.2285,-8.3131,-8.4016,-8.4324,-8.4439]},{"header":{"parameterUnit":"m.s-1","parameterCategory":1,"la1":30.6,"la2":28.766,"lo1":-90.7593,"lo2":-88.6598,"dy":0.0162,"dx":0.0183,"nx":116,"ny":114,"refTime":"2024-02-22T18:00:00:Z","depth":0,"parameterNumber":3,"parameterNumberName":"V-component_of_WINDS"},"data":[0.0,0.0,0.0,0.0,0.0,0.0,0.0,0.0,0.0,0.0,0.0,0.0,0.0,0.0,0.0,0.0,0.0,0.0,0.0,0.0,0.0,0.0,0.0,0.0,0.0,0.0,0.0,0.0,0.0,0.0,0.0,0.0,0.0,0.0,0.0,0.0,0.0,0.0,0.0,0.0,0.0,0.0,0.0,0.0,0.0,0.0,0.0,0.0,0.0,0.0,0.0,0.0,0.0,0.0,0.0,0.0,0.0,0.0,0.0,0.0,0.0,0.0,0.0,0.0,0.0,0.0,0.0,0.0,0.0,0.0,0.0,0.0,0.0,0.0,0.0,0.0,0.0,0.0,0.0,0.0,0.0,0.0,0.0,0.0,0.0,0.0,0.0,0.0,0.0,0.0,0.0,0.0,0.0,0.0,0.0,0.0,0.0,0.0,0.0,0.0,0.0,0.0,0.0,0.0,0.0,0.0,0.0,0.0,0.0,0.0,0.0,0.0,0.0,0.0,0.0,0.0,0.0,0.0,0.0,0.0,0.0,0.0,0.0,0.0,0.0,0.0,0.0,0.0,0.0,0.0,0.0,0.0,0.0,0.0,0.0,0.0,0.0,0.0,0.0,0.0,0.0,0.0,0.0,0.0,0.0,0.0,0.0,0.0,0.0,0.0,0.0,0.0,0.0,0.0,0.0,0.0,0.0,0.0,0.0,0.0,0.0,0.0,0.0,0.0,0.0,0.0,0.0,0.0,0.0,0.0,0.0,0.0,0.0,0.0,0.0,0.0,0.0,0.0,0.0,0.0,0.0,0.0,0.0,0.0,0.0,0.0,0.0,0.0,0.0,0.0,0.0,0.0,0.0,0.0,0.0,0.0,0.0,0.0,0.0,0.0,0.0,0.0,0.0,0.0,0.0,0.0,0.0,0.0,0.0,0.0,0.0,0.0,0.0,0.0,0.0,0.0,0.0,0.0,0.0,0.0,0.0,0.0,0.0,0.0,0.0,0.0,0.0,0.0,0.0,0.0,0.0,0.0,0.0,0.0,0.0,0.0,0.0,0.0,0.0,0.0,0.0,0.0,0.0,0.0,0.0,0.0,0.0,0.0,0.0,0.0,0.0,0.0,0.0,0.0,0.0,0.0,0.0,0.0,0.0,0.0,0.0,0.0,0.0,0.0,0.0,0.0,0.0,0.0,0.0,0.0,0.0,0.0,0.0,0.0,0.0,0.0,0.0,0.0,0.0,0.0,0.0,0.0,0.0,0.0,0.0,0.0,0.0,0.0,0.0,0.0,0.0,0.0,0.0,0.0,0.0,0.0,0.0,0.0,0.0,0.0,0.0,0.0,0.0,0.0,0.0,0.0,0.0,0.0,0.0,0.0,0.0,0.0,0.0,0.0,0.0,0.0,0.0,0.0,0.0,0.0,0.0,0.0,0.0,0.0,0.0,0.0,0.0,0.0,0.0,0.0,0.0,0.0,0.0,0.0,0.0,0.0,0.0,0.0,0.0,0.0,0.0,0.0,0.0,0.0,0.0,0.0,0.0,0.0,0.0,0.0,0.0,0.0,0.0,0.0,0.0,0.0,0.0,0.0,0.0,0.0,0.0,0.0,0.0,0.0,0.0,0.0,0.0,0.0,0.0,0.0,0.0,0.0,0.0,0.0,0.0,0.0,0.0,0.0,0.0,0.0,0.0,0.0,0.0,0.0,0.0,0.0,0.0,0.0,0.0,0.0,0.0,0.0,0.0,0.0,0.0,0.0,0.0,0.0,0.0,0.0,0.0,0.0,0.0,0.0,0.0,0.0,0.0,0.0,0.0,0.0,0.0,0.0,0.0,0.0,0.0,0.0,0.0,0.0,0.0,0.0,0.0,0.0,0.0,0.0,0.0,0.0,0.0,0.0,0.0,0.0,0.0,0.0,0.0,0.0,0.0,0.0,0.0,0.0,0.0,0.0,0.0,0.0,0.0,0.0,0.0,0.0,0.0,0.0,0.0,0.0,0.0,0.0,0.0,0.0,0.0,0.0,0.0,0.0,0.0,0.0,0.0,0.0,0.0,0.0,0.0,0.0,0.0,0.0,0.0,0.0,0.0,0.0,0.0,0.0,0.0,0.0,0.0,0.0,0.0,0.0,0.0,0.0,0.0,0.0,0.0,0.0,0.0,0.0,0.0,0.0,0.0,0.0,0.0,0.0,0.0,0.0,0.0,0.0,0.0,0.0,0.0,0.0,0.0,0.0,0.0,0.0,0.0,0.0,0.0,0.0,0.0,0.0,0.0,0.0,0.0,0.0,0.0,0.0,0.0,0.0,0.0,0.0,0.0,0.0,0.0,0.0,0.0,0.0,0.0,0.0,0.0,0.0,0.0,0.0,0.0,0.0,0.0,0.0,0.0,0.0,0.0,0.0,0.0,0.0,0.0,0.0,0.0,0.0,0.0,0.0,0.0,0.0,0.0,0.0,0.0,0.0,0.0,0.0,0.0,0.0,0.0,0.0,0.0,0.0,0.0,0.0,0.0,0.0,0.0,0.0,0.0,0.0,0.0,0.0,0.0,0.0,0.0,0.0,0.0,0.0,0.0,0.0,0.0,0.0,0.0,0.0,0.0,0.0,0.0,0.0,0.0,0.0,0.0,0.0,0.0,0.0,0.0,0.0,0.0,0.0,0.0,0.0,0.0,0.0,0.0,0.0,0.0,0.0,0.0,0.0,0.0,0.0,0.0,0.0,0.0,0.0,0.0,0.0,0.0,0.0,0.0,0.0,0.0,0.0,0.0,0.0,0.0,0.0,0.0,0.0,0.0,0.0,0.0,0.0,0.0,0.0,0.0,0.0,0.0,0.0,0.0,0.0,0.0,0.0,0.0,0.0,0.0,0.0,0.0,0.0,0.0,0.0,0.0,0.0,0.0,0.0,0.0,0.0,0.0,0.0,0.0,0.0,0.0,0.0,0.0,0.0,0.0,0.0,0.0,0.0,0.0,0.0,0.0,0.0,0.0,0.0,0.0,0.0,0.0,0.0,0.0,0.0,0.0,0.0,0.0,0.0,0.0,0.0,0.0,0.0,0.0,0.0,0.0,0.0,0.0,0.0,0.0,0.0,0.0,0.0,0.0,0.0,0.0,0.0,0.0,0.0,0.0,0.0,0.0,0.0,0.0,0.0,0.0,0.0,0.0,0.0,0.0,0.0,0.0,0.0,0.0,0.0,0.0,0.0,0.0,0.0,0.0,0.0,0.0,0.0,0.0,0.0,0.0,0.0,0.0,0.0,0.0,0.0,0.0,0.0,0.0,0.0,0.0,0.0,0.0,0.0,0.0,0.0,0.0,0.0,0.0,0.0,0.0,0.0,0.0,0.0,0.0,0.0,0.0,0.0,0.0,0.0,0.0,0.0,0.0,0.0,0.0,0.0,0.0,0.0,0.0,0.0,0.0,0.0,0.0,0.0,0.0,0.0,0.0,0.0,0.0,0.0,0.0,0.0,0.0,0.0,0.0,0.0,0.0,0.0,0.0,0.0,0.0,0.0,0.0,0.0,0.0,0.0,0.0,0.0,0.0,0.0,0.0,0.0,0.0,0.0,0.0,0.0,0.0,0.0,0.0,0.0,0.0,0.0,0.0,0.0,0.0,0.0,0.0,0.0,0.0,0.0,0.0,0.0,0.0,0.0,0.0,0.0,0.0,0.0,0.0,0.0,0.0,0.0,0.0,0.0,0.0,0.0,0.0,0.0,0.0,0.0,0.0,0.0,0.0,0.0,0.0,0.0,0.0,0.0,0.0,0.0,0.0,0.0,0.0,0.0,0.0,0.0,0.0,0.0,0.0,0.0,0.0,0.0,0.0,0.0,0.0,0.0,0.0,0.0,0.0,0.0,0.0,0.0,0.0,0.0,0.0,0.0,0.0,0.0,0.0,0.0,0.0,0.0,0.0,0.0,0.0,0.0,0.0,0.0,0.0,0.0,0.0,0.0,0.0,0.0,0.0,0.0,0.0,0.0,0.0,0.0,0.0,0.0,0.0,0.0,0.0,0.0,0.0,0.0,0.0,0.0,0.0,0.0,0.0,0.0,0.0,0.0,0.0,0.0,0.0,0.0,0.0,0.0,0.0,0.0,0.0,0.0,0.0,0.0,0.0,0.0,0.0,0.0,0.0,0.0,0.0,0.0,0.0,0.0,0.0,0.0,0.0,0.0,0.0,0.0,0.0,0.0,0.0,0.0,0.0,0.0,0.0,0.0,0.0,0.0,0.0,0.0,0.0,0.0,0.0,0.0,0.0,0.0,0.0,0.0,0.0,0.0,0.0,0.0,0.0,0.0,0.0,0.0,0.0,0.0,0.0,0.0,0.0,0.0,0.0,0.0,0.0,0.0,0.0,0.0,0.0,0.0,0.0,0.0,0.0,0.0,0.0,0.0,0.0,0.0,0.0,0.0,0.0,0.0,0.0,0.0,0.0,0.0,0.0,0.0,0.0,0.0,0.0,0.0,0.0,0.0,0.0,0.0,0.0,0.0,0.0,0.0,0.0,0.0,0.0,0.0,0.0,0.0,0.0,0.0,0.0,0.0,0.0,0.0,0.0,0.0,0.0,0.0,0.0,0.0,0.0,0.0,0.0,0.0,0.0,0.0,0.0,0.0,0.0,0.0,0.0,0.0,0.0,0.0,0.0,0.0,0.0,0.0,0.0,0.0,0.0,0.0,0.0,0.0,0.0,0.0,0.0,0.0,0.0,0.0,0.0,0.0,0.0,0.0,0.0,0.0,0.0,0.0,0.0,0.0,0.0,0.0,0.0,0.0,0.0,0.0,0.0,0.0,0.0,0.0,0.0,0.0,0.0,0.0,0.0,0.0,0.0,0.0,0.0,0.0,0.0,0.0,0.0,0.0,0.0,0.0,0.0,0.0,0.0,0.0,0.0,0.0,0.0,0.0,0.0,0.0,0.0,0.0,0.0,0.0,0.0,0.0,0.0,0.0,0.0,0.0,0.0,0.0,0.0,0.0,0.0,0.0,0.0,0.0,0.0,0.0,0.0,0.0,0.0,0.0,0.0,0.0,0.0,0.0,0.0,0.0,0.0,0.0,0.0,0.0,0.0,0.0,0.0,0.0,0.0,0.0,0.0,0.0,0.0,0.0,0.0,0.0,0.0,0.0,0.0,0.0,0.0,0.0,0.0,0.0,0.0,0.0,0.0,0.0,0.0,0.0,0.0,0.0,0.0,0.0,0.0,0.0,0.0,0.0,0.0,0.0,0.0,0.0,0.0,0.0,0.0,0.0,0.0,0.0,0.0,0.0,0.0,0.0,0.0,0.0,0.0,0.0,0.0,0.0,0.0,0.0,0.0,0.0,0.0,0.0,0.0,0.0,0.0,0.0,0.0,0.0,0.0,0.0,0.0,0.0,0.0,0.0,0.0,0.0,0.0,0.0,0.0,0.0,0.0,0.0,0.0,0.0,0.0,0.0,0.0,0.0,0.0,0.0,0.0,0.0,0.0,0.0,0.0,0.0,0.0,0.0,0.0,0.0,0.0,0.0,0.0,0.0,0.0,0.0,0.0,0.0,0.0,0.0,0.0,0.0,0.0,0.0,0.0,0.0,0.0,0.0,0.0,0.0,0.0,0.0,0.0,0.0,0.0,0.0,0.0,0.0,0.0,0.0,0.0,0.0,0.0,0.0,0.0,0.0,0.0,0.0,0.0,0.0,0.0,0.0,0.0,0.0,0.0,0.0,0.0,0.0,0.0,0.0,0.0,0.0,0.0,0.0,0.0,0.0,0.0,0.0,0.0,0.0,0.0,0.0,0.0,0.0,0.0,0.0,0.0,0.0,0.0,0.0,0.0,0.0,0.0,0.0,0.0,0.0,0.0,0.0,0.0,0.0,0.0,0.0,0.0,0.0,0.0,0.0,0.0,0.0,0.0,0.0,0.0,0.0,0.0,0.0,0.0,0.0,0.0,0.0,0.0,0.0,0.0,0.0,0.0,0.0,0.0,0.0,0.0,0.0,0.0,0.0,0.0,0.0,0.0,0.0,0.0,0.0,0.0,0.0,0.0,0.0,0.0,0.0,0.0,0.0,0.0,0.0,0.0,0.0,0.0,0.0,0.0,0.0,0.0,0.0,0.0,0.0,0.6865,0.5297,0.0,0.0,0.0,0.0,0.0,0.0,0.0,0.0,0.0,0.0,0.0,0.0,0.0,0.0,0.0,0.0,0.0,0.0,0.0,0.0,0.0,0.0,0.0,0.0,0.0,0.0,-1.0737,-1.0737,-1.0737,-1.0737,-1.0737,-1.0737,-0.7296,-0.5371,-0.5371,-0.1849,0.0,0.0,0.0,0.0,0.0,0.0,0.0,-0.0084,0.0,0.0,0.0,0.0,0.0,0.0,0.0,0.0,0.0,0.0,0.0,0.0,0.0,0.0,0.0,0.0,0.0,0.0,0.0,0.0,0.0,0.0,0.0,0.0,0.0,0.0,0.0,0.0,0.0,0.0,0.0,0.0,0.0,0.0,0.0,0.0,0.0,0.0,0.0,0.0,0.0,0.0,0.0,0.0,0.0,0.0,0.0,0.0,0.0,0.0,0.0,0.0,0.0,0.0,0.0,0.0,0.0,0.0,0.0,0.0,0.0,0.0,0.0,0.0,0.0,0.0,0.0,0.0,0.0,0.0,0.9377,0.7991,0.0,0.0,0.0,0.0,0.0,0.0,0.0,0.0,0.0,0.0,0.0,0.0,0.0,0.0,0.0,0.0,0.0,0.0,0.0,0.0,0.0,0.0,0.0,-1.0737,-1.0737,-1.0737,-1.0737,-1.0737,-1.0737,-1.0737,-1.0737,-1.0737,-0.7296,-0.5371,-0.5371,-0.1849,0.0,0.0,0.0,0.0,0.0,0.0,0.0,-0.0084,-0.1598,0.0,0.0,0.0,0.0,0.0,0.0,0.0,0.0,0.0,0.0,0.0,0.0,0.0,0.0,0.0,0.0,0.0,0.0,0.0,0.0,0.0,0.0,0.0,0.0,0.0,0.0,0.0,0.0,0.0,0.0,0.0,0.0,0.0,0.0,0.0,0.0,0.0,0.0,0.0,0.0,0.0,0.0,0.0,0.0,0.0,0.0,0.0,0.0,0.0,0.0,0.0,0.0,0.0,0.0,0.0,0.0,0.0,0.0,0.0,0.0,0.0,0.0,0.0,0.9749,1.0595,1.0726,1.1112,1.158,1.1901,1.1748,1.077,0.9361,0.9361,0.0,0.0,0.0,0.0,0.0,0.0,0.0,0.0,0.0,0.0,0.0,0.0,0.0,0.0,0.0,0.0,0.0,0.0,0.0,0.0,0.0,-1.0737,-1.0737,-1.0737,-1.0737,-1.0737,-1.0737,-1.0737,-1.0737,-1.0737,-0.7296,-0.5371,-0.5371,-0.1849,0.0,0.0,0.0,0.0,0.0,0.0,0.0,0.0,-0.0253,0.0,0.0,0.0,0.0,0.0,0.0,0.0,0.0,0.0,0.0,0.0,0.0,0.0,0.0,0.0,0.0,0.0,0.0,0.0,0.0,0.0,0.0,0.0,0.0,0.0,0.0,0.0,0.0,0.0,0.0,0.0,0.0,0.0,0.0,0.0,0.0,0.0,0.0,0.0,0.0,0.0,0.0,0.0,0.0578,0.196,0.0,0.0,0.0,0.0,0.0,0.0,0.0,0.0,0.0,0.0,0.0,0.0,0.0,0.9334,0.9334,0.9558,0.9816,1.002,1.0332,1.0726,1.1289,1.1364,1.1671,1.2046,1.2012,0.0,1.152,1.152,0.0,0.0,0.0,0.0,0.0,0.0,0.0,0.0,0.0,0.0,0.0,0.0,0.0,0.0,0.0,0.0,0.0,0.0,0.0,0.0,0.0,-1.0737,-1.0737,-1.0737,-1.0737,-1.0737,-1.0737,-1.0737,-1.0232,-0.9309,-0.6794,-0.4952,-0.3946,-0.1346,0.0,0.0,0.0,0.0,0.0,0.0,0.0,0.0,0.0,0.0,-0.0084,-0.0842,0.0,0.0,0.0,0.0,0.0,0.0,0.0,0.0,0.0,0.0,0.0,0.0,0.0,0.0,0.0,0.0,0.0,0.0,0.0,0.0,0.0,0.0,0.0,0.0,0.0,0.0,0.0,0.0,0.0,0.0,0.0,0.0,0.0,0.0,0.0,0.0,0.0,0.0,0.0,0.0822,0.1716,0.2437,0.3327,0.4208,0.0,0.0,0.0,0.0,0.0,0.0,0.0,0.0,0.0,0.875,0.9437,0.9824,0.9824,1.0052,1.0176,1.0277,1.073,1.1145,1.1388,1.1687,1.1911,1.2135,1.2135,1.206,1.203,1.203,1.1878,1.1719,0.0,0.0,0.0,0.0,1.228,1.2549,0.0,0.0,0.0,0.0,0.0,0.0,0.0,0.0,0.0,0.0,0.0,0.0,-1.0737,-1.0737,-1.0737,-1.0737,-1.0737,-1.0737,-1.0737,-1.0737,-0.9898,-0.8136,-0.6356,-0.4514,-0.2761,-0.0921,0.0,0.0,0.0,0.0,0.0,0.0,0.0,0.0,0.0,0.0,0.0,0.0,-0.0757,0.0,0.0,0.0,0.0,0.0,0.0,0.0,0.0,0.0,0.0,0.0,0.0,0.0,0.0,0.0,0.0,0.0,0.0,0.0,0.0,0.0,0.0,0.0,0.0,0.0,0.0,0.0,0.0,0.0,0.0,0.0,0.0,0.0,0.0,0.0,0.0,0.0,0.0,0.1698,0.2825,0.3701,0.4904,0.5845,0.0,0.0,0.0,0.0,0.0,0.0,0.972,0.9796,0.9758,0.9671,0.9816,0.9816,0.9816,1.0191,1.0398,1.0437,1.1033,1.1386,1.1427,1.1797,1.1952,1.1952,1.1952,1.1952,1.1952,1.2033,1.2135,1.2135,1.2135,1.2135,1.223,1.223,1.2298,1.2433,0.0,0.0,0.0,0.0,0.0,0.0,0.0,0.0,0.0,0.0,0.0,-1.0737,-1.0737,-1.0737,-1.0737,-1.0737,-1.0737,-1.0737,-1.0737,-1.0737,-0.9898,-0.8136,-0.6394,-0.4544,-0.2729,-0.0911,0.0,0.0,0.0,0.0,0.0,0.0,0.0,0.0,0.0,0.0,0.0,0.0,-0.0084,-0.0252,0.0,0.0,0.0,0.0,0.0,0.0,0.0,0.0,0.0,0.0,0.0,0.0,0.0,0.0,0.0,0.0,0.0,0.0,0.0,0.0,0.0,0.0,0.0,0.0,0.0,0.0,0.0,0.0,0.0,0.0,0.0,0.0,0.0,0.0,0.0,0.0,0.0,0.0,0.0,0.6833,0.7295,0.0,0.0,0.0,0.0,0.9693,0.9596,0.9607,0.9677,0.9677,0.9677,0.9671,1.0041,1.0191,1.0191,1.0565,1.0872,1.1183,1.1183,1.1332,1.1568,1.164,1.164,1.164,1.164,1.164,1.1667,1.1945,1.2135,1.2135,1.2135,1.2067,1.2074,1.2074,1.2081,1.2128,0.0,0.0,0.0,0.0,0.0,0.0,0.0,0.0,-1.1188,-1.1112,-1.096,-1.0824,-1.0742,-1.0737,-1.0737,-1.0737,-1.0737,-1.0737,-1.0737,-1.0737,-0.9364,-0.6473,-0.5704,-0.4044,-0.0992,-0.0331,0.0,0.0,0.0,0.0,0.0,0.0,0.0,0.0,0.0,0.0,0.0,0.0,0.0,-0.0082,-0.0738,-0.1635,0.0,0.0,0.0,0.0,0.0,0.0,0.0,0.0,0.0,0.0,0.0,0.0,0.0,0.0,0.0,0.0,0.0,0.0,0.0,0.0,0.0,0.0,0.0,0.0,0.0,0.0,0.0,0.0,0.0,0.0,0.0,0.0,0.0,0.0,0.0,0.0,0.0,0.7361,0.8393,0.0,0.9823,0.9796,0.9731,0.9731,0.9693,0.9633,0.9557,0.9552,0.9514,0.9438,0.9798,1.0018,1.0018,1.0608,1.0948,1.1042,1.1332,1.1523,1.1619,1.1619,1.1619,1.1619,1.1619,1.1619,1.1626,1.1735,1.1775,1.1775,1.1775,1.1837,1.1911,1.1911,1.1979,1.2169,0.0,0.0,0.0,0.0,0.0,0.0,0.0,0.0,-1.1243,-1.1166,-1.102,-1.0889,-1.0808,-1.0764,-1.0737,-1.0737,-1.0737,-1.0737,-1.0737,-1.0737,-0.9096,-0.5531,-0.4194,-0.2469,-0.0083,0.0,0.0,0.0,0.0,0.0,0.0,0.0,0.0,0.0,0.0,0.0,0.0,0.0,0.0,0.0,0.0,-0.0727,-0.1696,0.0,0.0,0.0,0.0,0.0,0.0,0.0,0.0,0.0,0.0,0.0,0.0,0.0,0.0,0.0,0.0,0.0,0.0,0.0,0.0,0.0,0.0,0.0,0.0,0.0,0.0,0.0,0.0,0.0,0.0,0.0,0.0,0.0,0.0,0.568,0.7615,0.8202,0.9137,0.978,0.978,0.9677,0.9606,0.9606,0.9568,0.9508,0.9427,0.9427,0.9462,0.9524,0.9879,1.0167,1.0245,1.0894,1.1188,1.1188,1.1476,1.1619,1.1619,1.1619,1.1619,1.1619,1.1619,1.1619,1.1619,1.1619,1.1619,1.1619,1.1619,1.1681,1.1762,1.1762,1.1823,1.1938,0.0,0.0,0.0,0.0,0.0,0.0,0.0,-1.1351,-1.1275,-1.127,-1.1074,-1.0927,-1.0922,-1.0813,-1.0742,-1.0737,-1.0737,-1.0737,-1.0737,-1.0737,-0.9096,-0.5531,-0.1962,0.0,0.0,0.0,0.0,0.0,0.0,0.0,0.0,0.0,0.0,0.0,0.0,0.0,0.0,0.0,0.0,0.0,0.0,0.0,0.0,0.0,0.0,0.0,0.0,0.0,0.0,0.0,0.0,0.0,0.0,0.0,0.0,0.0,0.0,0.0,0.0,0.0,0.0,0.0,0.0,0.0,0.0,0.0,0.0,0.0,0.0,0.0,0.0,0.0,0.0,0.0,0.0,0.0,0.4842,0.6298,0.7955,0.9532,0.9666,0.9666,0.9666,0.9552,0.9481,0.9481,0.9372,0.9302,0.9302,0.9302,0.9518,0.9879,1.0311,1.0678,1.0972,1.1404,1.1619,1.1619,1.1619,1.1619,1.1619,1.1619,1.1619,1.1619,1.1619,1.1619,1.1619,1.1619,1.1619,1.1619,1.1619,1.1619,1.1619,1.1619,1.1619,1.166,0.0,0.0,0.0,0.0,0.0,0.0,0.0,-1.1368,-1.1373,-1.1281,-1.1215,-1.1112,-1.0938,-1.0889,-1.0835,-1.0742,-1.0737,-1.0737,-1.0737,-1.0737,-0.9096,-0.5531,-0.1895,0.0,0.0,0.0,0.0,0.0,0.0,0.0,0.0,0.0,0.0,0.0,0.0,0.0,0.0,0.0,0.0,0.0,0.0,0.0,0.0,0.0,0.0,0.0,0.0,0.0,0.0,0.0,0.0,0.0,0.0,0.0,0.0,0.0,0.0,0.0,0.0,0.0,0.0,0.0,0.0,0.0,0.0,0.0,0.0,0.0,0.0,0.0,0.0,0.0,0.0,0.0,0.4704,0.6521,0.6521,0.7964,0.9171,0.9671,0.959,0.9536,0.9536,0.9427,0.9356,0.9356,0.9323,0.9446,0.9735,0.9735,0.9951,1.0311,1.0678,1.09,1.0972,1.1404,1.1619,1.1619,1.1619,1.1619,1.1619,1.1619,1.1619,1.1619,1.1619,1.1619,1.1619,1.1619,1.1619,1.1619,1.1619,1.1619,1.1619,1.1619,1.1619,1.166,0.0,0.0,0.0,0.0,0.0,0.0,0.0,-1.1378,-1.1427,-1.1357,-1.1302,-1.1199,-1.1014,-1.0949,-1.0873,-1.0748,-1.0737,-1.0737,-1.0737,-0.9267,-0.724,0.0,0.0,0.0,0.0,0.0,0.0,0.0,0.0,0.0,0.0,0.0,0.0,0.0,0.0,0.0,0.0,0.0,0.0,0.0,0.0,0.0,0.0,0.0,0.0,0.0,0.0,0.0,0.0,0.0,0.0,0.0,0.0,0.0,0.0,0.0,0.0,0.0,0.0,0.0,0.0,0.0,0.0,0.0,0.0,0.0,0.0,0.0,0.0,0.0,0.0,0.0,0.0,0.0,0.5469,0.7323,0.7952,0.8958,0.9574,0.9525,0.9454,0.941,0.941,0.9345,0.9374,0.9518,0.9518,0.9663,0.9879,1.0095,1.0239,1.0455,1.0822,1.1116,1.126,1.1476,1.1619,1.1619,1.1619,1.1619,1.1619,1.1619,1.1619,1.1619,1.1619,1.1619,1.1619,1.1619,1.1619,1.1619,0.0,0.0,0.0,0.0,1.1708,1.1748,0.0,0.0,0.0,0.0,0.0,0.0,0.0,-1.1357,-1.1438,-1.1543,-1.1362,-1.1248,-1.1134,-1.1014,-1.0889,-1.077,-1.0742,-1.0737,-1.0737,-0.7395,0.0,-0.3107,-0.1083,0.0,0.0,0.0,0.0,0.0,0.0,0.0,0.0,0.0,0.0,0.0,0.0,0.0,0.0,0.0,0.0,0.0,0.0,0.0,0.0,0.0,0.0,0.0,0.0,0.0,0.0,0.0,0.0,0.0,0.0,0.0,0.0,0.0,0.0,0.0,0.0,0.0,0.0,0.0,0.0,0.0,0.0,0.0,0.0,0.0,0.0,0.0,0.0,0.0,0.0,0.0,0.6282,0.7732,0.9101,0.94,0.9427,0.9318,0.9302,0.9302,0.9302,0.9374,0.9518,0.9807,0.9951,0.9951,0.9951,1.0311,0.0,0.0,0.0,1.126,1.1619,1.1619,1.1619,1.1619,1.1619,1.1619,1.1619,1.1619,1.1619,1.1619,1.1619,1.1619,1.1619,1.1619,1.1619,1.1619,1.1619,1.1619,1.1633,1.1762,1.1809,1.185,0.0,0.0,0.0,0.0,0.0,0.0,0.0,-1.1232,-1.134,-1.1533,-1.1522,-1.1373,-1.1253,-1.1134,-1.102,-1.0895,-1.0797,-1.0737,-1.0737,0.0,-0.5276,-0.4868,-0.1762,0.0,0.0,0.0,0.0,0.0,0.0,0.0,0.0,0.0,0.0,0.0,0.0,0.0,0.0,0.0,0.0,0.0,0.0,0.0,0.0,0.0,0.0,0.0,0.0,0.0,0.0,0.0,0.0,0.0,0.0,0.0,0.0,0.0,0.0,0.0,0.0,0.0,0.0,0.0,0.0,0.0,0.0,0.0,0.0,0.0,0.0,0.0,0.0,0.0,0.0,0.6286,0.7879,0.8967,0.9235,0.9323,0.9329,0.9307,0.9302,0.9302,0.9302,0.959,0.9663,0.9446,1.0023,1.0383,1.0383,1.0678,1.1044,1.1404,1.1476,1.1548,1.1619,1.1619,1.1619,1.1619,1.1619,0.0,1.1619,1.1619,1.1619,1.1619,1.1619,1.1619,1.1619,1.1619,1.1619,1.1619,1.1619,1.1619,1.1619,1.1647,1.166,1.1687,0.0,0.0,0.0,0.0,0.0,0.0,0.0,-1.1161,-1.1297,-1.1357,-1.1417,-1.1411,-1.1286,-1.1172,-1.1052,-1.0933,-1.0808,-1.0315,0.0,-0.7718,-0.5957,-0.4113,-0.2354,-0.0923,0.0,0.0,0.0,0.0,0.0,0.0,0.0,0.0,0.0,0.0,0.0,0.0,0.0,0.0,-0.0471,-0.1177,-0.0314,-0.0471,-0.1177,-0.0314,0.0,0.0,0.0,0.0,0.0,0.0,0.0,0.0,0.0,0.0,0.0,0.0,0.0,0.0,0.0,0.0,0.0,0.0,0.0,0.0,0.0,0.0,0.0,0.0,0.0,0.0448,0.199,0.0,0.5201,0.6769,0.8285,0.9302,0.9302,0.9446,0.9518,0.9302,0.9302,0.9374,0.959,0.9807,0.9951,1.0173,1.0534,1.075,1.075,1.1116,1.1332,1.1332,1.1476,1.1619,1.1619,1.1619,1.1619,1.1619,1.1619,1.1619,1.1619,1.1619,1.1619,1.1619,1.1619,1.1619,1.1619,1.1619,1.1619,1.1619,1.1619,1.1619,1.1626,1.1701,1.1728,1.1748,0.0,0.0,0.0,0.0,0.0,0.0,0.0,-1.1118,-1.1248,-1.127,-1.1378,-1.1417,-1.1319,-1.1204,-1.1079,-1.0933,-1.0808,0.0,0.0,-0.8303,-0.6794,-0.3862,-0.3108,-0.2017,-0.0589,-0.0167,0.0,0.0,0.0,0.0,0.0,0.0,0.0,0.0,0.0,0.0,0.0,0.0,-0.0785,-0.1881,-0.0549,-0.0785,-0.1881,-0.0549,0.0,0.0,0.0,0.0,0.0,0.0,0.0,0.0,0.0,0.0,0.0,0.0,0.0,0.0,0.0,0.0,0.0,0.0,0.0,0.0,0.0,0.0,0.0,0.0,0.0,0.0591,0.2407,0.3857,0.531,0.7123,0.8502,0.9302,0.9302,0.9663,0.9807,0.9446,0.9518,0.9663,0.9951,1.0095,1.0317,1.0894,1.1044,1.1116,1.0972,1.1404,1.1476,1.1116,1.1404,1.1619,1.1619,1.1619,1.1619,1.1619,1.1619,1.1619,1.1619,1.1619,1.1619,1.1619,1.1619,1.1619,1.1619,1.1619,1.1619,1.1619,1.1619,1.1619,1.1633,1.1748,1.1789,1.1809,0.0,0.0,0.0,0.0,0.0,0.0,0.0,0.0,-1.1156,-1.1259,-1.1378,-1.1449,-1.1438,-1.1324,-1.1161,-1.0938,0.0,0.0,-1.0398,-0.8975,-0.7885,-0.7547,-0.4449,-0.2606,-0.2438,-0.0832,0.0,0.0,0.0,0.0,0.0,0.0,0.0,0.0,0.0,0.0,0.0,0.0,-0.0079,-0.0236,-0.0079,-0.0079,-0.0236,-0.0079,0.0,0.0,0.0,0.0,0.0,0.0,0.0,0.0,0.0,0.0,0.0,0.0,0.0,0.0,0.0,0.0,0.0,0.0,0.0,0.0,0.0,0.0,0.0,0.0,0.0,0.0876,0.3857,0.4584,0.5673,0.8574,0.9157,0.9302,0.9302,0.9663,0.9879,0.9807,1.0167,1.0383,1.0455,1.0678,1.0822,1.0599,1.1181,1.1404,1.1044,1.1404,1.1548,1.1548,1.1548,1.1619,1.1619,1.1619,1.1619,1.1619,1.1619,1.1619,1.1619,1.1619,1.1619,1.1619,1.1619,1.1619,1.1619,1.1619,1.1619,1.1619,1.1619,1.1619,1.1619,1.164,1.164,1.1647,0.0,0.0,0.0,0.0,0.0,0.0,0.0,0.0,0.0,-1.1069,-1.1232,-1.1346,-1.1346,-1.1302,-1.1177,-1.0938,0.0,0.0,-1.0742,-0.9981,-0.9142,-0.8136,-0.6627,-0.4868,-0.2772,-0.1925,-0.1082,0.0,0.0,0.0,0.0,0.0,0.0,0.0,0.0,0.0,0.0,0.0,-0.0549,-0.1334,-0.0392,-0.0549,-0.1334,-0.0392,0.0,0.0,0.0,0.0,0.0,0.0,0.0,0.0,0.0,0.0,0.0,0.0,0.0,0.0,0.0,0.0,0.0,0.0,0.0,0.0,0.0,0.0,0.0,0.0,0.0,0.0948,0.4148,0.4729,0.5746,0.0,0.9518,0.9663,0.9663,1.0173,1.0534,1.0534,1.0894,1.1038,1.0822,1.09,1.1044,1.1109,1.1404,1.1548,1.1332,1.1476,1.1619,1.1619,1.1619,1.1619,1.1619,1.1619,1.1619,1.1619,1.1619,1.1619,1.1619,1.1619,1.1619,1.1619,1.1619,1.1619,1.1619,1.1619,1.1619,1.1619,1.1619,1.1619,1.1619,1.1619,1.1619,1.1619,0.0,0.0,0.0,0.0,0.0,0.0,0.0,0.0,0.0,0.0,-1.1145,-1.127,-1.127,-1.127,-1.1204,0.0,0.0,0.0,0.0,-1.0786,-1.0179,-0.8892,-0.7885,-0.6124,-0.3528,-0.2438,-0.134,0.0,0.0,0.0,0.0,0.0,0.0,0.0,0.0,0.0,0.0,0.0,-0.0706,-0.1725,-0.0471,-0.0706,-0.1646,-0.0471,0.0,0.0,0.0,0.0,0.0,0.0,0.0,0.0,0.0,0.0,0.0,0.0,0.0,0.0,0.0,0.0,0.0,0.0,0.0,0.0,0.0,0.0,0.0,0.0,0.0,0.0948,0.4148,0.4802,0.5887,0.8941,0.9807,1.0095,1.0095,1.0606,1.0972,1.0972,1.1332,1.1476,1.1188,1.1188,1.126,1.1548,1.1619,1.1619,1.1619,1.1619,1.1619,1.1619,1.1619,1.1619,1.1619,1.1619,1.1619,1.1619,1.1619,1.1619,1.1619,1.1619,1.1619,1.1619,1.1619,1.1619,1.1619,1.1619,1.1619,1.1619,1.1619,1.1619,1.1619,1.1619,1.1619,1.1619,0.0,0.0,0.0,0.0,0.0,0.0,0.0,0.0,0.0,0.0,0.0,0.0,0.0,0.0,0.0,0.0,0.0,0.0,0.0,-1.0916,-1.0778,-1.0659,-0.7296,-0.5454,-0.5287,-0.1849,-0.0084,0.0,0.0,0.0,0.0,0.0,0.0,0.0,0.0,0.0,0.0,0.0,0.0,-0.0079,0.0,0.0,-0.0079,0.0,0.0,0.0,0.0,0.0,0.0,0.0,0.0,0.0,0.0,0.0,0.0,0.0,0.0,0.0,0.0,0.0,0.0,0.0,0.0,0.0,0.0,0.0,0.0,0.0,0.0,0.0948,0.4148,0.4944,0.625,0.9368,1.0239,1.0455,1.0455,1.075,1.0972,1.0972,1.1332,1.1619,0.0,1.1548,1.1619,1.1619,1.1619,1.1619,1.1619,1.1619,1.1619,1.1619,1.1619,1.1619,1.1619,1.1619,1.1619,1.1619,1.1619,1.1619,1.1619,1.1619,1.1619,1.1619,1.1619,1.1619,1.1619,1.1619,1.1619,1.1619,1.1619,1.1619,1.1619,1.1619,1.1619,1.1619,0.0,0.0,0.0,0.0,0.0,0.0,0.0,0.0,0.0,0.0,0.0,0.0,0.0,0.0,0.0,0.0,0.0,0.0,0.0,-1.0965,-1.09,-1.0862,-0.9598,-0.8386,-0.7212,-0.5957,-0.4197,-0.1766,-0.1766,-0.1175,0.0,0.0,0.0,0.0,0.0,0.0,-0.008,-0.1193,-0.1028,-0.0079,-0.1177,-0.102,0.0,0.0,0.0,0.0,0.0,0.0,0.0,0.0,0.0,0.0,0.0,0.0,0.0,0.0,0.0,0.0,0.0,0.0,0.0,0.0,0.0,0.0,0.0,0.0,0.0,0.0,0.0,0.0656,0.2694,0.4073,0.5528,0.763,0.9368,1.0527,1.0527,1.1038,1.1404,1.1404,1.1548,0.0,0.0,0.0,0.0,1.1619,1.1619,1.1619,1.1619,1.1619,1.1619,1.1619,1.1619,1.1619,1.1619,1.1619,1.1619,1.1619,1.1619,1.1619,1.1619,1.1619,1.1619,1.1619,1.1619,1.1619,1.1619,1.1619,1.1619,1.1619,1.1619,1.1619,1.1619,1.1619,1.1619,1.1619,0.0,0.0,0.0,0.0,0.0,0.0,0.0,0.0,0.0,0.0,0.0,0.0,0.0,0.0,0.0,0.0,0.0,0.0,0.0,0.0,-1.1009,-1.0922,-1.0167,-0.9263,-0.8136,-0.7467,-0.5957,-0.3696,-0.3696,-0.2772,-0.0925,-0.1002,-0.0583,0.0,0.0,0.0,-0.0081,-0.1762,-0.1912,-0.1033,-0.2123,-0.1887,-0.0869,-0.0236,0.0,0.0,0.0,0.0,0.0,0.0,0.0,0.0,0.0,0.0,0.0,0.0,0.0,0.0,0.0,0.0,0.0,0.0,0.0,0.0,0.0,0.0,0.0,0.0,0.0,0.0438,0.2039,0.3855,0.5525,0.6978,0.9152,1.0678,1.0678,1.1109,1.1476,1.1548,1.1619,1.1619,0.0,0.0,0.0,1.1619,1.1619,1.1619,1.1619,1.1619,1.1619,1.1619,1.1619,1.1619,1.1619,1.1619,1.1619,1.1619,1.1619,1.1619,1.1619,1.1619,1.1619,1.1619,1.1619,1.1619,1.1619,1.1619,1.1619,1.1619,1.1619,1.1653,1.1694,1.1694,1.1728,1.1762,0.0,0.0,0.0,0.0,0.0,0.0,0.0,0.0,0.0,0.0,0.0,0.0,0.0,0.0,0.0,0.0,0.0,0.0,0.0,0.0,0.0,-1.0949,-0.9304,-0.8315,-0.8227,-0.6546,-0.5622,-0.5538,-0.5538,-0.4616,-0.2856,-0.2856,-0.1933,-0.0252,-0.025,-0.0249,-0.0413,-0.2098,-0.2814,-0.2836,-0.277,-0.2763,-0.2549,-0.0788,0.0,0.0,0.0,0.0,0.0,0.0,0.0,0.0,0.0,0.0,0.0,0.0,0.0,0.0,0.0,0.0,0.0,0.0,0.0,0.0,0.0,0.0,0.0,0.0,0.0,0.0438,0.0,0.0,0.6174,0.7263,0.9441,1.0972,1.0972,1.1044,1.1188,0.0,0.0,0.0,0.0,0.0,0.0,1.1619,1.1619,1.1619,1.1619,1.1619,1.1619,1.1619,1.1619,1.1619,1.1619,1.1619,1.1619,1.1619,1.1619,1.1619,1.1619,1.1619,1.1619,1.1619,1.1619,1.1619,1.1619,1.1619,1.1619,1.1633,1.1633,1.1714,1.1843,1.1843,1.1938,1.202,0.0,0.0,0.0,0.0,0.0,0.0,0.0,0.0,0.0,0.0,0.0,0.0,0.0,0.0,0.0,0.0,0.0,0.0,0.0,0.0,0.0,0.0,0.0,0.0,0.0,0.0,0.0,0.0,0.0,-0.6459,-0.47,-0.47,-0.4449,-0.4029,-0.4017,-0.3995,-0.4125,-0.5818,-0.5785,-0.4778,0.0,-0.4929,-0.2629,0.0,0.0,0.0,0.0,0.0,0.0,0.0,0.0,0.0,0.0,0.0,0.0,0.0,0.0,0.0,0.0,0.0,0.0,0.0,0.0,0.0,0.0,0.0,0.0,0.0,0.0,0.0146,0.0,0.0,0.0,0.5742,0.8714,0.0,1.0972,1.126,0.0,1.1619,0.0,1.1619,1.1619,1.1619,0.0,0.0,1.1619,1.1619,1.1619,1.1619,1.1619,1.1619,1.1619,1.1619,1.1619,1.1619,1.1619,1.1619,1.1619,1.1619,1.1619,1.1619,1.1619,1.1619,1.1619,1.1619,1.1619,1.1619,1.1681,1.1775,1.1775,1.187,1.2006,1.2006,1.2026,1.2128,0.0,0.0,0.0,0.0,0.0,0.0,0.0,0.0,0.0,0.0,0.0,0.0,0.0,0.0,0.0,0.0,0.0,0.0,0.0,0.0,0.0,0.0,0.0,0.0,0.0,0.0,0.0,0.0,0.0,0.0,0.0,-0.656,-0.6124,-0.5371,-0.5371,-0.5435,-0.5485,0.0,0.0,0.0,0.0,0.0,0.0,0.0,0.0,0.0,0.0,0.0,0.0,0.0,0.0,0.0,0.0,0.0,0.0,0.0,0.0,0.0,0.0,0.0,0.0,0.0,0.0,0.0,0.0,0.0,0.0,0.0,0.0,0.0,0.0,0.0,0.0,0.0,0.0,0.0,1.0822,1.0966,1.1181,0.0,1.1332,0.0,1.1548,1.1619,1.1619,0.0,1.1619,1.1619,1.1619,1.1619,1.1619,1.1619,1.1619,1.1619,1.1619,1.1619,1.1619,1.1619,1.1619,1.1619,1.1619,1.1619,1.1619,1.1619,1.1619,1.1653,1.1714,1.1714,1.1796,1.1932,1.1932,1.2026,1.2162,1.2162,1.2203,1.2257,0.0,0.0,0.0,0.0,0.0,0.0,0.0,0.0,0.0,0.0,0.0,0.0,0.0,0.0,0.0,0.0,0.0,0.0,0.0,0.0,0.0,0.0,0.0,0.0,0.0,0.0,0.0,0.0,0.0,0.0,0.0,0.0,0.0,0.0,0.0,0.0,0.0,0.0,0.0,0.0,0.0,0.0,0.0,0.0,0.0,0.0,0.0,0.0,0.0,0.0,0.0,0.0,0.0,0.0,0.0,0.0,0.0,0.0,0.0,0.0,0.0,0.0,0.0,0.0,0.0,0.0,0.0,0.0,0.0,0.0,0.0,0.3128,0.5594,0.5304,0.0,1.0822,1.0599,1.0527,1.0599,1.0972,1.0972,1.1188,1.1548,1.1619,1.1619,1.1619,1.1619,1.1619,1.1619,1.1619,1.1619,1.1619,1.1619,1.1619,1.1619,1.1619,1.1619,1.1619,1.1619,1.1619,1.1619,1.1619,1.1619,1.1619,1.164,1.1714,1.183,1.185,1.1952,1.2169,1.2169,1.2182,1.2318,1.2318,1.2393,1.2501,0.0,0.0,0.0,0.0,0.0,0.0,0.0,0.0,0.0,0.0,-1.1498,0.0,0.0,0.0,0.0,0.0,0.0,0.0,0.0,0.0,0.0,0.0,0.0,0.0,0.0,0.0,0.0,0.0,0.0,0.0,0.0,0.0,0.0,0.0,0.0,0.0,0.0,0.0,0.0,0.0,0.0,0.0,0.0,0.0,0.0,0.0,0.0,0.0,0.0,0.0,0.0,0.0,0.0,0.0,0.0,0.0,0.0,0.0,0.0,0.0,0.0,0.0,0.0,0.0,0.0,0.0,0.0,0.0,0.0,0.0,0.0,0.291,0.5377,0.5663,0.0,0.0,0.0,0.0,1.0599,0.0,0.0,0.0,1.1548,1.1619,0.0,0.0,1.1619,1.1619,1.1619,1.1619,1.1619,1.1619,1.1619,1.1619,1.1619,1.1619,1.1619,1.1619,1.1619,1.1619,1.1619,1.1619,1.1619,1.1626,1.1742,1.1809,1.1843,1.1972,1.2115,1.225,1.225,1.2338,1.2467,1.2467,1.2481,1.2501,0.0,0.0,0.0,0.0,0.0,0.0,0.0,0.0,0.0,0.0,-1.1661,-1.1525,0.0,0.0,0.0,0.0,0.0,0.0,0.0,0.0,0.0,0.0,0.0,0.0,0.0,0.0,0.0,0.0,0.0,0.0,0.0,0.0,0.0,0.0,0.0,0.0,0.0,0.0,0.0,0.0,0.0,0.0,0.0,0.0,0.0,0.0,0.0,0.0,0.0,0.0,0.0,0.0,0.0,0.0,0.0,0.0,0.0,0.0,0.0,0.0,0.0,0.0,0.0,0.0,0.0,0.0,0.0,0.0,0.0,0.0,0.0,0.0,0.0,0.0,0.0,0.0,0.0,0.0,0.0,0.0,0.0,0.0,0.0,1.1619,1.1619,1.1619,1.1619,1.1619,1.1619,1.1619,1.1619,1.1619,1.1619,1.1619,1.1619,1.1619,1.1619,1.1619,1.1619,1.1619,1.1619,1.1619,1.166,1.1735,1.1803,1.1918,1.2074,1.2149,1.2271,1.24,1.24,1.244,1.2501,1.2501,1.2501,1.2501,0.0,0.0,0.0,0.0,0.0,0.0,0.0,-1.2091,-1.202,-1.1993,-1.1824,-1.1656,-1.1509,-1.1471,0.0,0.0,0.0,0.0,0.0,0.0,0.0,0.0,0.0,0.0,0.0,0.0,0.0,0.0,0.0,0.0,0.0,0.0,0.0,0.0,0.0,0.0,0.0,0.0,0.0,0.0,0.0,0.0,0.0,0.0,0.0,0.0,0.0,0.0,0.0,0.0,0.0,0.0,0.0,0.0,0.0,0.0,0.0,0.0,0.0,0.0,0.0,0.0,0.0,0.0,0.0,0.0,0.0,0.0,0.0,0.0,0.0,0.0,0.509,0.0,0.0,0.0,0.0,0.0,0.0,0.0,0.0,0.0,0.0,1.1619,0.0,1.1619,1.1619,1.1619,1.1619,1.1619,1.1619,1.1619,1.1619,1.1619,1.1619,1.1619,1.1619,1.1619,1.1619,1.1619,1.1619,1.1653,1.1728,1.1837,1.1898,1.2067,1.2291,1.2325,1.24,1.2501,1.2501,1.2501,1.2501,1.2501,1.2501,1.2501,0.0,0.0,0.0,0.0,0.0,0.0,0.0,-1.2161,-1.2112,-1.2004,-1.1971,-1.1868,-1.1645,-1.152,0.0,0.0,0.0,0.0,0.0,0.0,0.0,0.0,0.0,0.0,0.0,0.0,0.0,0.0,0.0,0.0,0.0,0.0,0.0,0.0,0.0,0.0,0.0,0.0,0.0,0.0,0.0,0.0,0.0,0.0,0.0,0.0,0.0,0.0,0.0,0.0,0.0,0.0,0.0,0.0,0.0,0.0,0.0,0.0,0.0,0.0,0.0,0.0,0.0,0.0,0.0,0.0,0.0,0.0,0.0,0.0,0.0,0.2622,0.4875,0.0,0.0,0.0,0.0,0.0,0.0,0.0,0.0,0.0,0.0,1.1619,1.1619,1.1619,1.1619,1.1619,1.1619,1.1619,1.1619,1.1619,1.1619,1.1619,1.1619,1.1619,1.1619,1.1619,1.1619,1.1619,1.1619,1.1755,1.1816,1.1843,1.2128,1.2264,1.2298,1.2427,1.2488,1.2501,1.2501,1.2501,1.2501,1.2501,1.2501,1.2501,0.0,0.0,0.0,0.0,0.0,0.0,0.0,-1.2172,-1.2156,-1.2107,-1.2036,-1.1955,-1.1857,-1.1677,-1.1536,0.0,0.0,0.0,0.0,0.0,0.0,0.0,0.0,0.0,0.0,0.0,0.0,-1.0922,-1.0922,0.0,0.0,0.0,0.0,0.0,0.0,0.0,0.0,0.0,0.0,0.0,0.0,0.0,0.0,0.0,0.0,0.0,0.0,0.0,0.0,0.0,0.0,0.0,0.0,0.0,0.0,0.0,0.0,0.0,0.0,0.0,0.0,0.0,0.0,0.0,0.0,0.0,0.0,0.0,0.0,0.0,0.0,0.1749,0.3637,0.0,0.0,0.0,0.0,0.0,0.0,0.0,0.0,0.0,0.0,0.0,1.1619,1.1619,1.1619,1.1619,1.1619,1.1619,1.1619,1.1619,1.1619,1.1619,1.1619,1.1619,1.1619,1.1619,1.1619,1.166,1.1748,1.1803,1.1932,1.2115,1.2237,1.2338,1.242,1.2481,1.2501,1.2501,1.2501,1.2501,1.2501,1.2501,1.2501,1.2501,0.0,0.0,0.0,0.0,0.0,0.0,-1.2172,-1.2172,-1.2172,-1.2172,-1.2096,-1.2031,-1.1993,-1.1808,-1.1639,-1.152,0.0,0.0,0.0,0.0,0.0,0.0,0.0,0.0,0.0,0.0,-1.078,-1.0867,-1.09,-1.0965,0.0,0.0,0.0,0.0,0.0,0.0,0.0,0.0,0.0,0.0,0.0,0.0,0.0,0.0,0.0,0.0,0.0,0.0,0.0,0.0,0.0,0.0,0.0,0.0,0.0,0.0,0.0,0.0,0.0,0.0,0.0,0.0,0.0,0.0,0.0,0.0,0.0,0.0,0.0,0.0,0.0,0.1239,0.2839,0.0,0.0,0.0,0.0,0.0,0.0,0.0,0.0,1.1116,0.0,1.1548,1.1619,1.1619,1.1619,1.1619,1.1619,1.1619,1.1619,1.1619,1.1619,1.1619,1.1619,1.1619,1.1619,1.1619,1.166,1.1735,1.1837,1.1925,1.2088,1.2291,1.2332,1.2413,1.2501,1.2501,1.2501,1.2501,1.2501,1.2501,1.2501,1.2501,1.2501,1.2501,0.0,0.0,0.0,0.0,0.0,0.0,0.0,-1.2172,-1.2172,-1.2172,-1.2172,-1.2123,-1.1998,-1.1884,-1.177,-1.1645,0.0,0.0,0.0,0.0,0.0,0.0,0.0,0.0,0.0,0.0,-1.0737,-1.0737,-1.0862,-1.0922,-1.0922,-1.1047,-1.1036,0.0,0.0,0.0,0.0,0.0,0.0,0.0,0.0,0.0,0.0,0.0,0.0,0.0,0.0,0.0,0.0,0.0,0.0,0.0,0.0,0.0,0.0,0.0,0.0,0.0,0.0,0.0,0.0,0.0,0.0,0.0,0.0,0.0,0.0,0.0,0.0,0.0,0.0,0.1239,0.2839,0.0,0.0,0.0,0.0,0.0,0.0,0.0,0.0,1.0972,1.1044,1.1404,1.1619,1.1619,1.1619,0.0,1.1619,1.1619,1.1619,1.1619,1.1619,1.1619,1.1619,1.1619,1.1619,1.1619,1.1762,1.183,1.1843,1.2149,1.2284,1.2298,1.244,1.2501,1.2501,1.2501,1.2501,1.2501,1.2501,1.2501,1.2501,1.2501,1.2501,1.2501,0.0,0.0,0.0,0.0,0.0,0.0,0.0,-1.2172,-1.2172,-1.2172,-1.2172,-1.2156,-1.2118,-1.2009,-1.1889,-1.177,0.0,0.0,0.0,0.0,0.0,0.0,0.0,0.0,0.0,0.0,-1.0775,-1.0862,-1.0987,-1.1085,-1.1161,-1.1199,-1.1156,-1.1041,-1.096,0.0,0.0,0.0,0.0,0.0,0.0,0.0,0.0,0.0,0.0,0.0,0.0,0.0,0.0,0.0,0.0,0.0,0.0,0.0,0.0,0.0,0.0,0.0,0.0,0.0,0.0,0.0,0.0,0.0,0.0,0.0,0.0,0.0,0.0,0.0,0.0,0.0365,0.1603,0.4293,0.0,0.0,0.0,0.0,0.0,0.0,1.1038,1.1404,0.0,0.0,1.1619,1.1619,1.1619,1.1619,1.1619,1.1619,1.1619,1.1619,1.1619,1.1619,1.1619,1.1619,1.1667,1.1762,1.1809,1.1938,1.2149,1.2244,1.2345,1.2433,1.2481,1.2501,1.2501,1.2501,1.2501,1.2501,1.2501,1.2501,1.2501,1.2501,1.2501,1.2501,0.0,0.0,0.0,0.0,0.0,0.0,0.0,-1.055,-1.1028,-1.1028,-1.1694,-1.2172,-1.2172,-1.2063,-1.1944,-1.183,0.0,0.0,0.0,0.0,0.0,0.0,0.0,0.0,0.0,-1.0737,-1.0797,-1.0922,-1.1041,-1.1161,-1.1275,-1.1319,-1.1259,-1.1101,-1.102,-1.0895,0.0,0.0,0.0,0.0,0.0,0.0,-0.9409,0.0,0.0,0.0,0.0,0.0,0.0,0.0,0.0,0.0,0.0,0.0,0.0,0.0,0.0,0.0,0.0,0.0,0.0,0.0,0.0,0.0,0.0,0.0,0.0,0.0,0.0,0.0,0.0,0.0,0.1021,0.4221,0.0,0.0,0.0,0.0,0.0,1.0606,0.0,0.0,0.0,1.1619,1.1619,1.1619,1.1619,1.1619,1.1619,1.1619,1.1619,1.1619,1.1619,1.1619,1.1619,1.1674,1.1742,1.183,1.1952,1.2108,1.2291,1.2345,1.242,1.2501,1.2501,1.2501,0.0,1.2501,1.2501,1.2501,1.2501,1.2501,1.2501,1.2501,1.2501,1.2501,0.0,0.0,0.0,0.0,0.0,0.0,0.0,0.0,0.0,0.0,-1.0645,-1.1978,-1.1978,-1.1975,0.0,0.0,0.0,0.0,0.0,0.0,0.0,0.0,0.0,0.0,-1.0737,-1.0742,-1.0808,-1.0933,-1.1052,-1.1172,-1.1286,-1.14,-1.133,-1.1101,-1.1101,-1.0965,-1.0654,-1.057,-1.0501,-1.0388,-1.0296,-0.9221,0.0,0.0,0.0,0.0,0.0,0.0,0.0,0.0,0.0,0.0,0.0,0.0,0.0,0.0,0.0,0.0,0.0,0.0,0.0,0.0,0.0,0.0,0.0,0.0,0.0,0.0,0.0,0.0,0.0,0.0,0.1021,0.4221,0.0,0.0,0.0,0.9951,0.0,0.0,1.1044,0.0,1.1548,1.1619,1.1619,1.1619,1.1619,1.1619,1.1619,1.1619,1.1619,1.1619,1.1633,1.1633,1.1633,1.1769,1.1843,1.1864,1.2155,1.2298,1.2311,1.244,1.2501,1.2501,1.2501,1.2501,1.2501,1.2501,1.2501,1.2501,1.2501,1.2501,1.2501,1.2501,1.2501,1.2501,0.0,0.0,0.0,0.0,0.0,0.0,0.0,0.0,0.0,0.0,0.0,-0.9789,-0.9789,-1.1192,0.0,0.0,0.0,0.0,0.0,0.0,0.0,0.0,0.0,0.0,-1.0737,-1.0829,-1.0938,-1.1058,-1.1177,-1.1297,-1.1411,-1.1527,-1.133,-1.1101,-1.1101,-1.0965,-1.057,-0.9309,-0.8667,-0.857,-0.7103,-0.6266,0.0,0.0,0.0,0.0,-0.0663,0.0,0.0,0.0,0.0,0.0,0.0,0.0,0.0,0.0,0.0,0.0,0.0,0.0,0.0,0.0,0.0,0.0,0.0,0.0,0.0,0.0,0.0,0.0,0.0,0.0,0.0,0.0,0.0,0.0,0.9441,0.0,0.0,1.1404,1.1476,1.1476,1.1619,1.1619,1.1619,1.1619,1.1619,1.1619,1.1619,1.1619,1.1619,1.1619,1.1728,1.1782,1.1782,1.1816,1.1952,1.2182,1.2257,1.2345,1.2454,1.2488,1.2501,1.2501,1.2501,1.2501,1.2501,1.2501,1.2501,1.2501,1.2501,1.2501,1.2501,1.2501,1.2501,1.2501,0.0,0.0,0.0,0.0,0.0,0.0,0.0,0.0,0.0,0.0,0.0,0.0,0.0,0.0,0.0,0.0,0.0,0.0,0.0,0.0,0.0,0.0,0.0,-1.0797,-1.0737,-1.0857,-1.0982,-1.1101,-1.1215,-1.1335,-1.1543,-1.1543,-1.133,-1.1096,-1.0987,-1.0351,-0.9476,-0.8505,-0.7608,-0.6703,-0.5656,0.0,0.0,0.0,0.0,0.0,-0.0329,0.0,0.0,0.0,0.0,0.0,0.0,0.0,0.0,0.0,0.0,0.0,0.0,0.0,0.0,0.0,0.0,0.0,0.0,0.0,0.0,0.0,0.0,0.0,0.0,0.0,0.0,0.0,0.4802,0.0,0.0,0.0,1.1332,1.1548,1.1619,1.1619,0.0,1.1619,1.1619,1.1619,1.1619,1.1619,1.1619,1.1619,1.1647,1.1714,1.1789,1.183,1.183,1.1972,1.2128,1.2291,1.2352,1.2427,1.2501,1.2501,1.2501,1.2501,1.2501,1.2501,1.2501,1.2501,1.2501,1.2501,1.2501,1.2501,1.2501,1.2501,1.2501,1.2501,0.0,0.0,0.0,0.0,0.0,0.0,0.0,0.0,0.0,0.0,0.0,0.0,0.0,0.0,0.0,0.0,0.0,0.0,0.0,0.0,0.0,0.0,0.0,-1.0873,-1.0764,-1.0884,-1.1009,-1.1128,-1.1243,-1.1351,-1.1543,-1.1543,-1.1242,-1.066,-1.0167,-0.9049,-0.769,-0.7368,-0.6302,-0.4768,-0.449,0.0,0.0,0.0,0.0,0.0,0.0,0.0,0.0,0.0,0.0,0.0,0.0,0.0,0.0,0.0,0.0,0.0,0.0,0.0,0.0,0.0,0.0,0.0,0.0,0.0,0.0,0.0,0.0,0.0,0.0,0.0,0.0,0.0,0.0,0.0,1.0462,1.1332,1.1619,1.1619,1.1619,0.0,1.1619,1.1619,1.1619,1.1619,1.1619,1.1619,1.1619,1.164,1.1708,1.183,1.1877,1.1904,1.1904,1.2162,1.2298,1.2325,1.244,1.2501,1.2501,1.2501,1.2501,1.2501,1.2501,1.2501,1.2501,1.2501,1.2501,1.2501,1.2501,1.2501,1.2501,1.2501,1.2501,1.2501,0.0,0.0,0.0,0.0,0.0,0.0,0.0,0.0,0.0,0.0,0.0,0.0,0.0,0.0,0.0,0.0,0.0,0.0,0.0,0.0,0.0,0.0,-1.0987,-1.0911,-1.0889,-1.1009,-1.1128,-1.1248,-1.1368,-1.1438,-1.1543,-1.1543,-1.0533,-0.8749,-0.7032,-0.609,-0.5707,-0.4214,-0.3344,-0.2962,-0.1454,0.0,0.0,0.0,0.0,0.0,0.0,0.0,0.0,0.0,0.0,0.0,0.0,0.0,0.0,0.0,0.0,0.0,0.0,0.0,0.0,0.0,0.0,0.0,0.0,0.0,0.0,0.0,0.0,0.0,0.0,0.0,0.0583,0.0,0.0,0.842,0.0,0.0,1.1619,1.1619,0.0,1.1619,1.1619,1.1619,1.1619,1.1619,1.1619,1.1619,1.1619,1.1735,1.1809,1.183,1.2081,1.2216,1.2216,1.2264,1.2352,1.2467,1.2488,1.2501,1.2501,1.2501,1.2501,1.2501,1.2501,1.2501,1.2501,1.2501,1.2501,1.2501,1.2501,1.2501,1.2501,1.2501,1.2501,1.2501,0.0,0.0,0.0,0.0,0.0,0.0,0.0,0.0,0.0,0.0,0.0,0.0,0.0,0.0,0.0,0.0,0.0,0.0,0.0,0.0,0.0,-1.1112,-1.1107,-1.1052,-1.0922,-1.1041,-1.1156,-1.127,-1.1395,-1.0916,-0.9927,-0.8757,-0.7766,-0.6785,-0.5795,-0.4894,-0.3878,-0.3015,-0.2104,-0.1129,0.0,0.0,0.0,0.0,0.0,0.0,0.0,0.0,0.0,0.0,0.0,0.0,0.0,0.0,0.0,0.0,0.0,0.0,0.0,0.0,0.0,0.0,0.0,0.0,0.0,0.0,0.0,0.0,0.0,0.0,0.0,0.0,0.1531,0.4073,0.0,0.9074,1.1038,1.1476,1.1619,0.0,0.0,1.1619,1.1619,1.1619,1.1619,1.1619,1.1619,1.1653,1.1728,1.1796,1.1904,1.2074,1.2216,1.2325,1.2406,1.2406,1.2433,1.2501,1.2501,1.2501,1.2501,1.2501,1.2501,1.2501,1.2501,1.2501,1.2501,1.2501,1.2501,1.2501,1.2501,1.2501,1.2501,1.2501,1.2501,1.2515,0.0,0.0,0.0,0.0,0.0,0.0,0.0,0.0,0.0,0.0,0.0,0.0,0.0,0.0,0.0,0.0,0.0,0.0,0.0,0.0,-1.0905,-1.1112,-1.1188,-1.115,-1.0965,-1.1079,-1.1025,-1.0693,-1.078,-0.9829,-0.784,-0.5862,-0.491,-0.4842,-0.4332,-0.3376,-0.2047,-0.2097,-0.1288,0.0,0.0,0.0,0.0,0.0,0.0,0.0,0.0,0.0,0.0,0.0,0.0,0.0,0.0,0.0,0.0,0.0,0.0,0.0,0.0,0.0,0.0,0.0,0.0,0.0,0.0,0.0,0.0,0.0,0.0,0.0,0.0,0.0584,0.0,0.5667,0.7336,0.893,1.1253,1.1619,1.1619,1.1619,1.1619,1.1619,1.1619,1.1619,1.1619,1.1619,1.1647,1.1714,1.1823,1.1898,1.2047,1.2284,1.2325,1.2393,1.2501,1.2501,1.2501,1.2501,1.2501,1.2501,1.2501,1.2501,1.2501,1.2501,1.2501,1.2501,1.2501,1.2501,1.2501,1.2501,1.2501,1.2501,1.2508,1.2542,1.2556,1.2576,0.0,0.0,0.0,0.0,0.0,0.0,0.0,0.0,0.0,0.0,0.0,0.0,0.0,0.0,0.0,0.0,0.0,0.0,0.0,0.0,-0.9485,-1.1026,-1.1112,-1.1107,-1.109,-1.1199,-1.0434,-0.8757,-0.8761,-0.7832,-0.5904,-0.4011,-0.3089,-0.3027,-0.1164,-0.0327,-0.016,-0.0162,-0.0081,0.0,0.0,0.0,0.0,0.0,0.0,0.0,0.0,0.0,0.0,0.0,0.0,0.0,0.0,0.0,0.0,0.0,0.0,0.0,0.0,0.0,0.0,0.0,0.0,0.0,0.0,0.0,0.0,0.0,0.0,0.0,0.0,0.0365,0.1749,0.5301,0.6246,0.777,1.1109,0.0,1.1619,1.1619,1.1619,1.1619,1.1619,1.1619,1.1619,1.1619,1.1742,1.1823,1.183,1.2101,1.2271,1.2291,1.242,1.2488,1.2501,1.2501,1.2501,1.2501,1.2501,1.2501,1.2501,1.2501,1.2501,1.2501,1.2501,1.2501,1.2501,1.2501,1.2501,1.2501,1.2501,1.2501,1.2522,1.2664,1.2712,1.2732,0.0,0.0,0.0,0.0,0.0,0.0,0.0,0.0,0.0,0.0,0.0,0.0,0.0,0.0,0.0,0.0,0.0,0.0,0.0,0.0,-0.7003,-0.7638,-0.7679,-0.7743,-0.7641,-0.9975,-1.0292,-0.8587,-0.6264,-0.4702,-0.3925,-0.2,-0.1112,-0.1082,-0.0329,0.0,0.0,0.0,0.0,0.0,0.0,0.0,0.0,0.0,0.0,0.0,0.0,0.0,0.0,0.0,0.0,0.0,0.0,0.0,0.0,0.0,0.0,0.0,0.0,0.0,0.0,0.0,0.0,0.0,0.0,0.0,0.0,0.0,0.0219,0.0,0.0,0.0,0.2404,0.5667,0.6536,0.7914,1.1109,1.1619,1.1619,1.1619,1.1619,1.1619,1.1619,1.1619,1.1619,1.1619,1.1748,1.187,1.1972,1.2176,1.2332,1.242,1.2474,1.2501,1.2501,1.2501,1.2501,1.2501,1.2501,1.2501,1.2501,1.2501,1.2501,1.2501,1.2501,1.2501,1.2501,1.2501,1.2501,1.2501,1.2501,1.2562,1.2651,1.2712,1.2793,1.2895,0.0,0.0,0.0,0.0,0.0,0.0,0.0,0.0,0.0,0.0,0.0,0.0,0.0,0.0,0.0,0.0,0.0,0.0,0.0,-0.4834,-0.5056,-0.5469,-0.5589,-0.5564,-0.5463,-0.7991,-0.854,-0.6767,-0.3576,-0.1951,-0.1996,-0.0606,0.0,0.0,0.0,0.0,0.0,0.0,0.0,0.0,0.0,0.0,0.0,0.0,0.0,0.0,0.0,0.0,0.0,0.0,0.0,0.0,0.0,0.0,0.0,0.0,0.0,0.0,0.0,0.0,0.0,0.0,0.0,0.0,0.0,0.0,0.0,0.0,0.0219,0.0,0.0,0.0,0.0,0.0,0.6753,0.8059,1.1181,1.1619,1.1619,1.1619,1.1619,1.1619,1.1619,1.1619,1.164,1.1681,1.1823,1.1972,1.2128,1.2277,1.24,1.2501,1.2501,1.2501,1.2501,1.2501,1.2501,1.2501,1.2501,1.2501,1.2501,1.2501,1.2501,1.2501,1.2501,1.2501,1.2501,1.2501,1.2501,1.2508,1.2556,1.2637,1.2739,1.2834,1.2935,1.3051,0.0,0.0,0.0,0.0,0.0,0.0,0.0,0.0,0.0,0.0,0.0,0.0,0.0,0.0,0.0,0.0,0.0,0.0,-0.278,-0.2867,-0.3638,-0.5383,-0.5464,-0.5437,-0.5461,-0.5461,-0.4573,-0.291,-0.0981,0.0,0.0,0.0,0.0,0.0,0.0,0.0,0.0,0.0,0.0,0.0,0.0,0.0,0.0,0.0,0.0,0.0,0.0,0.0,0.0,0.0,0.0,0.0,0.0,0.0,0.0,0.0,0.0,0.0,0.0,0.0,0.0,0.0,0.0,0.0,0.0,0.0,0.0,0.0,0.0,0.0292,0.1022,0.1241,0.0,0.5815,0.6753,0.8059,1.1181,1.1619,1.1619,1.1619,1.1619,1.1619,1.1619,1.1619,1.1681,1.1823,1.1979,1.2128,1.2284,1.2427,1.2501,1.2501,1.2501,1.2501,1.2501,1.2501,1.2501,1.2501,1.2501,1.2501,1.2501,1.2501,1.2501,1.2501,1.2501,1.2501,1.2501,1.2501,1.2501,1.2515,1.2671,1.2732,1.2766,1.3064,1.3173,1.32,0.0,0.0,0.0,0.0,0.0,0.0,0.0,0.0,0.0,0.0,0.0,0.0,0.0,0.0,0.0,0.0,0.0,0.0,-0.0808,-0.0891,-0.1058,-0.1651,-0.1639,-0.1624,-0.1606,-0.163,-0.2088,-0.291,-0.0981,0.0,0.0,0.0,0.0,0.0,0.0,0.0,0.0,0.0,0.0,0.0,0.0,0.0,0.0,0.0,0.0,0.0,0.0,0.0,0.0,0.0,0.0,0.0,0.0,0.0,0.0,0.0,0.0,0.0,0.0,0.0,0.0,0.0,0.0,0.0,0.0,0.0,0.0,0.0,0.0875,0.1239,0.1241,0.1605,0.0,0.5887,0.6753,0.8059,1.1181,1.1619,1.1619,1.1619,1.1619,1.1619,1.1619,1.1708,1.1782,1.183,1.2074,1.2244,1.2291,1.2427,1.2501,1.2501,1.2501,1.2501,1.2501,1.2501,1.2501,1.2501,1.2501,1.2501,1.2501,1.2501,1.2501,1.2501,1.2501,1.2501,1.2501,1.2501,1.2501,1.2515,1.2671,1.2793,1.2915,1.3105,1.3241,1.3342,0.0,0.0,0.0,0.0,0.0,0.0,0.0,0.0,0.0,0.0,0.0,0.0,0.0,0.0,0.0,0.0,0.0,0.0,0.0,0.0,0.0,0.0,0.0,0.0,0.0,0.0,-0.061,-0.1754,-0.0535,0.0,0.0,0.0,0.0,0.0,0.0,0.0,0.0,0.0,0.0,0.0,0.0,0.0,0.0,0.0,0.0,0.0,0.0,0.0,0.0,0.0,0.0,0.0,0.0,0.0,0.0,0.0,0.0,0.0,0.0,0.0,0.0,0.0,0.0,0.0073,0.0219,0.0,0.0,0.0,0.0,0.1605,0.1605,0.1896,0.0,0.6174,0.6825,0.8059,1.1181,1.1619,1.1619,1.1619,1.1619,1.1619,1.1619,1.1748,1.1857,1.1918,1.2149,1.2318,1.2372,1.2454,1.2501,1.2501,1.2501,1.2501,1.2501,1.2501,1.2501,1.2501,1.2501,1.2501,1.2501,1.2501,1.2501,1.2501,1.2501,1.2501,1.2501,1.2501,1.2535,1.261,1.2766,1.2915,1.3064,1.3207,1.3322,1.3403,0.0,0.0,0.0,0.0,0.0,0.0,0.0,0.0,0.0,0.0,0.0,0.0,0.0,0.0,0.0,0.0,0.0,0.0,0.0,0.0,0.0,0.0,0.0,0.0,0.0,0.0,0.0,0.0,0.0,0.0,0.0,0.0,0.0,0.0,0.0,0.0,0.0,0.0,0.0,0.0,0.0,0.0,0.0,0.0,0.0,0.0,0.0,0.0,0.0,0.0,0.0,0.0,0.0,0.0,0.0,0.0,0.0,0.0,0.0,0.0,0.0,0.0,0.0,0.0,0.0584,0.0729,0.0948,0.1677,0.0,0.1532,0.2187,0.2041,0.2985,0.6463,0.697,0.8059,1.1181,1.1619,1.1619,1.1619,1.1619,1.1626,1.164,1.1769,1.1918,1.2067,1.2223,1.2366,1.2494,1.2501,1.2501,1.2501,1.2501,1.2501,1.2501,1.2501,1.2501,1.2501,1.2501,1.2501,1.2501,1.2501,1.2501,1.2501,1.2501,1.2501,1.2501,1.2515,1.2603,1.2745,1.2915,1.3057,1.3193,1.3342,1.3403,1.3403,0.0,0.0,0.0,0.0,0.0,0.0,0.0,0.0,0.0,0.0,0.0,0.0,0.0,0.0,0.0,0.0,0.0,0.0,0.0,0.0,0.0,0.0,0.0,0.0,0.0,0.0,0.0,0.0,0.0,0.0,0.0,0.0,0.0,0.0,0.0,0.0,0.0,0.0,0.0,0.0,0.0,0.0,0.0,0.0,0.0,0.0,0.0,0.0,0.0,0.0,0.0,0.0,0.0,0.0,0.0,0.0,0.0,0.0,0.0,0.0,0.0,0.0,0.0219,0.0657,0.1385,0.1531,0.1604,0.175,0.1968,0.2114,0.226,0.226,0.3276,0.6463,0.697,0.8059,1.1181,1.1619,1.1619,1.1619,1.1619,1.166,1.1775,1.1925,1.2074,1.223,1.2372,1.2467,1.2501,1.2501,1.2501,1.2501,1.2501,1.2501,1.2501,1.2501,1.2501,1.2501,1.2501,1.2501,1.2501,1.2501,1.2501,1.2501,1.2501,1.2501,1.2508,1.263,1.2698,1.2759,1.3024,1.3146,1.3193,1.3342,1.3403,1.3403,0.0,0.0,0.0,0.0,0.0,0.0,0.0,0.0,0.0,0.0,0.0,0.0,0.0,0.0,0.0,0.0,0.0,0.0,0.0,0.0,0.0,0.0,0.0,0.0,0.0,0.0,0.0,0.0,0.0,0.0,0.0,0.0,0.0,0.0,0.0,0.0,0.0,0.0,0.0,0.0,0.0,0.0,0.0,0.0,0.0,0.0,0.0,0.0,0.0,0.0,0.0,0.0,0.0,0.0,0.0,0.0,0.0,0.0,0.0,0.0,0.0,0.0219,0.0,0.1021,0.1677,0.1895,0.2041,0.2041,0.2187,0.2333,0.2333,0.2333,0.3348,0.6463,0.697,0.8059,1.1181,1.1619,1.1619,1.1619,1.1619,1.1674,1.1816,1.1972,1.2128,1.2277,1.242,1.2501,1.2501,1.2501,1.2501,1.2501,1.2501,1.2501,1.2501,1.2501,1.2501,1.2501,1.2501,1.2501,1.2501,1.2501,1.2501,1.2501,1.2501,1.2501,1.2515,1.2664,1.2773,1.2861,1.3085,1.3214,1.3295,1.337,1.3403,1.3403,0.0,0.0,0.0,0.0,0.0,0.0,0.0,0.0,0.0,0.0,0.0,0.0,0.0,0.0,0.0,0.0,0.0,0.0,0.0,0.0,0.0,0.0,0.0,0.0,0.0,0.0,0.0,0.0,0.0,0.0,0.0,0.0,0.0,0.0,0.0,0.0,0.0,0.0,0.0,0.0,0.0,0.0,0.0,0.0,0.0,0.0,0.0,0.0,0.0,0.0,0.0,0.0,0.0,0.0,0.0,0.0,0.0,0.0,0.0,0.0,0.0,0.0,0.0,0.0,0.0,0.2114,0.2333,0.2333,0.2333,0.2333,0.2333,0.2333,0.3348,0.6463,0.697,0.8059,1.1181,1.1619,1.1619,1.1619,1.164,1.1714,1.1857,1.2013,1.2162,1.2318,1.2433,1.2501,1.2501,1.2501,1.2501,1.2501,1.2501,1.2501,1.2501,1.2501,1.2501,1.2501,1.2501,1.2501,1.2501,1.2501,1.2501,1.2501,1.2501,1.2515,1.2556,1.2705,1.2861,1.301,1.3159,1.3288,1.3403,1.3403,1.3403,1.3403,0.0,0.0,0.0,0.0,0.0,0.0,0.0,0.0,0.0,0.0,0.0,0.0,0.0,0.0,0.0,0.0,0.0,0.0,0.0,0.0,0.0,0.0,0.0,0.0,0.0,0.0,0.0,0.0,0.0,0.0,0.0,0.0,0.0,0.0,0.0,0.0,0.0,0.0,0.0,0.0,0.0,0.0,0.0,0.0,0.0,0.0,0.0,0.0,0.0,0.0,0.0,0.0,0.0,0.0,0.0,0.0,0.0,0.0,0.0,0.0,0.0,0.0,0.0,0.0,0.0,0.0,0.2333,0.0,0.2333,0.2333,0.2333,0.2333,0.3348,0.6463,0.697,0.8059,1.1181,1.1619,1.1619,1.1619,1.1728,1.1864,1.2013,1.2169,1.2318,1.2461,1.2488,1.2501,1.2501,1.2501,1.2501,1.2501,1.2501,1.2501,1.2501,1.2501,1.2501,1.2501,1.2501,1.2501,1.2501,1.2501,1.2501,1.2501,1.2501,1.2576,1.2712,1.2868,1.3017,1.3159,1.3308,1.3383,1.3403,1.3403,1.3403,1.3403,0.0,0.0,0.0,0.0,0.0,0.0,0.0,0.0,0.0,0.0,0.0,0.0,0.0,0.0,0.0,0.0,0.0,0.0,0.0,0.0,0.0,0.0,0.0,0.0,0.0,0.0,0.0,0.0,0.0,0.0,0.0,0.0,0.0,0.0,0.0,0.0,0.0,0.0,0.0,0.0,0.0,0.0,0.0,0.0,0.0,0.0,0.0,0.0,0.0,0.0,0.0,0.0,0.0,0.0,0.0,0.0,0.0,0.0,0.0,0.0,0.0,0.0,0.0,0.0,0.0,0.0,0.2333,0.2333,0.2333,0.2333,0.2333,0.2333,0.3348,0.6463,0.697,0.8059,1.1181,1.1619,1.1647,1.1728,1.1789,1.1925,1.2169,1.225,1.2345,1.2488,1.2501,1.2501,1.2501,1.2501,1.2501,1.2501,1.2501,1.2501,1.2501,1.2501,1.2501,1.2501,1.2501,1.2501,1.2501,1.2501,1.2501,1.2508,1.2589,1.2671,1.2745,1.2983,1.3119,1.3186,1.3342,1.3403,1.3403,1.3403,1.3403,1.3403,0.0,0.0,0.0,0.0,0.0,0.0,0.0,0.0,0.0,0.0,0.0,0.0,0.0,0.0,0.0,0.0,0.0,0.0,0.0,0.0,0.0,0.0,0.0,0.0,0.0,0.0,0.0,0.0,0.0,0.0,0.0,0.0,0.0,0.0,0.0,0.0,0.0,0.0,0.0,0.0,0.0,0.0,0.0,0.0,0.0,0.0,0.0,0.0,0.0,0.0,0.0,0.0,0.0,0.0,0.0,0.0,0.0,0.0,0.0,0.0,0.0,0.0,0.0,0.0,0.0,0.0,0.2333,0.0,0.2333,0.2333,0.2333,0.2333,0.3348,0.6463,0.697,0.8059,1.1181,1.1653,1.1714,1.1816,1.1898,1.204,1.2271,1.2325,1.2386,1.2494,1.2501,1.2501,1.2501,1.2501,1.2501,1.2501,1.2501,1.2501,1.2501,1.2501,1.2501,1.2501,1.2501,1.2501,1.2501,1.2501,1.2522,1.2569,1.2678,1.2752,1.2807,1.3064,1.3193,1.3241,1.3356,1.3403,1.3403,1.3403,1.3403,1.3403,0.0,0.0,0.0,0.0,0.0,0.0,0.0,0.0,0.0,0.0,0.0,0.0,0.0,0.0,0.0,0.0,0.0,0.0,0.0,0.0,0.0,0.0,0.0,0.0,0.0,0.0,0.0,0.0,0.0,0.0,0.0,0.0,0.0,0.0,0.0,0.0,0.0,0.0,0.0,0.0,0.0,0.0,0.0,0.0,0.0,0.0,0.0,0.0,0.0,0.0,0.0,0.0,0.0,0.0,0.0,0.0,0.0,0.0,0.0,0.0,0.0,0.0,0.0,0.0,0.0,0.0,0.0,0.2333,0.2333,0.2333,0.2333,0.2333,0.3348,0.6463,0.697,0.8059,1.1181,1.1735,1.1823,1.183,1.2088,1.2271,1.2291,1.2413,1.2494,1.2501,1.2501,1.2501,1.2501,1.2501,1.2501,1.2501,1.2501,1.2501,1.2501,1.2501,1.2501,1.2501,1.2501,1.2501,1.2501,1.2501,1.2583,1.2718,1.2725,1.2813,1.2963,1.3112,1.3261,1.339,1.3397,1.3403,1.3403,1.3403,1.3403,1.3403,0.0,0.0,0.0,0.0,0.0,0.0,0.0,0.0,0.0,0.0,0.0,0.0,0.0,0.0,0.0,0.0,0.0,0.0,0.0,0.0,0.0,0.0,0.0,0.0,0.0,0.0,0.0,0.0,0.0,0.0,0.0,0.0,0.0,0.0,0.0,0.0,0.0,0.0,0.0,0.0,0.0,0.0,0.0,0.0,0.0,0.0,0.0,0.0,0.0,0.0,0.0,0.0,0.0,0.0,0.0,0.0,0.0,0.0,0.0,0.0,0.0,0.0,0.0,0.0,0.0,0.0,0.2333,0.2333,0.2333,0.2333,0.2333,0.2333,0.3348,0.6463,0.697,0.8078,1.1299,1.1796,1.1904,1.2101,1.2223,1.2325,1.242,1.2474,1.2501,1.2501,1.2501,1.2501,1.2501,1.2501,1.2501,1.2501,1.2501,1.2501,1.2501,1.2501,1.2501,1.2501,1.2501,1.2501,1.2508,1.2603,1.2678,1.2739,1.2929,1.3044,1.3112,1.3254,1.3349,1.3403,1.3403,1.3403,1.3403,1.3403,1.3403,1.3403,0.0,0.0,0.0,0.0,0.0,0.0,0.0,0.0,0.0,0.0,0.0,0.0,0.0,0.0,0.0,0.0,0.0,0.0,0.0,0.0,0.0,0.0,0.0,0.0,0.0,0.0,0.0,0.0,0.0,0.0,0.0,0.0,0.0,0.0,0.0,0.0,0.0,0.0,0.0,0.0,0.0,0.0,0.0,0.0,0.0,0.0,0.0,0.0,0.0,0.0,0.0,0.0,0.0,0.0,0.0,0.0,0.0,0.0,0.0,0.0,0.0,0.0,0.0,0.0,0.0,0.0,0.0,0.226,0.2333,0.2335,0.2346,0.2348,0.3372,0.6578,0.7088,0.8217,1.1443,1.1952,1.206,1.2264,1.2332,1.24,1.2494,1.2501,1.2501,1.2501,1.2501,0.0,1.2501,1.2501,1.2501,1.2501,1.2501,1.2501,1.2501,1.2501,1.2501,1.2501,1.2501,1.2528,1.2583,1.2684,1.2786,1.2888,1.3085,1.3173,1.3186,1.3336,1.3403,1.3403,1.3403,1.3403,1.3403,1.3403,1.3403,1.3403,0.0,0.0,0.0,0.0,0.0,0.0,0.0,0.0,0.0,0.0,0.0,0.0,0.0,0.0,0.0,0.0,0.0,0.0,0.0,0.0,0.0,0.0,0.0,0.0,0.0,0.0,0.0,0.0,0.0,0.0,0.0,0.0,0.0,0.0,0.0,0.0,0.0,0.0,0.0,0.0,0.0,0.0,0.0,0.0,0.0,0.0,0.0,0.0,0.0,0.0,0.0,0.0,0.0,0.0,0.0,0.0,0.0,0.0,0.0,0.0,0.0,0.0,0.0,0.0,0.1606,0.0,0.1898,0.2189,0.2262,0.2345,0.2373,0.2379,0.3491,0.667,0.7187,0.8331,1.1667,1.2196,1.2291,1.2298,1.242,1.2501,1.2501,1.2501,1.2501,1.2501,1.2501,1.2501,1.2501,1.2501,1.2501,1.2501,1.2501,1.2501,1.2501,1.2501,1.2501,1.2501,1.2508,1.2583,1.2732,1.2739,1.2901,1.3173,1.318,1.318,1.3193,1.3342,1.3403,1.3403,1.3403,1.3403,1.3403,1.3403,1.3403,1.3403,0.0,0.0,0.0,0.0,0.0,0.0,0.0,0.0,0.0,0.0,0.0,0.0,0.0,0.0,0.0,0.0,0.0,0.0,0.0,0.0,0.0,0.0,0.0,0.0,0.0,0.0,0.0,0.0,0.0,0.0,0.0,0.0,0.0,0.0,0.0,0.0,0.0,0.0,0.0,0.0,0.0,0.0,0.0,0.0,0.0,0.0,0.0,0.0,0.0,0.0,0.0,0.0,0.0,0.0,0.0,0.0,0.0,0.0,0.0,0.0,0.0,0.0,0.0,0.0,0.0899,0.1124,0.1499,0.1874,0.1948,0.2026,0.2334,0.241,0.3472,0.6838,0.7323,0.8365,1.1743,1.2264,1.2332,1.2433,1.2474,1.2501,1.2501,1.2501,1.2501,0.0,1.2501,1.2501,1.2501,1.2501,1.2501,1.2501,1.2501,1.2501,1.2501,1.2501,1.2501,1.2501,1.2617,1.2691,1.2739,1.2956,1.3091,1.318,1.3288,1.3336,1.3342,1.3383,1.3403,1.3403,1.3403,1.3403,1.3403,1.3403,1.3403,1.3403,0.0,0.0,0.0,0.0,0.0,0.0,0.0,0.0,0.0,0.0,0.0,0.0,0.0,0.0,0.0,0.0,0.0,0.0,0.0,0.0,0.0,0.0,0.0,0.0,0.0,0.0,0.0,0.0,0.0,0.0,0.0,0.0,0.0,0.0,0.0,0.0,0.0,0.0,0.0,0.0,0.0,0.0,0.0,0.0,0.0,0.0,0.0,0.0,0.0,0.0,0.0,0.0,0.0,0.0,0.0,0.0,0.0,0.0,0.0,0.0,0.0,0.0,0.0,0.0,0.0757,0.106,0.1363,0.0,0.2044,0.2123,0.2364,0.305,0.4359,0.7034,0.8004,0.9284,1.1976,1.2379,1.2406,1.2488,1.2501,1.2501,1.2501,1.2501,1.2501,1.2501,1.2501,1.2501,1.2501,1.2501,1.2501,1.2501,1.2501,1.2501,1.2501,1.2501,1.2501,1.2501,1.2657,1.2766,1.2834,1.3064,1.3207,1.3275,1.3363,1.3403,1.3403,1.3403,1.3403,1.3403,1.3403,1.3403,1.3403,1.3403,1.3403,1.3403,0.0,0.0,0.0,0.0,0.0,0.0,0.0,0.0,0.0,0.0,0.0,0.0,0.0,0.0,0.0,0.0,0.0,0.0,0.0,0.0,0.0,0.0,0.0,0.0,0.0,0.0,0.0,0.0,0.0,0.0,0.0,0.0,0.0,0.0,0.0,0.0,0.0,0.0,0.0,0.0,0.0,0.0,0.0,0.0,0.0,0.0,0.0,0.0,0.0,0.0,0.0,0.0,0.0,0.0,0.0,0.0,0.0,0.0,0.0,0.0,0.0,0.0,0.0,0.0,0.0912,0.1064,0.1292,0.2053,0.2205,0.2213,0.2315,0.355,0.5106,0.68,0.8526,1.0319,1.2269,1.2501,1.2501,1.2501,1.2501,1.2501,1.2501,1.2501,1.2501,1.2501,1.2501,1.2501,1.2501,1.2501,1.2501,1.2501,1.2501,1.2501,1.2501,1.2501,1.2508,1.2528,1.2684,1.2834,1.307,1.3132,1.3275,1.3403,1.3403,1.3403,1.3403,1.3403,1.3403,1.3403,1.3403,1.3403,1.3403,1.3403,1.3403,1.3403,0.0,0.0,0.0,0.0,0.0,0.0,0.0,0.0,0.0,0.0,0.0,0.0,0.0,0.0,0.0,0.0,0.0,0.0,0.0,0.0,0.0,0.0,0.0,0.0,0.0,0.0,0.0,0.0,0.0,0.0,0.0,0.0,0.0,0.0,0.0,0.0,0.0,0.0,0.0,0.0,0.0,0.0,0.0,0.0,0.0,0.0,0.0,0.0,0.0,0.0,0.0,0.0,0.0,0.0,0.0,0.0,0.0,0.0,0.0,0.0,0.0,0.0,0.0,0.0,0.0234,0.0234,0.039,0.0,0.0936,0.1093,0.1486,0.1799,0.2581,0.4227,0.6179,0.8677,1.203,1.2501,1.2501,1.2501,1.2501,1.2501,1.2501,1.2501,1.2501,1.2501,1.2501,1.2501,1.2501,1.2501,1.2501,1.2501,1.2501,1.2501,1.2501,1.2501,1.2562,1.2684,1.284,1.299,1.3139,1.3288,1.337,1.3403,1.3403,1.3403,1.3403,1.3403,1.3403,1.3403,1.3403,1.3403,1.3403,1.3403,1.3403,1.3403,0.0,0.0,0.0,0.0,0.0,0.0,0.0,0.0,0.0,0.0,0.0,0.0,0.0,0.0,0.0,0.0,0.0,0.0,0.0,0.0,0.0,0.0,0.0,0.0,0.0,0.0,0.0,0.0,0.0,0.0,0.0,0.0,0.0,0.0,0.0,0.0,0.0,0.0,0.0,0.0,0.0,0.0,0.0,0.0,0.0,0.0,0.0,0.0,0.0,0.0,0.0,0.0,0.0,0.0,0.0,0.0,0.0,0.0,0.0,0.0,0.0,0.0,0.0,0.0,0.0,0.0314,0.0393,0.0864,0.0942,0.1021,0.1256,0.0,0.3057,0.4776,0.6803,0.9066,1.1798,1.2347,1.2501,1.2501,1.2501,1.2501,1.2501,1.2501,1.2501,1.2501,1.2501,1.2501,1.2501,1.2501,1.2501,1.2501,1.2501,1.2501,1.2501,1.2576,1.2657,1.2732,1.2956,1.3105,1.318,1.3329,1.3403,1.3403,1.3403,1.3403,1.3403,1.3403,1.3403,1.3403,1.3403,1.3403,1.3403,1.3403,1.3403,1.3403,0.0,0.0,0.0,0.0,0.0,0.0,0.0,0.0,0.0,0.0,0.0,0.0,0.0,0.0,0.0,0.0,0.0,0.0,0.0,0.0,0.0,0.0,0.0,0.0,0.0,0.0,0.0,0.0,0.0,0.0,0.0,0.0,0.0,0.0,0.0,0.0,0.0,0.0,0.0,0.0,0.0,0.0,0.0,0.0,0.0,0.0,0.0,0.0,0.0,0.0,0.0,0.0,0.0,0.0,0.0,0.0,0.0,0.0,0.0,0.0,0.0,0.0,0.0,0.0079,0.0,0.0,0.0,0.0,0.0,0.0,0.0,0.0,0.0,0.0,0.0,0.0,0.0,1.1315,0.0,1.2424,1.2501,1.2501,1.2501,1.2501,1.2501,1.2501,1.2501,1.2501,1.2501,1.2501,1.2501,1.2501,1.2501,1.2515,1.2549,1.2671,1.2759,1.282,1.3057,1.3186,1.322,1.3342,1.3403,1.3403,1.3403,1.3403,1.3403,1.3403,1.3403,1.3403,1.3403,1.3403,1.3403,1.3403,1.3403,1.3403,0.018,0.0,0.0,0.0,0.0,0.0,0.0,0.0,0.0,0.0,0.0,0.0,0.0,0.0,0.0,0.0,0.0,0.0,0.0,0.0,0.0,0.0,0.0,0.0,0.0,0.0,0.0,0.0,0.0,0.0,0.0,0.0,0.0,0.0,0.0,0.0,0.0,0.0,0.0,0.0,0.0,0.0,0.0,0.0,0.0,0.0,0.0,0.0,0.0,0.0,0.0,0.0,0.0,0.0,0.0,0.0,0.0,0.0,0.0,0.0,0.0,0.0,0.0,0.0,0.0,0.0,0.0079,0.0157,0.0,0.0,0.0,0.0,0.0,0.0,0.0,0.0,0.6089,0.7997,1.0003,1.2269,1.2501,1.2501,1.2501,1.2501,1.2501,1.2501,1.2501,1.2501,1.2501,1.2501,1.2501,1.2501,1.2501,1.2569,1.2705,1.2718,1.2861,1.3125,1.3159,1.3241,1.3376,1.339,1.3403,1.3403,1.3403,1.3403,1.3403,1.3403,1.3403,1.3403,1.3403,1.3403,1.3403,1.3403,1.3403,1.3403,0.0537,0.0449,0.0359,0.009,0.0,0.0,0.0,0.0,0.0,0.0,0.0,0.0,0.0,0.0,0.0,0.0,0.0,0.0,0.0,0.0,0.0,0.0,0.0,0.0,0.0,0.0,0.0,0.0,0.0,0.0,0.0,0.0,0.0,0.0,0.0,0.0,0.141,0.0,0.0537,0.0,0.0,0.0,0.0,0.0365,0.0,0.0,0.0,0.0,0.0,0.0,0.0,0.0,0.0,0.0,0.0,0.0,0.0,0.0,0.0,0.0,0.0,0.0,0.0,0.0,0.0,0.0,0.0,0.0,0.0,0.0,0.0,0.0,0.0,0.0,0.3199,0.0,0.0,0.0,0.9537,0.0,0.0,0.0,1.2501,1.2501,1.2501,1.2501,1.2501,1.2501,1.2501,1.2501,1.2501,1.2501,1.2501,1.2576,1.2725,1.282,1.2969,1.3173,1.3261,1.3342,1.3403,1.3403,1.3403,1.3403,1.3403,1.3403,1.3403,1.3403,1.3403,1.3403,1.3403,1.3403,1.3403,1.3403,1.3403,1.3403,0.1951,0.1335,0.0801,0.0,0.0,0.0,0.0,0.0,0.0,0.0,0.0,0.0,0.0,0.0,0.0,0.0,0.0,0.0,0.0,0.0,0.0,0.0,0.0,0.0,0.0,0.0,0.0,0.0,0.0,0.0,0.0,0.0,0.0,0.0,0.0,0.0942,0.2427,0.0,0.1618,0.3204,0.3088,0.3042,0.2852,0.1751,0.1021,0.0656,0.0656,0.0656,0.0656,0.0656,0.0948,0.0,0.1384,0.0,0.0,0.0,0.0,0.0,0.2027,0.0,0.0,0.0,0.0,0.0,0.0,0.0,0.0,0.0,0.0,0.0,0.0,0.0,0.0,0.0,0.0,0.5315,0.0,0.0,0.0,0.0,0.0,0.0,0.0,1.2501,1.2501,1.2501,1.2501,1.2501,1.2501,1.2501,1.2501,1.2501,1.2542,1.2637,1.2793,1.2942,1.3091,1.3234,1.3349,1.3403,1.3403,1.3403,1.3403,1.3403,1.3403,1.3403,1.3403,1.3403,1.3403,1.3403,1.3403,1.3403,1.3403,1.3403,1.3403,1.3403,0.5033,0.2781,0.0,0.0,0.0,0.0,0.0,0.0,0.0,0.0,0.0,0.0,0.0,0.0,0.0,0.0,0.0,0.0,0.0,0.0,0.0,0.0,0.0,0.0,0.0,0.0,0.0,0.0,0.0,0.0,0.0,0.0,0.0,0.0,0.0,0.0942,0.2507,0.2427,0.3366,0.4925,0.4943,0.4845,0.4733,0.0,0.3567,0.2257,0.2257,0.0,0.0,0.2257,0.3276,0.0,0.0,0.0,0.0,0.0,0.0,0.0,0.0,0.0,0.0,0.3521,0.0,0.0,0.0,0.0,0.196,0.0,0.0,0.0,0.0,0.0,0.0,0.0,0.0,0.0,0.0,0.0,0.0,0.0,0.0,0.0,0.0,1.2501,1.2501,1.2501,1.2501,1.2501,1.2501,1.2501,1.2501,1.2501,1.2644,1.28,1.2949,1.3098,1.3241,1.3397,1.3397,1.3403,1.3403,1.3403,1.3403,1.3403,1.3403,1.3403,1.3403,1.3403,1.3403,1.3403,1.3403,1.3403,1.3403,1.3403,1.3403,1.3403,0.7039,0.0,0.0,0.0,0.0,0.0,0.0,0.0846,0.0,0.0,0.0167,0.0,0.0,0.0,0.0,0.0,0.0,0.0,0.0,0.0,0.0,0.0,0.0,0.0,0.0,0.0,0.0,0.0,0.0,0.0,0.0,0.0,0.0,0.0,0.0,0.1569,0.0,0.0,0.0,0.0,0.0,0.7069,0.7694,0.0,0.4366,0.3857,0.3857,0.3857,0.0,0.3857,0.4364,0.5096,0.5357,0.6345,0.7281,0.6445,0.6964,0.7621,0.0,0.0,0.6098,0.5396,0.0,0.0,0.0,0.0,0.0,0.0,0.0,0.0,0.0,0.0,0.0,0.0,0.0,0.0,0.0,0.0,0.0,0.0,0.0,0.0,0.0,0.0,0.0,1.2501,1.2501,1.2501,1.2501,1.2501,1.2501,1.2501,1.2651,1.2807,1.3043,1.3105,1.3247,1.3403,1.3403,1.3403,1.3403,1.3403,1.3403,1.3403,1.3403,1.3403,1.3403,1.3403,1.3403,1.3403,1.3403,1.3403,1.3403,1.3403,1.3403,1.3403,0.9054,0.8971,0.0,0.0,0.0,0.0,0.0,0.0,0.0,0.0,0.033,0.0,0.0,0.0,0.0,0.0,0.0,0.0,0.0,0.0,0.0,0.0,0.0,0.0,0.0,0.0,0.0,0.0,0.0,0.0,0.0,0.0,0.0,0.0,0.0,0.1882,0.4936,0.3838,0.53,0.0,0.0,0.877,0.0,0.0,0.6085,0.5528,0.0,0.5528,0.5528,0.5673,0.6272,0.7031,0.7452,0.8489,0.9404,0.8635,0.9157,0.9746,0.8808,0.8517,0.0,0.7583,0.7816,0.0,0.6023,0.0,0.6417,0.0,0.0,0.0,0.0,0.0,0.0,0.0,0.0,0.0,0.0,0.8764,0.0,0.0,0.0,0.0,0.0,0.0,1.2501,1.2501,1.2501,1.2501,0.0,1.2501,1.2528,1.2583,1.2732,1.2881,1.3037,1.318,1.3302,1.3403,1.3403,1.3403,1.3403,1.3403,1.3403,1.3403,1.3403,1.3403,1.3403,1.3403,1.3403,1.3403,1.3403,1.3403,1.3403,1.3403,1.3403,1.3403,1.1142,1.0804,1.0294,0.0,0.6703,0.0,0.0,0.0,0.1323,0.0,0.0324,0.0,0.0,0.0,0.0,0.0,0.0,0.0,0.0,0.0,0.0,0.0,0.0,0.0,0.0,0.0,0.0,0.0,0.0,0.0,0.0,0.0,0.0,0.0,0.0157,0.0,0.5092,0.5092,0.7045,1.0008,0.9894,0.9845,0.9824,0.972,0.8637,0.714,0.714,0.714,0.7212,0.757,0.8805,1.0302,1.1049,1.1531,1.1835,1.2222,1.2393,1.2501,1.2501,1.2501,1.203,1.0075,1.0785,0.0,0.0,0.0,0.8366,0.0,0.0,0.0,0.0,0.0,0.0,0.0,0.0,0.0,0.0,0.0,0.0,0.0,0.0,0.0,0.0,1.2501,1.2501,1.2501,1.2501,0.0,0.0,1.2508,1.2576,1.2725,1.2888,1.3037,1.3173,1.3322,1.3403,1.3403,1.3403,1.3403,1.3403,1.3403,1.3403,1.3403,1.3403,1.3403,1.3403,1.3403,1.3403,1.3403,1.3403,1.3403,1.3403,1.3403,1.3403,1.3403,1.2816,1.2643,1.2402,0.0,0.9264,0.7121,0.0,0.0,0.0,0.0,0.129,0.0,0.0,0.0,0.0,0.0,0.0,0.0,0.0,0.0,0.0,0.0,0.0,0.0,0.0,0.0,0.0,0.0,0.0,0.0,0.0,0.0,0.0,0.0,0.0,0.0,0.6889,0.6889,0.8063,1.0019,0.9987,0.9916,0.9835,0.0,0.9473,0.8979,0.8979,0.8979,0.9053,0.9494,1.0111,1.0828,1.1384,1.1851,1.2159,1.2413,1.2474,1.2501,1.2501,1.2501,1.2347,1.1876,1.203,1.196,0.0,0.0,0.0,0.0,0.0,0.0,0.0,0.0,0.0,0.0,0.0,0.0,0.0,0.0,0.0,1.1107,0.0,0.0,1.2037,1.2347,1.2501,1.2501,1.2501,0.0,0.0,0.0,1.2691,1.2725,1.2983,1.3139,1.3173,1.3322,1.3403,1.3403,1.3403,1.3403,1.3403,1.3403,1.3403,1.3403,1.3403,1.3403,1.3403,1.3403,1.3403,1.3403,1.3403,1.3403,1.3403,1.3403,1.3403,1.3403,1.3207,1.3139,0.0,1.3078,0.0,0.0,0.8662,0.664,0.0,0.4906,0.279,0.0,0.1347,0.0552,0.0,0.0,0.0,0.0,0.0,0.0,0.0,0.0,0.0,0.0,0.0,0.0,0.0,0.0,0.0,0.0,0.0,0.0,0.0,0.0,0.0,0.4385,0.0,0.8297,0.9158,1.0019,1.0019,0.9981,0.0,0.9916,0.9878,0.9824,0.9824,0.9758,0.9822,1.0341,1.0757,1.112,1.1732,1.2179,1.24,1.2481,1.2501,1.2501,1.2501,1.2501,1.2501,1.2501,1.2501,1.2424,1.196,1.2037,1.2037,0.0,1.1727,1.1805,0.0,0.0,0.0,0.0,0.0,0.0,0.0,0.0,0.0,0.0,1.1805,1.2114,1.1882,1.2269,1.2501,1.2501,1.2501,0.0,0.0,0.0,1.2759,1.2827,1.3051,1.3207,1.3268,1.3356,1.3403,1.3403,1.3403,1.3403,1.3403,1.3403,1.3403,1.3403,1.3403,1.3403,1.3403,1.3403,1.3403,1.3403,1.3403,1.3444,1.3498,1.3498,1.3498,1.3498,1.2963,1.2942,0.0,0.0,0.0,0.0,0.0,0.7991,0.0,0.659,0.0,0.3052,0.3052,0.1176,0.0,0.0,0.0,0.0,0.0,0.0,0.0,0.0,0.0,0.0,0.0,0.0,0.0,0.0,0.0,0.0,0.0,0.0,0.0,0.0,0.0,0.0,0.0,0.9314,0.9864,0.9708,0.9942,1.0019,1.0019,1.0019,1.0019,1.0019,1.0019,0.9889,0.9866,1.0694,1.0999,1.125,1.2089,1.2406,1.2501,1.2501,1.2501,1.2501,1.2501,1.2501,1.2501,1.2501,1.2501,1.2424,1.2037,1.2269,1.2424,1.2037,1.2269,1.2501,1.2501,0.0,0.0,0.0,0.0,0.0,0.0,0.0,0.0,0.0,0.0,0.0,1.2037,1.2269,1.2501,1.2501,0.0,0.0,0.0,0.0,1.2834,1.2983,1.3125,1.3268,1.3397,1.3403,1.3403,1.3403,1.3403,1.3403,1.3403,1.3403,1.3403,1.3403,1.3403,1.3403,1.3403,1.3403,1.341,1.3431,1.3431,1.3526,1.3654,1.3654,1.3668,1.3682,1.2963,0.0,0.0,0.0,0.0,0.9729,0.9042,0.7146,0.6278,0.7612,0.4779,0.2585,0.2585,0.102,0.0,0.0,0.0,0.0,0.0,0.0,0.0,0.0,0.0,0.0,0.0,0.0,0.0,0.0,0.0,0.0,0.0,0.0,0.0,0.0,0.0,0.0,0.7591,0.9314,0.0,0.8063,0.947,1.0019,1.0019,1.0019,1.0019,1.0019,1.0019,0.9992,1.0114,1.0963,1.1284,1.1386,1.2229,1.2481,1.2501,1.2501,1.2501,1.2501,1.2501,1.2501,1.2501,1.2501,1.2501,1.2501,1.2424,1.2424,1.2501,1.2424,1.2424,1.2501,1.2501,0.0,0.0,0.0,0.0,0.0,0.0,0.0,0.0,0.0,0.0,1.2501,1.2424,1.2424,1.2501,0.0,0.0,0.0,0.0,0.0,1.299,0.0,1.3281,1.3376,0.0,0.0,1.3403,1.3403,1.3403,1.3403,1.3403,1.3403,1.3403,1.3403,1.3403,1.3403,1.3403,1.3403,1.3478,1.3587,1.3587,1.3675,1.3718,1.3718,1.3885,1.3973,1.2725,0.0,0.0,0.0,0.0,0.0,0.0,0.6963,0.6186,0.7898,0.5789,0.4073,0.4073,0.1647,0.0,0.0,0.0,0.0,0.0,0.0,0.0,0.0,0.0,0.0,0.0,0.0,0.0,0.0,0.0,0.0,0.0,0.0,0.0,0.0,0.0,0.7201,0.0,0.0,0.0,0.8847,0.9708,1.0019,1.0019,1.0019,1.0019,1.0019,1.0019,1.0097,1.0408,1.1107,1.1417,1.1727,1.2347,1.2501,1.2501,1.2501,1.2501,1.2501,1.2501,1.2501,1.2501,1.2501,1.2501,1.2501,1.2501,1.2501,1.2501,1.2501,1.2501,1.2501,1.2501,1.2347,0.0,0.0,0.0,0.0,0.0,0.0,1.196,0.0,0.0,0.0,0.0,0.0,0.0,0.0,0.0,0.0,0.0,0.0,1.3024,0.0,0.0,0.0,1.3403,0.0,1.3403,1.3403,1.3403,1.3403,1.3403,1.3403,1.3403,1.3403,1.3403,1.3403,1.341,1.3485,1.3559,1.3634,1.3709,1.3831,1.396,1.396,1.4061,1.417,0.0,1.2501,0.0,0.0,0.9459,0.7353,0.8288,0.6889,0.6268,0.7747,0.6495,0.5636,0.5949,0.243,0.0157,0.0471,0.0236,0.0,0.0,0.0,0.0,0.0,0.0,0.0,0.0,0.0,0.0,0.0,0.0,0.0,0.0,0.0,0.0,0.0,0.0,0.0,0.0,0.0,0.8608,0.947,0.9864,1.0019,1.0019,1.0097,1.0097,1.0175,1.0253,1.0563,1.0952,1.1262,1.165,1.196,1.2347,1.2501,1.2501,1.2501,1.2501,1.2501,1.2501,1.2501,1.2501,1.2501,1.2501,1.2501,1.2501,1.2501,1.2501,1.2501,1.2501,1.2501,1.2501,1.2501,0.0,0.0,0.0,0.0,0.0,0.0,0.0,0.0,0.0,0.0,1.2501,0.0,0.0,0.0,0.0,0.0,1.2773,0.0,0.0,0.0,0.0,1.3403,1.3403,0.0,1.3403,1.3403,1.3403,1.3403,1.3403,1.3403,1.3403,1.3403,1.3403,1.3417,1.3458,1.3614,1.3695,1.3736,1.3844,1.3987,1.4122,1.4122,1.4197,1.4285,0.0,0.0,0.0,0.0,0.0,0.7357,0.7119,0.6573,0.6577,0.7435,0.6108,0.5639,0.7123,0.2978,0.0628,0.2117,0.0863,0.0,0.0,0.0,0.0,0.0,0.0,0.0,0.0,0.0,0.0,0.0,0.0,0.0,0.0,0.0,0.0,0.0,0.0,0.0,0.0,0.9158,0.9003,0.7907,0.9392,1.0019,1.0019,1.0408,1.0563,1.0563,1.1029,1.1417,1.1805,1.1805,1.1882,1.196,1.2347,1.2501,1.2501,1.2501,1.2501,1.2501,1.2501,1.2501,1.2501,1.2501,1.2501,1.2501,1.2501,1.2501,1.2501,1.2501,1.2501,1.2501,1.2501,1.2501,1.2501,0.0,0.0,0.0,0.0,0.0,1.2424,1.2501,0.0,0.0,0.0,1.2501,0.0,0.0,1.263,0.0,0.0,0.0,0.0,1.3376,1.3397,1.3403,1.3403,1.3403,1.3403,1.3403,1.3403,1.3403,1.3403,1.3403,1.3403,1.3403,1.3403,1.3478,1.362,1.3763,1.3905,1.4034,1.4048,1.4143,1.4278,1.4278,1.4285,1.4299,0.0,0.0,0.0,0.0,0.0,0.0,0.0,0.684,0.6264,0.5011,0.5796,0.6733,0.7439,0.3916,0.2195,0.3838,0.1569,0.0392,0.1412,0.0549,0.0,0.0,0.0,0.0,0.0,0.0,0.0,0.0,0.0,0.0,0.0,0.0,0.0,0.0,0.0,0.8691,0.9003,0.8608,0.8686,0.908,0.9708,1.0019,1.0019,1.0486,1.0563,1.0641,1.1107,1.1572,1.1882,1.1882,1.2037,1.2269,1.2424,1.2501,1.2501,1.2501,1.2501,1.2501,1.2501,1.2501,1.2501,1.2501,1.2501,1.2501,1.2501,1.2501,1.2501,1.2501,1.2501,1.2501,1.2501,1.2501,1.2501,1.2501,0.0,0.0,0.0,0.0,0.0,1.2501,0.0,1.2501,0.0,0.0,0.0,0.0,0.0,0.0,0.0,0.0,0.0,1.3397,0.0,1.3403,1.3403,1.3403,1.3403,1.3403,1.3403,1.3403,1.3403,1.3403,1.3451,1.3539,1.3539,1.362,1.377,1.3919,1.4014,1.4082,1.4177,1.4245,1.4299,1.4299,1.4299,1.4299,1.2963,0.0,1.2963,0.0,1.15,0.9755,0.8313,0.7449,0.6298,0.4331,0.5727,0.6889,0.6811,0.376,0.243,0.4153,0.1647,0.0471,0.1725,0.0628,0.0,0.0,0.0,0.0,0.0,0.0,0.0,0.0,0.0,0.0,0.0,0.0,0.0,0.0,0.7669,0.8925,0.9942,0.8764,0.8925,1.0019,1.0019,1.0019,1.0097,1.0563,1.0796,1.0874,1.1417,1.1805,1.2114,1.2114,1.2269,1.2501,1.2501,1.2501,1.2501,1.2501,1.2501,1.2501,1.2501,1.2501,1.2501,1.2501,1.2501,1.2501,1.2501,1.2501,1.2501,1.2501,1.2501,1.2501,1.2501,1.2501,1.2501,1.2501,0.0,0.0,0.0,1.2501,0.0,0.0,1.2501,1.2522,1.2562,1.2569,0.0,0.0,0.0,0.0,0.0,0.0,0.0,0.0,0.0,0.0,1.3403,1.3403,1.3403,1.3403,1.3403,1.3403,1.3403,1.3451,1.3526,1.3634,1.3722,1.3817,1.3919,1.4075,1.4136,1.415,1.4258,1.4299,1.4299,1.4299,1.4299,1.4299,1.2963,1.2963,1.2963,1.2963,1.1573,1.0517,1.0437,0.8579,0.6929,0.6529,0.5994,0.5486,0.5092,0.2039,0.0706,0.235,0.0941,0.0,0.0,0.0,0.0,0.0,0.0,0.0,0.0,0.0,0.0,0.0,0.0,0.0,0.0077,0.0,0.6733,0.9942,0.9942,1.0019,1.0019,0.9942,1.0019,1.0019,1.0019,1.0019,1.0097,1.0952,1.1262,1.1417,1.2192,1.2501,1.2501,1.2501,1.2501,1.2501,1.2501,1.2501,1.2501,1.2501,1.2501,1.2501,1.2501,1.2501,1.2501,1.2501,1.2501,1.2501,1.2501,1.2501,1.2501,1.2501,1.2501,1.2501,1.2501,1.2501,1.2501,1.2501,0.0,0.0,0.0,1.2501,0.0,1.2501,1.2501,1.2562,1.2712,1.2725,0.0,0.0,0.0,0.0,0.0,0.0,0.0,1.3403,1.3403,0.0,1.3403,1.3403,1.3403,1.3403,1.3403,1.3403,1.3403,1.3559,1.3627,1.3648,1.3939,1.4068,1.4082,1.4231,1.4299,1.4299,1.4299,1.4299,1.4299,1.4299,1.4299,1.4299,1.3261,1.3261,1.3261,1.3261,1.2759,1.1956,1.0812,0.9975,0.8856,0.7248,0.5546,0.4333,0.3932,0.2611,0.2352,0.0,0.1647,0.0471,0.0,0.0628,0.0,0.0,0.0,0.0,0.0,0.0,0.0,0.0,0.0,0.0,0.0,0.6848,0.8343,0.8375,0.947,1.0019,1.0019,1.0019,1.0019,1.0019,1.0019,1.0175,1.0486,1.1107,1.1495,1.1805,1.2347,1.2501,1.2501,1.2501,1.2501,1.2501,1.2501,1.2501,1.2501,1.2501,1.2501,1.2501,1.2501,1.2501,1.2501,1.2501,1.2501,1.2501,1.2501,1.2501,1.2501,1.2501,1.2501,1.2501,1.2501,1.2501,1.2501,1.2501,1.2501,0.0,1.2501,0.0,1.2501,1.2501,1.2589,1.2678,1.2725,1.2827,0.0,0.0,0.0,0.0,0.0,0.0,0.0,0.0,1.3403,0.0,1.3403,1.3403,1.3403,1.3403,1.3403,1.3458,1.3559,1.3607,1.3736,1.3933,1.4034,1.4129,1.4231,1.4278,1.4299,1.4299,1.4299,1.4299,1.4299,1.4299,1.4299,1.4299,1.3403,1.3403,1.3403,1.3403,1.3322,1.2926,1.1852,1.1079,1.0022,0.8554,0.5932,0.4057,0.3487,0.2484,0.0,0.3078,0.118,0.0471,0.149,0.0549,0.0,0.0,0.0,0.0314,0.0942,0.0314,0.0,0.1882,0.29,0.4307,0.5952,0.8063,0.8847,0.8453,0.9553,1.0019,1.0019,1.0019,1.0019,1.0019,1.0019,1.0175,1.0408,1.0874,1.1184,1.1495,1.2037,1.2269,1.2269,1.2424,1.2501,1.2501,1.2501,1.2501,1.2501,1.2501,1.2501,1.2501,1.2501,1.2501,1.2501,1.2501,1.2501,1.2501,1.2501,1.2501,1.2501,1.2501,1.2501,1.2501,1.2501,1.2501,1.2501,1.2501,1.2501,1.2501,1.2501,0.0,1.2522,0.0,0.0,0.0,0.0,1.2983,1.3098,0.0,0.0,0.0,0.0,0.0,1.3403,1.3403,1.3403,1.3403,1.3403,1.3403,1.3403,1.3403,1.3458,1.3539,1.3634,1.3743,1.3899,1.4075,1.4136,1.4211,1.4299,1.4299,1.4299,1.4299,1.4299,1.4299,1.4299,1.4299,1.4299,1.4299,1.3403,1.3403,1.3403,0.0,1.3403,1.3403,1.3403,1.1953,1.0716,1.0383,0.7192,0.4636,0.3901,0.2116,0.073,0.0481,0.0,0.0,0.0157,0.0157,0.0157,0.0,0.0236,0.1023,0.2514,0.1101,0.1965,0.5181,0.5181,0.6043,0.769,0.769,0.8554,1.0047,1.0047,1.0041,1.003,1.003,1.003,1.0019,1.0019,1.0019,1.0097,1.0486,1.0641,1.0719,1.1572,1.1882,1.1882,1.2269,1.2424,1.2424,1.2424,1.2501,1.2501,1.2501,1.2501,1.2501,1.2501,1.2501,1.2501,1.2501,1.2501,1.2501,1.2501,1.2501,1.2501,1.2501,1.2501,1.2501,1.2501,1.2501,1.2501,1.2501,1.2501,1.2501,1.2501,1.2508,1.2569,0.0,0.0,0.0,1.3146,1.318,1.3247,0.0,0.0,0.0,0.0,0.0,1.3403,1.3403,1.3403,1.3403,1.3403,1.3403,1.3403,1.3417,1.3559,1.3641,1.3668,1.3946,1.4075,1.4095,1.4238,1.4299,1.4299,1.4299,1.4299,1.4299,1.4299,1.4299,1.4299,1.4299,1.4299,1.4299,0.0,0.0,1.3403,1.3403,1.3403,1.3403,1.3403,1.3039,1.2764,1.2592,0.9238,0.7233,0.8388,0.5036,0.3287,0.4502,0.1785,0.0565,0.1934,0.2095,0.1451,0.0081,0.2657,0.3621,0.2657,0.3623,0.5147,0.7236,0.7236,0.8042,0.9737,0.9737,0.9897,1.0297,1.0297,1.0248,1.0161,1.0161,1.0106,1.0019,1.0019,1.0175,1.0486,1.0563,1.0796,1.1184,1.134,1.1417,1.1495,1.1572,1.1805,1.2037,1.2037,1.2269,1.2501,1.2501,1.2501,1.2501,1.2501,1.2501,1.2501,1.2501,1.2501,1.2501,1.2501,1.2501,1.2501,1.2501,1.2501,1.2501,1.2501,1.2501,1.2501,1.2501,1.2501,1.2501,1.2501,1.2603,1.2691,0.0,1.2929,1.3091,1.3166,1.3275,1.3363,0.0,0.0,1.3403,1.3403,1.3403,1.3403,1.3403,1.3403,1.3403,1.3403,1.3403,1.3458,1.3573,1.3614,1.3749,1.3966,1.4041,1.4136,1.4245,1.4285,1.4299,1.4299,1.4299,1.4299,1.4299,1.4299,1.4299,1.4299,1.4299,1.4299,1.4299,1.3403,1.3403,1.3403,1.3403,1.3403,1.3403,1.3403,1.3403,1.3403,1.3403,1.0804,0.9212,0.9961,0.7168,0.5737,0.7143,0.434,0.2923,0.3895,0.3895,0.3489,0.2517,0.4381,0.5272,0.5107,0.5272,0.624,0.7859,0.8675,0.9486,1.0384,1.0384,1.0384,1.0384,1.0384,1.0351,1.0286,1.0286,1.0248,1.0188,1.0188,1.0313,1.0414,1.0414,1.0537,1.0719,1.0874,1.0952,1.1029,1.1262,1.1572,1.1882,1.1882,1.2192,1.2501,1.2501,1.2501,1.2501,1.2501,1.2501,1.2501,1.2501,1.2501,1.2501,1.2501,1.2501,1.2501,1.2501,1.2501,1.2501,1.2501,1.2501,1.2501,1.2501,1.2562,1.2603,1.2603,1.2739,1.2861,1.2922,1.3078,1.32,1.3268,1.3349,1.3403,1.3403,1.3403,0.0,1.3403,1.3403,1.3403,1.3403,1.3403,1.3403,1.3403,1.3471,1.3546,1.3634,1.377,1.3919,1.4075,1.4143,1.4224,1.4299,1.4299,1.4299,1.4299,1.4299,1.4299,1.4299,1.4299,1.4299,1.4299,1.4299,1.4299,1.4299,1.3403,1.3403,1.3403,1.3403,1.3403,1.3403,1.3403,1.3403,1.3403,1.3403,1.1813,1.0637,1.0549,0.8878,0.8215,0.9133,0.7413,0.6191,0.5869,0.5788,0.5706,0.5381,0.5947,0.6763,0.79,0.6763,0.6926,0.831,0.9784,1.0438,1.0438,1.0438,1.0438,1.0438,1.0438,1.0427,1.0411,1.0411,1.04,1.0384,1.0384,1.0324,1.0231,1.0231,1.0166,1.0074,1.0465,1.0609,1.067,1.1059,1.1513,1.1882,1.1882,1.2192,1.2501,1.2501,1.2501,1.2501,1.2501,1.2501,1.2501,1.2501,1.2501,1.2501,1.2501,1.2501,1.2501,1.2501,1.2501,1.2501,1.2501,1.2522,1.2535,1.2535,1.2664,1.2766,1.2766,0.0,1.3037,1.3159,1.3193,1.3261,1.339,1.3403,1.3403,1.3403,1.3403,1.3403,1.3403,1.3403,1.3403,1.3403,1.3403,1.341,1.3437,1.3587,1.3675,1.3695,1.3953,1.4082,1.4109,1.4238,1.4299,1.4299,1.4299,1.4299,1.4299,1.4299,1.4299,1.4299,1.4299,1.4299,1.4299,1.4299,1.4299,1.4299,1.3403,1.3403,1.3403,1.3403,1.3403,1.3403,1.3403,1.3403,1.3403,1.3403,1.1813,1.1225,1.2727,1.0976,1.0226,1.1481,1.0865,0.9677,0.7841,0.7675,0.7009,0.5427,0.826,0.9345,0.809,0.9262,1.0014,1.0263,1.0517,1.0683,1.0683,1.0683,1.0683,1.0683,1.0683,1.0623,1.0612,1.0612,1.0476,1.0384,1.0384,1.0373,1.0356,1.0356,1.0346,1.0329,1.0409,1.0583,1.0803,1.0882,1.136,1.1882,1.1882,1.2192,1.2501,1.2501,1.2501,1.2501,1.2501,1.2501,1.2501,1.2501,1.2501,1.2501,1.2501,1.2501,1.2501,1.2501,1.2501,1.2501,1.2501,1.261,1.2698,1.2698,1.2827,1.2929,1.2929,0.0,1.3146,1.3173,1.3288,1.3376,1.3397,1.3403,1.3403,1.3403,1.3403,1.3403,1.3403,1.3403,1.3403,1.3403,1.3403,1.3464,1.3593,1.3736,1.3871,1.4007,1.4048,1.4143,1.4265,1.4292,1.4299,1.4299,1.4299,1.4299,1.4299,1.4299,1.4299,1.4299,1.4299,1.4299,1.4299,1.4299,1.4299,1.4299,1.3403,1.3403,1.3403,1.3403,1.3403,1.3403,1.3403,1.3403,1.3403,1.3403,1.2644,1.2478,1.3314,1.2478,1.1979,1.2401,1.2069,1.1231,0.9976,0.9643,0.9142,0.8303,0.9815,1.0315,0.9476,1.0315,1.0737,1.0737,1.0737,1.0737,1.0737,1.0737,1.0737,1.0737,1.0737,1.0704,1.0655,1.0655,1.0623,1.0574,1.0574,1.0536,1.0476,1.0476,1.0438,1.047,1.0625,1.0833,1.0941,1.1181,1.1616,1.2114,1.2114,1.243,1.2752,1.2752,1.263,1.2501,1.2501,1.2501,1.2501,1.2501,1.2501,1.2501,1.2501,1.2501,1.2522,1.261,1.2623,1.2651,1.2732,1.2807,1.2854,1.2854,1.2976,0.0,1.3078,1.32,1.3295,1.3295,1.3356,1.3403,1.3403,1.3403,1.3403,1.3403,1.3403,1.3403,1.3403,1.3403,1.3437,1.3519,1.3526,1.3593,1.3743,1.3892,1.4,1.4075,1.4156,1.4231,1.4299,1.4299,1.4299,1.4299,1.4299,1.4299,1.4299,1.4299,1.4299,1.4299,1.4299,1.4299,1.4299,1.4299,1.4299,1.4299,1.3403,1.3403,1.3403,1.3403,1.3403,1.3403,1.3403,1.3403,1.3403,1.3403,1.3403,1.3403,1.3403,1.3403,1.3238,1.2733,1.2401,1.1986,1.1403,1.107,1.082,1.0737,1.0737,1.0737,1.0737,1.0737,1.0737,1.0737,1.0737,1.0737,1.0737,1.0737,1.0737,1.0737,1.0737,1.0737,1.0737,1.0737,1.0737,1.0737,1.0737,1.0683,1.0596,1.0596,1.0623,1.0628,1.0952,1.1178,1.1391,1.1795,1.2098,1.2475,1.2475,1.2722,1.2963,1.2963,1.2793,1.261,1.261,1.261,1.261,1.261,1.261,1.261,1.261,1.261,1.2644,1.2759,1.2786,1.282,1.2942,1.307,1.301,1.301,0.0,1.3227,1.3227,1.3329,1.3403,1.3403,1.3403,1.3403,1.3403,1.3403,1.3403,1.3403,1.3403,1.3403,1.3403,1.3437,1.3539,1.3729,1.3729,1.3783,1.3892,1.4048,1.4122,1.4129,1.4245,1.4299,1.4299,1.4299,1.4299,1.4299,1.4299,1.4299,1.4299,1.4299,1.4299,1.4299,1.4299,1.4299,1.4299,1.4299,1.4299,1.4299,1.3403,1.3403,1.3403,1.3403,1.3403,1.3403,1.3403,1.3403,1.3403,1.3403,1.3403,1.3403,1.3403,1.3403,1.3238,1.2733,1.265,1.2318,1.1486,1.1403,1.1153,1.0737,1.0737,1.0737,1.0737,1.0737,1.0737,1.0737,1.0737,1.0737,1.0737,1.0737,1.0737,1.0737,1.0737,1.0737,1.0737,1.0737,1.0737,1.0737,1.0737,1.0732,1.0721,1.0721,1.097,1.1291,1.1374,1.1794,1.242,1.242,1.2667,1.2963,1.2963,1.2963,1.2963,1.2963,1.2942,1.2929,1.2929,1.2929,1.2929,1.2929,1.2929,1.2929,1.2929,1.2929,1.2929,1.2942,1.2942,1.2949,1.3043,1.3071,1.3159,1.3159,0.0,0.0,1.3383,1.3397,1.3403,1.3403,1.3403,1.3403,1.3403,1.3403,1.3403,1.3403,1.3403,1.3403,1.3403,1.3539,1.3743,1.4027,1.4041,1.4041,1.4055,1.4204,1.4285,1.4285,1.4292,1.4299,1.4299,1.4299,1.4299,1.4299,1.4299,1.4299,1.4299,1.4299,1.4299,1.4299,1.4299,1.4299,1.4299,1.4299,1.4299,1.4299,1.3546,1.3464,1.3403,1.3403,1.3403,1.3403,1.3403,1.3403,1.3403,1.3403,1.3403,1.3403,1.3403,1.3403,1.3321,1.3155,1.2899,1.2567,1.2235,1.1736,1.1153,1.0737,1.0737,1.0737,1.0737,1.0737,1.0737,1.0737,1.0737,1.0737,1.0737,1.0737,1.0737,1.0737,1.0737,1.0737,1.0737,1.0737,1.0737,1.0737,1.0737,1.0737,1.0737,1.0737,1.0987,1.1403,1.1736,1.2204,1.2649,1.2986,1.311,1.3234,1.3234,1.3234,1.3234,1.3234,1.3234,1.3234,1.3234,1.3098,1.2963,1.2963,1.2963,1.2963,1.2963,1.2963,1.2983,1.3071,1.3091,1.3119,1.3214,1.3275,1.3315,1.3315,0.0,1.3403,1.3403,1.3403,1.3403,1.3403,1.3403,1.3403,1.3403,1.3403,1.3403,1.3403,1.3492,1.3546,1.3546,1.377,1.3953,1.4068,1.4163,1.4211,1.4211,1.4272,1.4299,1.4299,1.4299,1.4299,1.4299,1.4299,1.4299,1.4299,1.4299,1.4299,1.4299,1.4299,1.4299,1.4299,1.4299,1.4299,1.4299,1.4299,1.4299,1.4299,1.3695,1.3614,1.3539,1.3539,1.3539,1.3539,1.3539,1.3539,1.3539,1.3539,1.3539,1.3539,1.3539,1.3539,1.3539,1.3539,1.3204,1.2952,1.2869,1.2029,1.1322,1.0742,1.0737,1.0737,1.0737,1.0737,1.0737,1.0737,1.0737,1.0737,1.0737,1.0737,1.0737,1.0737,1.0737,1.0737,1.0737,1.0737,1.0737,1.0737,1.0737,1.082,1.0904,1.0904,1.132,1.1819,1.2152,1.2567,1.2982,1.3321,1.3403,1.3403,1.3403,1.3403,1.3403,1.3403,1.3403,1.3403,1.3403,1.3254,1.3098,1.3098,1.3098,1.3098,1.3098,1.3098,1.3125,1.322,1.3247,1.3275,1.3383,1.3403,1.3403,1.3403,1.3403,1.3403,1.3403,1.3403,1.3403,1.3403,1.3403,1.3403,1.3403,1.3403,1.3417,1.3471,1.3566,1.3668,1.3763,1.396,1.4095,1.4143,1.4245,1.4299,1.4299,1.4299,1.4299,1.4299,1.4299,1.4299,1.4299,1.4299,1.4299,1.4299,1.4299,1.4299,1.4299,1.4299,1.4299,1.4299,1.4299,1.4299,1.4299,1.4299,1.4299,1.4299,1.3844,1.3838,1.3838,1.3838,1.3838,1.3838,1.3838,1.3838,1.3838,1.3838,1.3838,1.3838,1.3838,1.3838,1.3838,1.3838,1.3838,1.3666,1.3238,1.2306,1.1504,1.0748,1.0737,1.0737,1.0737,1.0737,1.0737,1.0737,1.0737,1.0737,1.0737,1.0737,1.0737,1.0737,1.0737,1.0737,1.0737,1.0737,1.0737,1.0737,1.0737,1.0987,1.1403,1.1403,1.1902,1.2733,1.2733,1.2982,1.3403,1.3403,1.3403,1.3403,1.3403,1.3403,1.3403,1.3403,1.3403,1.3403,1.3403,1.3403,1.3403,1.3403,1.3403,1.3403,1.3403,1.3403,1.3403,1.3403,1.3403,1.3403,1.3403,1.3403,1.3403,1.3403,1.3403,1.3403,1.3403,1.3403,1.3403,1.3403,1.3403,1.3403,1.3403,1.3403,1.3464,1.362,1.3634,1.3763,1.4055,1.4075,1.4143,1.4292,1.4299,1.4299,1.4299,1.4299,1.4299,1.4299,1.4299,1.4299,1.4299,1.4299,1.4299,1.4299,1.4299,1.4299,1.4299,1.4299,1.4299,1.4299,1.4299,1.4299,1.4299,1.4299,1.4299,1.4299,1.4,1.3912,1.3838,1.3838,1.3838,1.3838,1.3838,1.3838,1.3838,1.3838,1.3838,1.3838,1.3838,1.3838,1.3838,1.3838,1.3838,1.3666,1.3238,1.2901,1.2521,1.2009,1.1334,1.0992,1.0992,1.0992,1.0949,1.0862,1.0862,1.0819,1.0737,1.0737,1.0737,1.0737,1.0737,1.0737,1.0737,1.0737,1.0737,1.0737,1.107,1.132,1.1403,1.1736,1.2235,1.2733,1.2733,1.2982,1.3403,1.3403,1.3403,1.3403,1.3403,1.3403,1.3403,1.3403,1.3403,1.3403,1.3403,1.3403,1.3403,1.3403,1.3403,1.3403,1.3403,1.3403,1.3403,1.3403,1.3403,1.3403,1.3403,1.3403,1.3403,1.3403,1.3403,1.3403,1.3403,1.3403,1.3403,1.3403,1.3403,1.3444,1.3553,1.3559,1.362,1.377,1.3878,1.4027,1.4224,1.4231,1.4251,1.4299,1.4299,1.4299,1.4299,1.4299,1.4299,1.4299,1.4299,1.4299,1.4299,1.4299,1.4299,1.4299,1.4299,1.4299,1.4299,1.4299,1.4299,1.4299,1.4299,1.4299,1.4299,1.4299,1.4299,1.4299,1.4163,1.4089,1.4021,1.4021,1.4021,1.4021,1.4021,1.4021,1.4021,1.4021,1.4021,1.4021,1.4021,1.4021,1.4021,1.4021,1.4021,1.3847,1.3674,1.35,1.3239,1.2979,1.2196,1.172,1.1365,1.1187,1.1069,1.0992,1.0992,1.1039,1.1137,1.0968,1.0963,1.1137,1.0968,1.0963,1.1137,1.1137,1.1216,1.1463,1.1669,1.1897,1.2058,1.226,1.2567,1.2982,1.2982,1.3148,1.3403,1.3403,1.3403,1.3403,1.3403,1.3403,1.3403,1.3403,1.3403,1.3403,1.3403,1.3403,1.3403,1.3403,1.3403,1.3403,1.3403,1.3403,1.3403,1.3403,1.3403,1.3403,1.3403,1.3403,1.3403,1.3403,1.3403,1.3403,1.3403,1.3403,1.3424,1.3485,1.3492,1.3553,1.3695,1.3709,1.3777,1.3919,1.4075,1.4204,1.4292,1.4299,1.4299,1.4299,1.4299,1.4299,1.4299,1.4299,1.4299,1.4299,1.4299,1.4299,1.4299,1.4299,1.4299,1.4299,1.4299,1.4299,1.4299,1.4299,1.4299,1.4299,1.4299,1.4299,1.4299,1.4299,1.4299,1.4299,1.4299,1.4299,1.4299,1.4299,1.4299,1.4299,1.4299,1.4299,1.4299,1.4299,1.4299,1.4299,1.4299,1.4299,1.4299,1.4299,1.4299,1.4299,1.4299,1.3856,1.3679,1.3679,1.3236,1.2677,1.2003,1.1479,1.1215,1.1204,1.1204,1.1457,1.179,1.1446,1.1446,1.1876,1.1446,1.1446,1.1876,1.1876,1.2128,1.2454,1.2422,1.2633,1.3043,1.2823,1.3022,1.3437,1.3437,1.3431,1.3417,1.3403,1.3403,1.3403,1.3403,1.3403,1.3403,1.3403,1.3403,1.3403,1.3403,1.3403,1.3403,1.3403,1.3403,1.3403,1.3403,1.3403,1.3403,1.3403,1.3403,1.3403,1.3403,1.3403,1.3403,1.3403,1.341,1.3424,1.3424,1.3431,1.3492,1.3634,1.3648,1.3702,1.3844,1.3871,1.3939,1.4082,1.4224,1.4299,1.4299,1.4299,1.4299,1.4299,1.4299,1.4299,1.4299,1.4299,1.4299,1.4299,1.4299,1.4299,1.4299,1.4299,1.4299,1.4299,1.4299,1.4299,1.4299,1.4299,1.4299,1.4299,1.4299,1.4299,1.4299,1.4299,1.4299,1.4299,1.4299,1.4299,1.4299,1.4299,1.4299,1.4299,1.4299,1.4299,1.4299,1.4299,1.4299,1.4299,1.4299,1.4299,1.4299,1.4299,1.4299,1.4299,1.4299,1.421,1.4122,1.4122,1.3679,1.3382,1.3236,1.279,1.2296,1.176,1.2196,1.2143,1.179,1.2042,1.2208,1.238,1.2208,1.2208,1.238,1.238,1.238,1.2552,1.2863,1.3107,1.3193,1.3501,1.3658,1.3743,1.3743,1.3675,1.3559,1.3444,1.3403,1.3403,1.3403,1.3403,1.3403,1.3403,1.3403,1.3403,1.3403,1.3403,1.3403,1.3403,1.3403,1.3403,1.3403,1.3403,1.3403,1.3403,1.3403,1.3403,1.3403,1.3403,1.3403,1.3403,1.3498,1.358,1.358,1.3675,1.3756,1.379,1.3797,1.3858,1.4007,1.4129,1.4211,1.4245,1.4278,1.4299,1.4299,1.4299,1.4299,1.4299,1.4299,1.4299,1.4299,1.4299,1.4299,1.4299,1.4299,1.4299,1.4299,1.4299,1.4299,1.4299,1.4299,1.4299,1.4299,1.4299,1.4299,1.4299,1.4299,1.4299,1.4299,1.4299,1.4299,1.4319,1.4299,1.4299,1.4299,1.4299,1.4299,1.4299,1.4299,1.4299,1.4299,1.4299,1.4299,1.4299,1.4299,1.4299,1.4299,1.4299,1.4299,1.4299,1.4299,1.4299,1.4299,1.4299,1.4033,1.3945,1.3945,1.3679,1.3198,1.2419,1.2683,1.2735,1.2667,1.2667,1.2836,1.301,1.2749,1.2836,1.301,1.301,1.3184,1.3359,1.3547,1.3607,1.3681,1.3786,1.3838,1.3838,1.3838,1.3705,1.3715,1.3641,1.3607,1.3607,1.3607,1.3607,1.3607,1.3607,1.3607,1.3607,1.3607,1.3607,1.3607,1.3607,1.3607,1.3573,1.3431,1.3403,1.3403,1.3403,1.3403,1.3424,1.3498,1.3512,1.3532,1.36,1.3682,1.3729,1.3729,1.379,1.3865,1.3939,1.3953,1.4014,1.4163,1.4251,1.4299,1.4299,1.4299,1.4299,1.4299,1.4299,1.4299,1.4299,1.4299,1.4299,1.4299,1.4299,1.4299,1.4299,1.4299,1.4299,1.4299,1.4299,1.4299,1.4299,1.4299,1.4299,1.4299,1.4299,1.4299,1.4299,1.4299,1.4299,1.4299,1.4299,1.434,1.4421,1.4299,1.4299,1.4299,1.4299,1.4299,1.4299,1.4299,1.4299,1.4299,1.4299,1.4299,1.4299,1.4299,1.4299,1.4299,1.4299,1.4299,1.4299,1.4299,1.4299,1.4299,1.4299,1.4299,1.4299,1.4299,1.4299,1.3856,1.3053,1.3141,1.3318,1.3591,1.3325,1.3325,1.3679,1.3318,1.3318,1.3679,1.3679,1.3945,1.4292,1.4163,1.4109,1.4095,1.3966,1.3919,1.3919,1.3919,1.3905,1.3878,1.3851,1.3838,1.3838,1.3838,1.3838,1.3838,1.3838,1.3838,1.3838,1.3838,1.3838,1.3838,1.3838,1.3838,1.3777,1.3532,1.3478,1.3478,1.3478,1.3478,1.3512,1.3641,1.3668,1.3702,1.3824,1.3865,1.3878,1.3878,1.3905,1.3966,1.4095,1.4109,1.4163,1.4285,1.4299,1.4299,1.4299,1.4299,1.4299,1.4299,1.4299,1.4299,1.4299,1.4299,1.4299,1.4299,1.4299,1.4299,1.4299,1.4299,1.4299,1.4299,1.4299,1.4299,1.4299,1.4299,1.4299,1.4299,1.4299,1.4299,1.4299,1.4299,1.4312,1.434,1.4367,1.4448,1.457,1.4299,1.4299,1.4299,1.4299,1.4299,1.4299,1.4299,1.4299,1.4299,1.4299,1.4299,1.4299,1.4299,1.4299,1.4299,1.4299,1.4299,1.4299,1.4299,1.4299,1.4299,1.4299,1.4299,1.4299,1.4299,1.4299,1.4033,1.3502,1.3945,1.3945,1.3591,1.3945,1.4122,1.421,1.4122,1.4122,1.421,1.421,1.421,1.4299,1.4278,1.4272,1.4265,1.4245,1.4238,1.4238,1.4238,1.415,1.4021,1.3885,1.3838,1.3838,1.3838,1.3838,1.3838,1.3838,1.3838,1.3838,1.3838,1.3838,1.3838,1.3838,1.3838,1.3831,1.379,1.3783,1.3783,1.3783,1.3783,1.379,1.381,1.381,1.3817,1.3838,1.3953,1.4041,1.4041,1.4156,1.4245,1.4265,1.4272,1.4278,1.4299,1.4299,1.4299,1.4299,1.4299,1.4299,1.4299,1.4299,1.4299,1.4299,1.4299,1.4299,1.4299,1.4299,1.4299,1.4299,1.4299,1.4299,1.4299,1.4299,1.4299,1.4299,1.4299,1.4299,1.4299,1.4299,1.4299,1.4299,1.4299,1.4373,1.4502,1.4631,1.4692,1.4733,1.4299,1.4299,1.4299,1.4299,1.4299,1.4299,1.4299,1.4299,1.4299,1.4299,1.4299,1.4299,1.4299,1.4299,1.4299,1.4299,1.4299,1.4299,1.4299,1.4299,1.4299,1.4299,1.4299,1.4299,1.4299,1.4299,1.421,1.4033,1.421,1.421,1.4033,1.421,1.4299,1.4299,1.4299,1.4299,1.4299,1.4299,1.4299,1.4299,1.4299,1.4299,1.4299,1.4299,1.4299,1.4299,1.4299,1.4258,1.419,1.4122,1.4095,1.4095,1.4095,1.4095,1.4095,1.4095,1.4095,1.4095,1.4095,1.4095,1.4095,1.4095,1.4095,1.4095,1.4095,1.4095,1.4048,1.3878,1.3838,1.3865,1.3953,1.3973,1.4,1.4082,1.4156,1.4197,1.4197,1.4258,1.4299,1.4299,1.4299,1.4299,1.4299,1.4299,1.4299,1.4299,1.4299,1.4299,1.4299,1.4299,1.4299,1.4299,1.4299,1.4299,1.4299,1.4299,1.4299,1.4299,1.4299,1.4299,1.4299,1.4299,1.4299,1.4299,1.4299,1.4299,1.4299,1.4299,1.4346,1.4421,1.4421,1.4509,1.4658,1.4814,1.4869,1.4889]}]]